[[{"header":{"parameterUnit":"m.s-1","parameterCategory":1,"la1":30.6,"la2":28.766,"lo1":-90.7593,"lo2":-88.6598,"dy":0.0162,"dx":0.0183,"nx":116,"ny":114,"refTime":"2024-06-05T06:00:00:Z","depth":0,"parameterNumber":2,"parameterNumberName":"U-component_of_WINDS"},"data":[0.0,0.0,0.0,0.0,0.0,0.0,0.0,0.0,0.0,0.0,0.0,0.0,0.0,0.0,0.0,0.0,0.0,0.0,0.0,0.0,0.0,0.0,0.0,0.0,0.0,0.0,0.0,0.0,0.0,0.0,0.0,0.0,0.0,0.0,0.0,0.0,0.0,0.0,0.0,0.0,0.0,0.0,0.0,0.0,0.0,0.0,0.0,0.0,0.0,0.0,0.0,0.0,0.0,0.0,0.0,0.0,0.0,0.0,0.0,0.0,0.0,0.0,0.0,0.0,0.0,0.0,0.0,0.0,0.0,0.0,0.0,0.0,0.0,0.0,0.0,0.0,0.0,0.0,0.0,0.0,0.0,0.0,0.0,0.0,0.0,0.0,0.0,0.0,0.0,0.0,0.0,0.0,0.0,0.0,0.0,0.0,0.0,0.0,0.0,0.0,0.0,0.0,0.0,0.0,0.0,0.0,0.0,0.0,0.0,0.0,0.0,0.0,0.0,0.0,0.0,0.0,0.0,0.0,0.0,0.0,0.0,0.0,0.0,0.0,0.0,0.0,0.0,0.0,0.0,0.0,0.0,0.0,0.0,0.0,0.0,0.0,0.0,0.0,0.0,0.0,0.0,0.0,0.0,0.0,0.0,0.0,0.0,0.0,0.0,0.0,0.0,0.0,0.0,0.0,0.0,0.0,0.0,0.0,0.0,0.0,0.0,0.0,0.0,0.0,0.0,0.0,0.0,0.0,0.0,0.0,0.0,0.0,0.0,0.0,0.0,0.0,0.0,0.0,0.0,0.0,0.0,0.0,0.0,0.0,0.0,0.0,0.0,0.0,0.0,0.0,0.0,0.0,0.0,0.0,0.0,0.0,0.0,0.0,0.0,0.0,0.0,0.0,0.0,0.0,0.0,0.0,0.0,0.0,0.0,0.0,0.0,0.0,0.0,0.0,0.0,0.0,0.0,0.0,0.0,0.0,0.0,0.0,0.0,0.0,0.0,0.0,0.0,0.0,0.0,0.0,0.0,0.0,0.0,0.0,0.0,0.0,0.0,0.0,0.0,0.0,0.0,0.0,0.0,0.0,0.0,0.0,0.0,0.0,0.0,0.0,0.0,0.0,0.0,0.0,0.0,0.0,0.0,0.0,0.0,0.0,0.0,0.0,0.0,0.0,0.0,0.0,0.0,0.0,0.0,0.0,0.0,0.0,0.0,0.0,0.0,0.0,0.0,0.0,0.0,0.0,0.0,0.0,0.0,0.0,0.0,0.0,0.0,0.0,0.0,0.0,0.0,0.0,0.0,0.0,0.0,0.0,0.0,0.0,0.0,0.0,0.0,0.0,0.0,0.0,0.0,0.0,0.0,0.0,0.0,0.0,0.0,0.0,0.0,0.0,0.0,0.0,0.0,0.0,0.0,0.0,0.0,0.0,0.0,0.0,0.0,0.0,0.0,0.0,0.0,0.0,0.0,0.0,0.0,0.0,0.0,0.0,0.0,0.0,0.0,0.0,0.0,0.0,0.0,0.0,0.0,0.0,0.0,0.0,0.0,0.0,0.0,0.0,0.0,0.0,0.0,0.0,0.0,0.0,0.0,0.0,0.0,0.0,0.0,0.0,0.0,0.0,0.0,0.0,0.0,0.0,0.0,0.0,0.0,0.0,0.0,0.0,0.0,0.0,0.0,0.0,0.0,0.0,0.0,0.0,0.0,0.0,0.0,0.0,0.0,0.0,0.0,0.0,0.0,0.0,0.0,0.0,0.0,0.0,0.0,0.0,0.0,0.0,0.0,0.0,0.0,0.0,0.0,0.0,0.0,0.0,0.0,0.0,0.0,0.0,0.0,0.0,0.0,0.0,0.0,0.0,0.0,0.0,0.0,0.0,0.0,0.0,0.0,0.0,0.0,0.0,0.0,0.0,0.0,0.0,0.0,0.0,0.0,0.0,0.0,0.0,0.0,0.0,0.0,0.0,0.0,0.0,0.0,0.0,0.0,0.0,0.0,0.0,0.0,0.0,0.0,0.0,0.0,0.0,0.0,0.0,0.0,0.0,0.0,0.0,0.0,0.0,0.0,0.0,0.0,0.0,0.0,0.0,0.0,0.0,0.0,0.0,0.0,0.0,0.0,0.0,0.0,0.0,0.0,0.0,0.0,0.0,0.0,0.0,0.0,0.0,0.0,0.0,0.0,0.0,0.0,0.0,0.0,0.0,0.0,0.0,0.0,0.0,0.0,0.0,0.0,0.0,0.0,0.0,0.0,0.0,0.0,0.0,0.0,0.0,0.0,0.0,0.0,0.0,0.0,0.0,0.0,0.0,0.0,0.0,0.0,0.0,0.0,0.0,0.0,0.0,0.0,0.0,0.0,0.0,0.0,0.0,0.0,0.0,0.0,0.0,0.0,0.0,0.0,0.0,0.0,0.0,0.0,0.0,0.0,0.0,0.0,0.0,0.0,0.0,0.0,0.0,0.0,0.0,0.0,0.0,0.0,0.0,0.0,0.0,0.0,0.0,0.0,0.0,0.0,0.0,0.0,0.0,0.0,0.0,0.0,0.0,0.0,0.0,0.0,0.0,0.0,0.0,0.0,0.0,0.0,0.0,0.0,0.0,0.0,0.0,0.0,0.0,0.0,0.0,0.0,0.0,0.0,0.0,0.0,0.0,0.0,0.0,0.0,0.0,0.0,0.0,0.0,0.0,0.0,0.0,0.0,0.0,0.0,0.0,0.0,0.0,0.0,0.0,0.0,0.0,0.0,0.0,0.0,0.0,0.0,0.0,0.0,0.0,0.0,0.0,0.0,0.0,0.0,0.0,0.0,0.0,0.0,0.0,0.0,0.0,0.0,0.0,0.0,0.0,0.0,0.0,0.0,0.0,0.0,0.0,0.0,0.0,0.0,0.0,0.0,0.0,0.0,0.0,0.0,0.0,0.0,0.0,0.0,0.0,0.0,0.0,0.0,0.0,0.0,0.0,0.0,0.0,0.0,0.0,0.0,0.0,0.0,0.0,0.0,0.0,0.0,0.0,0.0,0.0,0.0,0.0,0.0,0.0,0.0,0.0,0.0,0.0,0.0,0.0,0.0,0.0,0.0,0.0,0.0,0.0,0.0,0.0,0.0,0.0,0.0,0.0,0.0,0.0,0.0,0.0,0.0,0.0,0.0,0.0,0.0,0.0,0.0,0.0,0.0,0.0,0.0,0.0,0.0,0.0,0.0,0.0,0.0,0.0,0.0,0.0,0.0,0.0,0.0,0.0,0.0,0.0,0.0,0.0,0.0,0.0,0.0,0.0,0.0,0.0,0.0,0.0,0.0,0.0,0.0,0.0,0.0,0.0,0.0,0.0,0.0,0.0,0.0,0.0,0.0,0.0,0.0,0.0,0.0,0.0,0.0,0.0,0.0,0.0,0.0,0.0,0.0,0.0,0.0,0.0,0.0,0.0,0.0,0.0,0.0,0.0,0.0,0.0,0.0,0.0,0.0,0.0,0.0,0.0,0.0,0.0,0.0,0.0,0.0,0.0,0.0,0.0,0.0,0.0,0.0,0.0,0.0,0.0,0.0,0.0,0.0,0.0,0.0,0.0,0.0,0.0,0.0,0.0,0.0,0.0,0.0,0.0,0.0,0.0,0.0,0.0,0.0,0.0,0.0,0.0,0.0,0.0,0.0,0.0,0.0,0.0,0.0,0.0,0.0,0.0,0.0,0.0,0.0,0.0,0.0,0.0,0.0,0.0,0.0,0.0,0.0,0.0,0.0,0.0,0.0,0.0,0.0,0.0,0.0,0.0,0.0,0.0,0.0,0.0,0.0,0.0,0.0,0.0,0.0,0.0,0.0,0.0,0.0,0.0,0.0,0.0,0.0,0.0,0.0,0.0,0.0,0.0,0.0,0.0,0.0,0.0,0.0,0.0,0.0,0.0,0.0,0.0,0.0,0.0,0.0,0.0,0.0,0.0,0.0,0.0,0.0,0.0,0.0,0.0,0.0,0.0,0.0,0.0,0.0,0.0,0.0,0.0,0.0,0.0,0.0,0.0,0.0,0.0,0.0,0.0,0.0,0.0,0.0,0.0,0.0,0.0,0.0,0.0,0.0,0.0,0.0,0.0,0.0,0.0,0.0,0.0,0.0,0.0,0.0,0.0,0.0,0.0,0.0,0.0,0.0,0.0,0.0,0.0,0.0,0.0,0.0,0.0,0.0,0.0,0.0,0.0,0.0,0.0,0.0,0.0,0.0,0.0,0.0,0.0,0.0,0.0,0.0,0.0,0.0,0.0,0.0,0.0,0.0,0.0,0.0,0.0,0.0,0.0,0.0,0.0,0.0,0.0,0.0,0.0,0.0,0.0,0.0,0.0,0.0,0.0,0.0,0.0,0.0,0.0,0.0,0.0,0.0,0.0,0.0,0.0,0.0,0.0,0.0,0.0,0.0,0.0,0.0,0.0,0.0,0.0,0.0,0.0,0.0,0.0,0.0,0.0,0.0,0.0,0.0,0.0,0.0,0.0,0.0,0.0,0.0,0.0,0.0,0.0,0.0,0.0,0.0,0.0,0.0,0.0,0.0,0.0,0.0,0.0,0.0,0.0,0.0,0.0,0.0,0.0,0.0,0.0,0.0,0.0,0.0,0.0,0.0,0.0,0.0,0.0,0.0,0.0,0.0,0.0,0.0,0.0,0.0,0.0,0.0,0.0,0.0,0.0,0.0,0.0,0.0,0.0,0.0,0.0,0.0,0.0,0.0,0.0,0.0,0.0,0.0,0.0,0.0,0.0,0.0,0.0,0.0,0.0,0.0,0.0,0.0,0.0,0.0,0.0,0.0,0.0,0.0,0.0,0.0,0.0,0.0,0.0,0.0,0.0,0.0,0.0,0.0,0.0,0.0,0.0,0.0,0.0,0.0,0.0,0.0,0.0,0.0,0.0,0.0,0.0,0.0,0.0,0.0,0.0,0.0,0.0,0.0,0.0,0.0,0.0,0.0,0.0,0.0,0.0,0.0,0.0,0.0,0.0,0.0,0.0,0.0,0.0,0.0,0.0,0.0,0.0,0.0,0.0,0.0,0.0,0.0,0.0,0.0,0.0,0.0,0.0,0.0,0.0,0.0,0.0,0.0,0.0,0.0,0.0,0.0,0.0,0.0,0.0,0.0,0.0,0.0,0.0,0.0,0.0,0.0,0.0,0.0,0.0,0.0,0.0,0.0,0.0,0.0,0.0,0.0,0.0,0.0,0.0,0.0,0.0,0.0,0.0,0.0,0.0,0.0,0.0,0.0,0.0,0.0,0.0,0.0,0.0,0.0,0.0,0.0,0.0,0.0,0.0,0.0,0.0,0.0,0.0,0.0,0.0,0.0,0.0,0.0,0.0,0.0,0.0,0.0,0.0,0.0,0.0,0.0,0.0,0.0,0.0,0.0,0.0,0.0,0.0,0.0,0.0,0.0,0.0,0.0,0.0,0.0,0.0,0.0,0.0,0.0,0.0,0.0,0.0,0.0,0.0,0.0,0.0,0.0,0.0,0.0,0.0,0.0,0.0,0.0,0.0,0.0,0.0,0.0,0.0,0.0,0.0,0.0,0.0,0.0,0.0,0.0,0.0,0.0,0.0,0.0,0.0,0.0,0.0,0.0,0.0,0.0,0.0,0.0,0.0,0.0,0.0,0.0,0.0,0.0,0.0,0.0,0.0,0.0,0.0,0.0,0.0,0.0,0.0,0.0,0.0,0.0,0.0,0.0,0.0,0.0,0.0,0.0,0.0,0.0,0.0,0.0,0.0,0.0,0.0,0.0,0.0,0.0,0.0,0.0,0.0,0.0,0.0,0.0,0.0,0.0,0.0,0.0,0.0,0.0,0.0,0.0,0.0,0.0,0.0,0.0,0.0,0.0,0.0,0.0,0.0,0.0,0.0,0.0,0.0,0.0,0.0,0.0,0.0,0.0,0.0,0.0,0.0,0.0,0.0,0.0,0.0,0.0,0.0,0.0,0.0,0.0,0.0,0.0,0.0,0.0,0.0,0.0,0.0,0.0,0.0,0.0,0.0,0.0,0.0,0.0,0.0,0.0,0.0,0.0,0.0,0.0,0.0,0.0,0.0,0.0,0.0,0.0,0.0,0.0,0.0,-3.4752,0.0,0.0,0.0,0.0,0.0,0.0,0.0,0.0,0.0,0.0,0.0,0.0,0.0,0.0,0.0,0.0,0.0,0.0,0.0,0.0,0.0,0.0,0.0,0.0,-1.7369,-1.786,-1.8726,-1.8629,-1.8906,-1.9845,0.0,0.0,0.0,0.0,0.0,-1.9269,-1.9269,-1.9665,-2.0512,-2.0512,-2.1317,-2.2878,-2.3295,-2.2732,-2.1323,0.0,0.0,0.0,0.0,0.0,0.0,0.0,0.0,0.0,0.0,0.0,0.0,0.0,0.0,0.0,0.0,0.0,0.0,0.0,0.0,0.0,0.0,0.0,0.0,0.0,0.0,0.0,0.0,0.0,0.0,0.0,0.0,0.0,0.0,0.0,0.0,0.0,0.0,0.0,0.0,0.0,0.0,0.0,0.0,0.0,0.0,0.0,0.0,0.0,0.0,0.0,0.0,0.0,0.0,0.0,0.0,0.0,0.0,0.0,0.0,0.0,0.0,0.0,0.0,0.0,0.0,0.0,0.0,0.0,0.0,0.0,-3.7012,0.0,0.0,0.0,0.0,0.0,0.0,0.0,0.0,0.0,0.0,0.0,0.0,0.0,0.0,0.0,0.0,0.0,0.0,0.0,0.0,0.0,-1.5884,-1.7603,-1.7832,-1.8219,-1.9108,-1.9286,-1.9498,-1.9874,-1.9965,0.0,0.0,0.0,-2.0274,-2.0281,-2.0347,-2.0935,-2.2063,-2.26,-2.4031,-2.6281,-2.7432,-2.6394,-2.3528,-2.2341,0.0,0.0,0.0,0.0,0.0,0.0,0.0,0.0,0.0,0.0,0.0,0.0,0.0,0.0,0.0,0.0,0.0,0.0,0.0,0.0,0.0,0.0,0.0,0.0,0.0,0.0,0.0,0.0,0.0,0.0,0.0,0.0,0.0,0.0,0.0,0.0,0.0,0.0,0.0,0.0,0.0,0.0,0.0,0.0,0.0,0.0,0.0,0.0,0.0,0.0,0.0,0.0,0.0,0.0,0.0,0.0,0.0,0.0,0.0,0.0,0.0,0.0,0.0,0.0,-4.5216,-4.6379,-4.6259,-4.669,-4.7372,-4.3406,-4.1681,-4.1585,0.0,0.0,0.0,0.0,0.0,0.0,0.0,0.0,0.0,0.0,0.0,0.0,0.0,0.0,0.0,0.0,0.0,0.0,0.0,0.0,-1.5785,-1.685,-1.7164,-1.8012,-1.9798,-1.9188,-1.9378,-2.0965,-2.0148,0.0,0.0,-2.0146,-2.0043,-1.9887,-2.0159,-2.1378,-2.3522,-2.621,-2.8383,-3.0075,-2.969,-2.9616,-2.9697,-2.7026,-2.6191,-2.6595,0.0,0.0,0.0,0.0,0.0,0.0,0.0,0.0,0.0,0.0,0.0,0.0,0.0,0.0,0.0,0.0,0.0,0.0,0.0,0.0,0.0,0.0,0.0,0.0,0.0,0.0,0.0,0.0,0.0,0.0,0.0,0.0,0.0,0.0,0.0,0.0,0.0,0.0,0.0,0.0,0.0,-2.9913,-3.1458,0.0,0.0,0.0,0.0,0.0,0.0,0.0,0.0,0.0,0.0,0.0,0.0,0.0,0.0,-4.4873,-4.682,-4.7879,-4.8051,-4.9424,-5.0166,-5.0338,-4.97,-5.0166,-5.1378,-5.0149,0.0,-4.4673,-4.3224,0.0,0.0,0.0,0.0,0.0,0.0,0.0,0.0,0.0,0.0,0.0,0.0,0.0,0.0,0.0,0.0,0.0,0.0,0.0,0.0,0.0,-1.8559,-1.9648,-2.054,-2.1368,-2.1757,-2.1481,-2.1488,-2.1324,-2.0883,-2.084,-2.0916,-2.1093,-2.2087,-2.4037,-2.699,-3.0093,-3.1976,-3.2707,-3.3301,-3.3774,-3.4093,-3.2878,-3.0865,-2.8193,-2.5542,0.0,0.0,0.0,0.0,0.0,0.0,0.0,0.0,0.0,0.0,0.0,0.0,0.0,0.0,0.0,0.0,0.0,0.0,0.0,0.0,0.0,0.0,0.0,0.0,0.0,0.0,0.0,0.0,0.0,0.0,0.0,0.0,0.0,0.0,0.0,0.0,0.0,0.0,0.0,-2.8807,-3.1282,-3.2844,-3.3108,-3.2985,0.0,0.0,0.0,0.0,0.0,0.0,0.0,0.0,0.0,-4.4782,-4.5805,-4.7004,-4.8352,-4.9589,-5.0604,-5.1407,-5.208,-5.2615,-5.3011,-5.2684,-5.2891,-5.3477,-5.3166,-5.1839,-4.9717,-4.7338,-4.4734,-4.2154,0.0,0.0,0.0,0.0,0.0,-4.0531,0.0,0.0,0.0,0.0,0.0,0.0,0.0,0.0,0.0,0.0,0.0,0.0,-1.866,-2.0051,-2.1159,-2.1801,-2.3181,-2.3427,-2.2077,-2.2433,-2.2314,-2.1408,-2.1374,-2.1636,-2.222,-2.4511,-2.7332,-3.0679,-3.3352,-3.4893,-3.5353,-3.6534,-3.7113,-3.7175,-3.7283,-3.4939,-3.0759,-2.8248,-2.6648,-2.545,0.0,0.0,0.0,0.0,0.0,0.0,0.0,0.0,0.0,0.0,0.0,0.0,0.0,0.0,0.0,0.0,0.0,0.0,0.0,0.0,0.0,0.0,0.0,0.0,0.0,0.0,0.0,0.0,0.0,0.0,0.0,0.0,0.0,0.0,0.0,0.0,0.0,-3.0949,-3.3336,-3.5075,-3.5987,-3.6162,0.0,0.0,0.0,0.0,0.0,0.0,-4.4132,-4.5554,-4.6976,-4.8521,-4.9594,-5.0519,-5.1256,-5.1746,-5.2563,-5.3684,-5.3684,-5.408,-5.4787,-5.4598,-5.4615,-5.4787,-5.4581,-5.4201,-5.3477,-5.0774,-4.8131,-4.5691,-4.4932,-4.3828,-4.276,-4.3811,-4.4534,-4.5231,0.0,0.0,0.0,0.0,0.0,0.0,0.0,0.0,0.0,0.0,0.0,-1.7926,-2.0724,-2.0962,-2.1782,-2.3933,-2.3417,-2.298,0.0,-2.218,-2.1559,-2.1314,-2.1309,-2.171,-2.257,-2.6961,-3.0765,-3.3872,-3.5421,-3.6939,-3.8375,-3.8589,-3.8685,-3.8685,-3.876,-3.791,-3.6217,-3.3283,-3.1177,-2.9474,-2.5573,0.0,0.0,0.0,0.0,0.0,0.0,0.0,0.0,0.0,0.0,0.0,0.0,0.0,0.0,0.0,0.0,0.0,0.0,0.0,0.0,0.0,0.0,0.0,0.0,0.0,0.0,0.0,0.0,0.0,0.0,0.0,0.0,0.0,0.0,0.0,0.0,0.0,0.0,-3.987,-4.0797,0.0,0.0,0.0,0.0,-4.2342,-4.3886,-4.58,-4.8187,-4.9047,-5.0171,-5.1733,-5.2264,-5.2874,-5.3622,-5.4098,-5.4374,-5.4443,-5.4443,-5.4839,-5.5497,-5.4822,-5.4891,-5.5529,-5.4805,-5.4494,-5.4322,-5.2687,-5.1132,-4.9631,-4.881,-4.8034,-4.7431,-4.8054,-4.8237,-4.8275,0.0,0.0,0.0,0.0,0.0,-1.2275,-1.338,-1.3683,-1.441,-1.6159,-1.7357,-1.8772,-2.0669,-2.231,-2.3618,-2.4413,-2.498,-2.4837,-2.3755,-2.2888,-2.2486,-2.2578,-2.216,-2.3481,-2.678,-2.9982,-3.2915,-3.5508,-3.7508,-3.8767,-3.9319,-3.9882,-4.0147,-4.0147,-4.0262,-3.974,-3.8569,-3.518,-3.2914,-3.1247,-2.735,-2.487,0.0,0.0,0.0,0.0,0.0,0.0,0.0,0.0,0.0,0.0,0.0,0.0,0.0,0.0,0.0,0.0,0.0,0.0,0.0,0.0,0.0,0.0,0.0,0.0,0.0,0.0,0.0,0.0,0.0,0.0,0.0,0.0,0.0,0.0,0.0,0.0,0.0,-4.2394,-4.3799,0.0,-4.4202,-4.4641,-4.5361,-4.6372,-4.7941,-4.9627,-5.1452,-5.226,-5.3081,-5.4028,-5.4154,-5.4252,-5.4456,-5.4468,-5.4512,-5.4512,-5.4512,-5.4649,-5.4891,-5.4632,-5.4649,-5.4891,-5.4615,-5.4512,-5.4477,-5.3925,-5.3097,-5.2166,-5.1873,-5.1287,-5.059,-5.0609,-5.0851,-5.125,0.0,0.0,0.0,0.0,-1.1929,-1.2254,-1.3603,-1.3989,-1.4828,-1.6786,-1.8401,-1.9956,-2.1495,-2.3618,-2.5113,-2.5561,-2.6019,-2.5775,-2.4677,-2.3555,-2.3021,-2.3227,-2.346,-2.5588,-2.9885,-3.2141,-3.4637,-3.7456,-3.8957,-3.9836,-4.0112,-4.0653,-4.0912,-4.0894,-4.0982,-4.0753,-4.0123,-3.746,-3.5233,-3.323,-3.0162,-2.7999,-2.6398,0.0,0.0,0.0,0.0,0.0,0.0,0.0,0.0,0.0,0.0,0.0,0.0,0.0,0.0,0.0,0.0,0.0,0.0,0.0,0.0,0.0,0.0,0.0,0.0,0.0,0.0,0.0,0.0,0.0,0.0,0.0,0.0,0.0,0.0,0.0,-4.2482,-4.4799,-4.6449,-4.7397,-4.7397,-4.8345,-4.9276,-5.003,-5.1294,-5.2611,-5.3892,-5.4437,-5.4963,-5.5584,-5.5449,-5.5452,-5.5542,-5.5383,-5.5288,-5.5288,-5.5288,-5.5288,-5.5288,-5.5288,-5.5288,-5.527,-5.4994,-5.4874,-5.4856,-5.4615,-5.4218,-5.377,-5.377,-5.346,-5.2963,-5.2746,-5.288,-5.3147,0.0,0.0,0.0,-1.2118,-1.1955,-1.2284,-1.3603,-1.4393,-1.5515,-1.7459,-1.9462,-2.145,-2.3385,-2.4822,-2.6153,-2.748,-2.6363,-2.5661,-2.5793,-2.404,-2.3051,-2.3183,-2.5179,-2.7953,-3.15,-3.3394,-3.6095,-3.9698,-3.9715,-4.0129,-4.0912,-4.0912,-4.0912,-4.0912,-4.0912,-4.0959,-4.1041,-4.0279,-3.8343,-3.5692,-3.4194,-3.2634,-3.0931,0.0,0.0,0.0,0.0,0.0,0.0,0.0,0.0,0.0,0.0,0.0,0.0,0.0,0.0,0.0,0.0,0.0,0.0,0.0,0.0,0.0,0.0,0.0,0.0,0.0,0.0,0.0,0.0,0.0,0.0,0.0,0.0,0.0,-3.9424,-4.2131,-4.494,-4.7257,-4.8889,-4.9837,-4.9899,-5.1242,-5.2435,-5.3218,-5.3928,-5.47,-5.5507,-5.5543,-5.5804,-5.6405,-5.6251,-5.6411,-5.6982,-5.6854,-5.6805,-5.6805,-5.6805,-5.6805,-5.6805,-5.6805,-5.6805,-5.6753,-5.5995,-5.565,-5.5598,-5.4856,-5.4546,-5.4546,-5.4512,-5.4512,-5.4512,-5.448,-5.4271,-5.3932,0.0,0.0,-1.2169,-1.2352,-1.2453,-1.2819,-1.3663,-1.4767,-1.6054,-1.7519,-1.9866,-2.1979,-2.3445,-2.5226,-2.6662,-2.7525,-2.6363,-2.5661,-2.5793,-2.3954,-2.3597,-2.5267,-2.8577,-3.1368,-3.3481,-3.5923,-3.7951,-3.9576,-4.0238,-4.0687,-4.0912,-4.0912,-4.0912,-4.0912,-4.0912,-4.0935,-4.0942,-4.0804,-4.0035,-3.8676,-3.611,-3.4138,-3.2511,0.0,0.0,0.0,0.0,0.0,0.0,0.0,0.0,0.0,0.0,0.0,0.0,0.0,0.0,0.0,0.0,0.0,0.0,0.0,0.0,0.0,0.0,0.0,0.0,0.0,0.0,0.0,0.0,0.0,0.0,0.0,0.0,-4.2026,-4.2552,-4.5782,-4.8749,-5.0539,-5.2102,-5.326,-5.3857,-5.4296,-5.4647,-5.4858,-5.5069,-5.5507,-5.6262,-5.6297,-5.6545,-5.7021,-5.7007,-5.692,-5.6854,-5.6821,-5.6805,-5.6805,-5.6805,-5.6805,-5.6805,-5.6805,-5.6805,-5.6788,-5.6564,-5.6477,-5.6408,-5.5632,-5.5322,-5.5253,-5.4718,-5.4512,-5.448,-5.4224,-5.3932,-5.3618,0.0,-1.2588,-1.2342,-1.2585,-1.2826,-1.3179,-1.3824,-1.532,-1.6698,-1.758,-2.0288,-2.2403,-2.3131,-2.4986,-2.6333,-2.6746,-2.6048,-2.5398,-2.4912,-2.4356,-2.5099,-2.744,-3.0688,-3.3339,-3.5267,-3.7356,-3.8973,-4.0081,-4.0623,-4.0912,-4.0912,-4.0912,-4.0912,-4.0912,-4.0912,-4.0912,-4.0912,-4.0982,-4.0834,-4.0336,-3.8363,-3.6841,-3.5663,-3.4196,-3.3143,-3.2301,-3.0878,-3.0141,-2.9685,-2.8579,0.0,0.0,0.0,0.0,0.0,0.0,0.0,0.0,0.0,0.0,0.0,0.0,0.0,0.0,0.0,0.0,0.0,0.0,0.0,0.0,0.0,0.0,0.0,0.0,-4.291,-4.5572,-4.6677,-4.8766,-5.0873,-5.2751,-5.3752,-5.463,-5.5437,-5.5507,-5.5507,-5.5507,-5.5806,-5.6157,-5.6578,-5.6851,-5.7209,-5.7741,-5.7729,-5.7673,-5.7719,-5.7719,-5.7719,-5.7719,-5.7719,-5.7719,-5.7719,-5.7719,-5.7719,0.0,-5.7391,-5.7253,-5.7202,-5.6426,-5.5908,0.0,0.0,0.0,0.0,0.0,-5.3833,-5.3584,0.0,-1.2671,-1.2626,-1.2879,-1.3126,-1.3505,-1.4135,-1.589,-1.7273,-1.7656,-2.0483,-2.2508,-2.2583,-2.4328,-2.5495,-2.5495,-2.557,-2.5136,0.0,0.0,-2.7205,-2.9494,-3.2093,-3.4505,-3.6704,-3.8112,-3.9476,-4.0847,-4.0888,-4.0912,-4.0912,-4.0912,-4.0912,-4.0912,-4.0912,-4.0935,-4.0935,-4.0918,-4.1006,-4.1088,-4.0485,-3.9914,-3.9266,-3.7812,-3.6812,-3.5897,-3.3705,-3.2511,-3.1739,-3.0194,0.0,0.0,0.0,0.0,0.0,0.0,0.0,0.0,0.0,0.0,0.0,0.0,0.0,0.0,0.0,0.0,0.0,0.0,0.0,0.0,0.0,0.0,0.0,0.0,-4.6178,-4.9205,-5.0977,-5.1249,-5.2004,-5.4068,-5.4384,-5.4735,-5.5437,-5.5507,-5.5543,-5.563,-5.6215,-5.6653,-5.6829,0.0,0.0,0.0,0.0,-5.8526,-5.9012,-5.9012,-5.9012,-5.9012,-5.9012,-5.9012,-5.9012,-5.9012,-5.9012,-5.8978,-5.8323,-5.803,-5.7978,-5.7236,-5.6408,-5.5546,-5.4805,-5.4431,-5.4254,-5.3963,-5.3667,0.0,0.0,-1.2885,-1.2941,-1.3573,-1.3829,-1.4163,-1.488,-1.6029,-1.6998,-1.7624,-1.9672,-2.1291,-2.1829,-2.3618,-2.4784,-2.4784,-2.5277,-2.5766,0.0,0.0,-2.9244,-3.0792,-3.3958,-3.6143,-3.7161,-3.9126,-4.0283,-4.0583,-4.0776,-4.0912,-4.0912,-4.0912,-4.0912,-4.0894,-4.1006,-4.1047,-4.107,-4.1111,-4.1226,-4.1335,-4.1201,-4.0739,-4.0018,-3.9175,-3.8778,-3.8389,-3.6707,-3.6391,-3.6531,-3.4985,-3.3634,-3.2564,-3.2248,0.0,0.0,0.0,0.0,0.0,0.0,0.0,0.0,0.0,0.0,0.0,0.0,0.0,0.0,0.0,0.0,0.0,0.0,0.0,0.0,-4.5473,-4.7761,-5.0053,-5.284,-5.3376,-5.3678,-5.4232,-5.4875,-5.5332,-5.549,-5.5507,-5.5753,-5.6332,-5.6422,-5.6991,-5.822,-5.8253,0.0,-5.9092,-5.9093,-5.9062,-5.9012,-5.9012,-5.9012,-5.9012,0.0,0.0,-5.9012,-5.9012,-5.9012,-5.9012,-5.8857,-5.8806,-5.8737,-5.7995,-5.6874,-5.5546,-5.4805,-5.3929,-5.3112,-5.3043,-5.2437,-5.159,-1.3093,-1.3235,-1.3498,-1.3972,-1.4483,-1.4955,-1.5305,-1.626,-1.7136,-1.764,-1.9148,-2.0453,-2.1141,-2.2383,-2.314,-2.314,-2.3982,0.0,0.0,-2.8942,-3.0876,-3.3066,-3.5762,-3.7567,-3.8327,-3.9758,-4.0534,-4.0583,-4.0799,-4.0912,-4.0912,-4.0912,-4.0912,-4.0912,-4.1047,-4.1093,-4.1093,-4.118,-4.1295,-4.1403,-4.1403,-4.1221,-4.0902,-4.0582,-4.0217,-3.9743,-3.8567,-3.8128,-3.7865,-3.6319,-3.5283,-3.4511,-3.3739,-3.2195,-3.0334,0.0,0.0,0.0,0.0,0.0,0.0,0.0,0.0,0.0,0.0,0.0,0.0,0.0,0.0,-3.8285,0.0,0.0,-4.5509,-4.8132,-4.9896,-5.1622,-5.3535,-5.4234,-5.4585,-5.4657,-5.5049,-5.5354,-5.5354,-5.5312,-5.5596,-5.644,-5.6724,-5.7346,-5.8497,-5.872,-5.8987,-5.9301,-5.92,-5.9081,-5.9012,-5.9012,-5.9012,-5.9012,-5.9012,-5.9012,-5.9012,-5.9012,-5.9012,-5.9012,-5.9012,-5.9012,-5.8961,-5.8202,-5.746,-5.6617,-5.5432,-5.4073,-5.2751,-5.235,-5.174,-5.1145,-1.3308,-1.3887,-1.4388,-1.4414,-1.5091,-1.5669,-1.5716,-1.645,-1.7181,-1.7641,-1.8642,-1.9615,-2.0423,-2.1111,-2.1605,0.0,0.0,0.0,0.0,-3.0027,-3.2458,-3.5195,-3.7232,-3.8629,-3.9342,-4.0129,-4.0558,-4.0673,-4.0817,-4.0912,-4.0912,-4.0912,-4.0912,-4.0912,-4.1047,-4.1093,-4.1093,-4.1203,-4.1295,-4.1403,-4.1426,-4.1515,-4.1587,-4.1446,-4.1007,-4.0397,-3.9585,-3.869,-3.7707,-3.6461,-3.5915,-3.5599,-3.4511,-3.3652,-3.2634,-3.044,-2.9579,0.0,0.0,0.0,0.0,0.0,0.0,0.0,0.0,0.0,-3.6116,-3.7801,-4.0336,-4.2621,-4.3721,-4.6412,-4.8903,-5.016,-5.1772,-5.308,-5.3827,-5.4548,-5.493,-5.49,-5.5066,-5.5169,-5.5169,-5.5066,-5.5436,-5.6483,-5.7004,-5.7625,-5.8529,-5.9006,-5.9234,-5.9234,-5.9081,-5.9012,-5.9012,-5.9012,-5.9012,-5.9012,-5.9012,-5.9012,-5.9012,-5.9012,-5.9012,-5.9012,-5.9012,-5.9012,-5.8961,-5.8374,-5.803,-5.7755,-5.6215,-5.4449,-5.2674,-5.1829,-5.1134,-5.0729,0.0,-1.5178,-1.5917,-1.5292,-1.5555,-1.6,-1.6415,-1.6382,-1.6646,-1.7581,-1.7833,-1.8401,-1.966,-2.0408,-2.1291,-2.2478,0.0,0.0,-2.8544,-3.1717,-3.4281,-3.5995,-3.8005,-3.9106,-3.9216,-4.0054,-4.051,-4.0534,-4.0776,-4.0912,-4.0912,-4.0912,-4.0912,-4.0912,-4.1047,-4.1093,-4.1117,-4.129,-4.1403,-4.1403,-4.1538,-4.1582,-4.1534,-4.0871,-4.0573,-4.0397,-3.9585,-3.8357,-3.7095,-3.6919,-3.6391,-3.588,-3.6426,-3.6057,-3.509,-3.3459,-3.202,-3.0896,-3.072,-3.1303,-3.2266,-3.3526,-3.3923,-3.526,0.0,0.0,-4.1036,-4.318,-4.4939,-4.6117,-4.6209,-4.8176,-5.004,-5.0885,-5.23,-5.3591,-5.4302,-5.4648,-5.4749,-5.4575,-5.4838,-5.5005,-5.5005,-5.5022,-5.5601,-5.7094,-5.7109,-5.7688,-5.9111,-5.908,-5.9047,-5.9047,-5.9012,-5.9012,-5.9012,-5.9012,-5.9012,-5.9012,-5.9012,-5.9012,-5.9012,-5.9012,-5.9012,-5.9012,-5.9012,-5.9012,-5.9012,-5.8926,-5.8495,-5.7807,-5.6758,-5.4871,-5.2598,-5.1659,-5.0297,-4.8877,0.0,-1.5398,-1.6304,-1.5989,-1.6264,-1.6551,-1.6602,-1.6367,-1.6431,-1.7042,-1.7458,-1.8057,-1.9016,-1.972,-2.0426,-2.1178,-2.3491,-2.5843,-2.8014,-3.1301,-3.4347,-3.707,-3.8065,-3.8916,-3.9705,-4.0246,-4.051,-4.051,-4.0776,-4.0912,-4.0912,-4.0912,-4.0912,-4.0912,-4.1047,-4.1093,-4.1093,-4.1226,-4.1277,-4.1295,-4.1426,-4.1493,-4.1405,-4.074,-3.9923,-3.8989,-3.8234,-3.7251,0.0,0.0,-3.5145,-3.46,-3.5409,-3.5128,-3.4249,-3.3178,-3.3038,-3.3617,-3.5332,-3.5638,-3.5901,-3.7754,-3.8503,-3.9479,-4.2175,-4.3212,-4.4025,-4.5433,-4.6919,-4.7928,-4.7889,-4.9752,-5.139,0.0,-5.3046,-5.4149,-5.4477,-5.4212,-5.3967,-5.3856,-5.3981,-5.4277,-5.4821,-5.4793,-5.5386,-5.7007,-5.6967,-5.7543,-5.9046,-5.9047,-5.9012,-5.9012,-5.9461,-5.9702,-5.9702,-5.9702,-5.9702,-5.9702,-5.9237,-5.9012,-5.9012,-5.9012,-5.9012,-5.9012,-5.9012,-5.9012,-5.8978,-5.8475,-5.8111,-5.7681,-5.6141,-5.4334,-5.2531,-5.162,-5.0144,-4.8646,0.0,-1.5696,-1.6702,-1.6702,-1.694,-1.7047,-1.6751,-1.6488,-1.6498,-1.703,-1.7462,-1.8027,-1.8882,-1.9584,-2.0065,-2.0191,-2.2817,-2.5338,-2.7387,-3.079,-3.41,-3.7131,-3.7961,-3.8815,-3.9766,-4.0243,-4.051,-4.051,-4.0776,-4.0912,-4.0912,-4.0912,-4.0912,-4.0894,-4.1,-4.1047,-4.1047,-4.1129,-4.118,-4.1163,-4.1068,-4.1066,-4.0989,-3.9886,-3.8652,-3.7409,-3.6865,-3.5881,0.0,0.0,-3.3354,-3.2967,-3.3565,-3.3494,-3.3178,-3.3055,-3.4248,-3.6017,-3.7909,-3.855,-3.9085,-4.0655,-4.1995,-4.3078,-4.3664,-4.4958,-4.619,-4.6776,-4.7741,-4.8482,-4.8482,-5.0171,-5.1653,-5.1843,-5.3201,-5.427,-5.4477,-5.3873,-5.3477,-5.3684,-5.3529,-5.3763,-5.4648,-5.4765,-5.5389,-5.6831,-5.7044,-5.7667,-5.8944,-5.9012,-5.9012,-5.9012,-5.9789,-6.0202,-6.0202,-6.0392,-6.0392,-6.0185,-5.9616,-5.9219,-5.9012,-5.9012,-5.9012,-5.9012,-5.9012,-5.8858,-5.8632,-5.8031,-5.7614,-5.7197,-5.5683,-5.4031,-5.2437,-5.1757,-5.0279,-4.8702,0.0,0.0,-1.747,-1.747,-1.7486,-1.7374,-1.703,-1.6751,-1.6962,-1.8007,-1.7892,-1.8192,-1.9528,-2.0342,-2.0613,-2.0225,-2.2887,-2.5314,-2.7015,-3.0858,-3.3861,-3.56,-3.778,-3.9005,-3.9022,-3.9988,-4.051,-4.051,-4.0776,-4.0912,-4.0912,-4.0912,-4.0912,-4.0912,-4.0894,-4.0912,-4.0912,-4.1047,-4.1093,-4.1065,-4.0381,-4.0219,-4.008,-3.7787,-3.6486,-3.5862,-3.5845,0.0,-3.2371,-3.1581,-3.1299,-3.1265,-3.13,-3.1809,0.0,-3.4196,-3.6175,-3.772,-3.6896,-3.879,-4.0984,-4.0918,-4.3113,-4.5294,-4.5328,-4.6517,-4.762,-4.7655,-4.7689,-4.7724,-4.7724,-4.9028,-5.0304,-5.1028,-5.2442,-5.3684,-5.4408,-5.3873,-5.3667,-5.4391,-5.3839,-5.3684,0.0,-5.5167,-5.5926,-5.6736,-5.746,-5.8202,-5.8978,-5.9012,-5.9012,-5.9012,-5.9789,-6.0202,-6.0202,-6.0909,-6.0909,-6.0202,-6.0168,-5.9754,-5.9012,-5.9012,-5.9012,-5.9012,-5.9012,-5.8562,-5.785,-5.7814,-5.721,-5.6227,-5.5952,-5.4413,-5.2283,-5.2086,-5.0538,-4.8604,0.0,0.0,0.0,-1.7569,-1.7872,-1.7984,-1.7416,-1.7072,-1.7112,-1.7786,-1.8362,0.0,0.0,0.0,0.0,0.0,-2.232,-2.4138,-2.5856,-2.8827,-3.1604,-3.4044,-3.5825,-3.6992,-3.754,-3.8489,-3.9238,-3.9775,-3.9978,-4.0394,-4.0912,-4.0912,-4.0912,-4.0912,-4.0912,-4.0912,-4.0912,-4.0959,-4.0959,-4.0913,-4.0227,-4.0006,-3.9859,-3.8217,-3.6481,-3.4753,0.0,0.0,-3.0036,-2.9772,-2.9316,-2.9053,-3.0124,-3.0668,-3.1476,-3.4491,-3.6236,-3.7658,-3.9745,-4.1405,-4.2777,-4.3655,-4.5061,-4.631,-4.681,-4.7327,-4.7579,-4.7079,-4.6975,-4.682,-4.6259,-4.7827,-4.9476,-5.0252,-5.208,-5.3667,-5.4408,-5.3873,-5.3494,-5.3753,-5.3546,0.0,0.0,0.0,0.0,-5.6702,-5.7029,-5.7719,-5.8944,-5.9012,-5.9012,-5.9012,-6.0271,-6.0927,-6.0927,-6.1703,-6.1703,-6.0927,-5.9892,-5.9271,-5.9012,-5.9012,-5.9012,-5.8978,-5.8457,-5.8031,-5.7687,-5.6603,-5.5843,-5.5337,-5.4527,-5.3113,-5.1413,-5.1192,-5.0043,-4.862,0.0,0.0,0.0,0.0,0.0,0.0,0.0,0.0,0.0,0.0,0.0,0.0,0.0,0.0,0.0,0.0,0.0,-2.3357,-2.491,-2.7073,-2.9337,-3.1712,-3.3,-3.4117,-3.5215,-3.5866,-3.6727,-3.7815,-3.8023,-3.8629,-3.9687,-3.9687,-3.9825,-4.0083,-4.0083,-4.0083,-4.0066,-3.9807,-3.9687,-3.9583,-3.8321,-3.7828,-3.7663,-3.606,-3.4343,0.0,0.0,-2.8881,-2.8005,-2.7739,-2.7666,-2.7929,-2.9263,-3.0968,-3.2897,-3.5028,-3.6923,-3.8964,-4.1827,-4.3106,-4.4076,-4.5786,-4.6603,-4.7131,-4.7569,-4.7258,-4.6724,-4.6259,-4.5751,-4.5234,-4.4716,-4.6044,-4.7717,-4.9321,-5.1045,-5.2735,-5.4287,-5.3873,-5.3494,-5.377,-5.3563,-5.3511,0.0,0.0,0.0,-5.6288,-5.6874,-5.7616,-5.8564,-5.8875,-5.9012,-5.9012,-6.0237,-6.103,-6.1306,-6.2099,-6.2099,-6.1289,-6.003,-5.9288,-5.9012,-5.9012,-5.8823,-5.8527,-5.8031,-5.7467,-5.6832,-5.566,-5.4902,-5.4348,-5.3596,-5.229,-5.0882,-5.0725,-4.9805,-4.862,0.0,0.0,0.0,0.0,0.0,0.0,0.0,0.0,0.0,0.0,0.0,0.0,0.0,0.0,0.0,0.0,0.0,0.0,-2.4141,-2.5631,0.0,-2.8756,-2.96,-3.0738,-3.219,-3.2429,-3.3317,-3.4888,-3.5015,-3.5835,-3.734,-3.734,-3.7702,-3.8353,-3.8353,-3.8353,-3.8301,-3.7633,-3.734,-3.7133,-3.4941,-3.4086,-3.3904,-3.1704,0.0,0.0,0.0,-2.6568,-2.639,-2.5743,-2.663,-2.814,-2.8947,-3.2652,-3.6616,-3.6022,-3.8368,-4.1492,-4.3009,-4.3973,-4.5053,-4.7182,-4.7724,-4.7751,-4.7603,-4.6448,-4.5363,-4.519,-4.4061,-4.3051,0.0,0.0,-4.5225,-4.8137,-4.9441,-5.1114,-5.4098,-5.3908,-5.3718,0.0,0.0,0.0,0.0,0.0,0.0,-5.5615,0.0,-5.7892,-5.7961,-5.8633,-5.9012,-5.9012,-5.9789,-6.0547,-6.1289,-6.2048,-6.2048,-6.1289,-6.0513,-5.9737,-5.9012,-5.8978,-5.8527,-5.785,-5.7741,-5.6794,-5.5337,-5.5042,-5.4322,-5.3377,-5.3204,-5.2118,-5.0697,-5.0697,-4.9805,-4.862,0.0,0.0,0.0,0.0,0.0,0.0,0.0,0.0,0.0,0.0,0.0,0.0,0.0,0.0,0.0,0.0,0.0,0.0,-2.2977,0.0,0.0,0.0,-2.8264,-2.9504,-2.9934,-3.1153,-3.2308,-3.3368,-3.3449,-3.399,-3.4976,-3.4976,-3.5079,-3.5252,-3.5252,-3.5252,-3.5252,-3.5062,-3.4976,-3.4872,0.0,-3.3216,-3.3133,0.0,0.0,0.0,0.0,-2.737,-2.6426,-2.6938,0.0,0.0,0.0,-3.4418,-3.6372,-3.838,-4.037,-4.2338,-4.4337,-4.6217,-4.7665,-4.77,-4.8103,-4.8068,-4.6362,-4.5673,-4.4759,-4.2509,-4.1757,-4.0963,0.0,0.0,0.0,-4.5949,-4.881,0.0,-5.4167,-5.4339,0.0,-5.4494,0.0,-5.5115,-5.5322,-5.5874,0.0,0.0,-5.6857,-5.7564,-5.8668,-5.8909,-5.9012,-5.9012,-5.9789,-6.0547,-6.1289,-6.1496,-6.1496,-6.1289,-5.9944,-5.9202,-5.8978,-5.8369,-5.8334,-5.8597,-5.6739,-5.6057,-5.6169,-5.4675,-5.3829,-5.3377,-5.3204,-5.2118,-5.0697,-5.0697,-4.9805,-4.862,0.0,0.0,0.0,0.0,0.0,0.0,0.0,0.0,0.0,0.0,0.0,0.0,0.0,0.0,0.0,0.0,0.0,0.0,0.0,-2.3111,0.0,-2.4611,-2.5541,-2.6419,-2.7147,-2.8391,-2.9315,-2.9867,0.0,0.0,-3.161,-3.1921,-3.2265,-3.2629,-3.2957,-3.3095,-3.3078,-3.275,0.0,0.0,0.0,0.0,0.0,0.0,0.0,0.0,0.0,0.0,0.0,0.0,0.0,-3.5044,-3.6085,-3.7404,-3.8942,-4.0926,0.0,-4.4008,-4.5906,-4.7569,-4.8689,-4.8275,-4.8,-4.7251,-4.4958,-4.3923,-4.2664,-3.9963,-3.941,-3.891,-3.7288,-3.929,0.0,0.0,0.0,0.0,-5.3615,-5.4305,-5.4512,0.0,-5.5167,0.0,-5.5615,-5.634,-5.6926,0.0,-5.7288,-5.765,-5.8478,-5.8823,-5.9012,-5.9012,-5.9444,-6.0047,-6.0806,-6.1134,-6.1134,-6.0806,-5.9944,-5.934,-5.8978,-5.8156,-5.785,-5.785,0.0,-5.5328,-5.5279,-5.4114,-5.3496,-5.3233,-5.3026,-5.22,-5.1097,-5.0805,-5.0005,-4.9035,0.0,0.0,0.0,0.0,0.0,0.0,0.0,0.0,0.0,0.0,0.0,0.0,0.0,0.0,0.0,0.0,0.0,0.0,0.0,0.0,0.0,-2.3224,-2.2733,-2.3124,-2.4515,-2.5348,-2.5834,-2.5939,0.0,0.0,0.0,0.0,0.0,0.0,0.0,0.0,0.0,0.0,0.0,0.0,0.0,0.0,0.0,0.0,0.0,0.0,0.0,0.0,0.0,0.0,-3.5535,-3.744,-3.876,-4.0643,-4.2507,-4.3356,-4.4518,-4.588,-4.7414,-4.8379,-4.8896,-4.8706,-4.7603,-4.5975,-4.3586,-4.1861,-4.0101,-3.7823,-3.7271,-3.6926,-3.6025,-3.7267,-3.9687,-4.3396,0.0,-4.8924,-5.2856,-5.4046,-5.4512,-5.4512,-5.5339,-5.5891,-5.5788,-5.6581,-5.7357,-5.8012,-5.8064,-5.8064,-5.8064,-5.8668,-5.9012,-5.9012,-5.9116,-5.9495,-6.0185,-6.084,-6.084,-6.0202,-6.0082,-5.9685,-5.8978,-5.8156,-5.7392,-5.6691,0.0,0.0,-5.3903,-5.3524,-5.3261,-5.3071,-5.2803,-5.2298,-5.1621,-5.0944,-5.0266,-4.9574,0.0,0.0,0.0,0.0,0.0,0.0,0.0,0.0,0.0,0.0,-2.2492,-2.1812,0.0,0.0,0.0,0.0,0.0,0.0,0.0,0.0,0.0,0.0,-2.3011,-2.3439,-2.3781,-2.4638,-2.5107,0.0,0.0,0.0,0.0,0.0,0.0,0.0,0.0,0.0,0.0,0.0,0.0,0.0,0.0,0.0,0.0,0.0,0.0,0.0,0.0,-2.8332,-3.0369,-3.3183,-3.6936,-4.0428,-4.0654,-4.1821,-4.3373,-4.4793,-4.5761,-4.6734,-4.8206,-4.9172,-4.9493,-4.8189,-4.7251,-4.5837,-4.2871,-4.1032,0.0,0.0,-3.6008,-3.5163,-3.3749,-3.5783,-3.872,-4.1895,-4.4872,-4.8355,-5.2787,-5.4046,-5.4512,0.0,-5.6288,-5.7271,-5.665,-5.7823,0.0,0.0,0.0,0.0,-5.8823,-5.8944,-5.9012,-5.9012,-5.9651,-6.0064,-6.0202,-6.0323,-6.0323,-6.0185,-5.953,-5.915,-5.8978,-5.8156,-5.7651,-5.7247,0.0,0.0,-5.4417,-5.3695,-5.3261,-5.3071,-5.2803,-5.2298,-5.1621,-5.0944,-5.0266,-4.9574,0.0,0.0,0.0,0.0,0.0,0.0,0.0,-2.299,-2.3735,-2.4481,-2.4299,-2.3801,-2.3086,-2.235,-2.1943,0.0,0.0,0.0,0.0,0.0,0.0,0.0,0.0,-2.2918,-2.303,0.0,0.0,0.0,0.0,0.0,0.0,0.0,0.0,0.0,0.0,0.0,0.0,0.0,0.0,0.0,0.0,0.0,0.0,0.0,0.0,0.0,0.0,0.0,-3.092,-3.2403,-3.6004,-4.0049,-4.1213,-4.2348,-4.3541,-4.5053,-4.6002,-4.6941,-4.8396,-4.9407,-4.9631,-4.8096,-4.6828,-4.4975,-4.1095,0.0,0.0,0.0,-3.3404,-3.3076,-3.1955,-3.4249,0.0,-3.9784,-4.2802,-4.6406,-5.0994,-5.2615,-5.3615,-5.4408,-5.6512,-5.7616,0.0,0.0,0.0,0.0,0.0,0.0,-5.9012,-5.9012,-5.9012,-5.9012,-5.9375,-5.9582,-5.9582,-5.9582,-5.9582,-5.9582,-5.9185,-5.8944,-5.8858,-5.8137,-5.7614,-5.7264,0.0,0.0,-5.4433,-5.3596,-5.31,-5.2893,-5.2758,-5.2513,-5.2113,-5.1082,-5.0497,-5.0066,0.0,0.0,0.0,0.0,0.0,0.0,0.0,-2.3785,-2.4746,-2.5475,-2.6087,-2.6023,-2.4946,-2.3363,-2.2404,0.0,0.0,0.0,0.0,0.0,0.0,0.0,0.0,0.0,0.0,0.0,0.0,0.0,0.0,0.0,0.0,0.0,0.0,0.0,0.0,0.0,0.0,0.0,0.0,0.0,0.0,0.0,0.0,0.0,0.0,0.0,0.0,0.0,0.0,0.0,-3.4042,-3.7525,-3.9819,-4.1654,-4.3241,-4.4734,-4.5855,-4.6941,-4.8396,-4.9407,-4.9631,-4.8096,-4.6535,-4.4242,-3.9836,-3.7387,0.0,-3.1627,-3.1265,-3.1386,-3.0817,-3.2905,-3.5559,0.0,-4.0774,-4.4173,-4.9062,-5.1045,-5.2546,0.0,-5.6426,0.0,-5.6874,0.0,0.0,0.0,0.0,0.0,-5.9012,-5.9012,-5.9012,-5.9012,-5.9012,-5.8978,-5.8961,-5.8961,-5.8961,-5.8875,-5.8875,-5.8823,-5.8718,-5.819,-5.7631,-5.7055,0.0,0.0,0.0,-5.3655,-5.31,-5.2713,-5.2713,-5.2621,-5.2344,-5.1144,-5.0605,-5.0297,0.0,0.0,0.0,0.0,0.0,0.0,0.0,-2.4663,-2.627,-2.7,-2.7149,-2.7206,-2.7201,-2.528,-2.3789,0.0,0.0,0.0,0.0,0.0,0.0,0.0,0.0,0.0,0.0,0.0,0.0,0.0,0.0,0.0,0.0,0.0,0.0,0.0,0.0,0.0,0.0,0.0,0.0,0.0,0.0,0.0,0.0,0.0,0.0,0.0,0.0,0.0,0.0,0.0,0.0,-3.2817,-3.5111,-3.8738,-4.2413,-4.3966,0.0,0.0,-4.8396,-4.9407,-4.9631,-4.8096,-4.6535,-4.438,-4.0491,0.0,-3.4611,-3.2196,-3.1214,-3.0783,-3.0696,-3.2024,-3.4318,-3.7991,-3.9388,-4.2095,-4.8051,-5.0223,-5.1787,-5.3322,0.0,0.0,-5.6874,0.0,0.0,0.0,0.0,0.0,0.0,-5.9012,-5.9012,-5.9012,-5.9012,-5.8927,-5.8823,-5.8823,-5.8753,-5.8561,-5.8561,-5.8561,-5.8525,-5.8438,-5.7884,-5.692,0.0,0.0,0.0,-5.421,-5.364,-5.2713,-5.2713,-5.2344,-5.1698,-5.0974,-5.0297,-4.9666,0.0,0.0,0.0,0.0,0.0,0.0,-2.2791,-2.4017,-2.5309,-2.6485,-2.7452,-2.8077,-2.8208,-2.7091,-2.5513,-2.3534,0.0,0.0,0.0,0.0,0.0,0.0,0.0,0.0,0.0,0.0,0.0,0.0,0.0,0.0,0.0,0.0,0.0,0.0,0.0,0.0,0.0,0.0,0.0,0.0,0.0,0.0,0.0,0.0,0.0,0.0,0.0,0.0,0.0,0.0,0.0,0.0,-3.1645,-3.4283,0.0,0.0,-4.2957,-4.4872,-4.6345,-4.7655,-4.8372,-4.732,-4.5889,-4.3733,-3.9905,-3.6697,-3.3886,-3.161,-3.0524,-3.0127,-3.061,-3.1903,-3.3697,-3.6146,-3.7163,-3.9474,-4.4699,-4.6734,-4.8913,-5.2287,-5.496,0.0,0.0,0.0,0.0,0.0,0.0,0.0,0.0,-5.9012,-5.9012,-5.9012,-5.8927,-5.884,-5.8788,-5.8683,-5.8561,-5.849,-5.849,-5.8455,-5.8331,-5.8438,-5.8135,-5.748,0.0,0.0,0.0,-5.4333,-5.3565,-5.2713,-5.2713,-5.2298,-5.1621,-5.0944,-5.0266,-4.9574,0.0,0.0,0.0,0.0,0.0,-2.2061,-2.2791,-2.3719,-2.4779,-2.6036,-2.7354,-2.8315,-2.8661,-2.7915,-2.6573,-2.456,-2.3968,0.0,0.0,0.0,0.0,0.0,0.0,0.0,0.0,0.0,0.0,-2.7494,0.0,0.0,0.0,0.0,0.0,0.0,0.0,0.0,0.0,0.0,0.0,0.0,0.0,0.0,0.0,0.0,0.0,0.0,0.0,0.0,0.0,0.0,0.0,0.0,0.0,-3.0972,-3.3837,0.0,-4.0515,-4.2844,-4.4337,-4.5845,-4.6828,-4.6096,-4.4751,-4.2689,-3.91,-3.6115,-3.3457,-3.118,-3.0248,-3.0024,-3.0593,-3.1731,-3.3145,-3.4904,-3.5818,-3.7905,-4.2551,-4.4475,-4.6828,0.0,0.0,0.0,0.0,0.0,0.0,0.0,0.0,0.0,0.0,-5.8944,-5.8961,-5.9012,-5.8875,-5.8788,-5.8718,-5.8525,-5.8384,-5.8331,-5.8331,-5.826,-5.8116,-5.826,-5.8027,0.0,0.0,0.0,0.0,-5.4274,-5.3462,-5.2698,-5.2498,-5.2006,-5.1328,-5.0651,-4.9959,-4.9297,0.0,0.0,0.0,0.0,0.0,0.0,-2.2791,-2.4149,-2.5359,-2.6103,-2.6906,-2.7731,-2.8594,-2.7462,-2.664,-2.6657,-2.5337,0.0,0.0,0.0,0.0,0.0,0.0,0.0,0.0,0.0,-2.743,-2.8385,-2.911,-2.9472,0.0,0.0,0.0,0.0,0.0,0.0,0.0,0.0,0.0,0.0,0.0,0.0,0.0,0.0,0.0,0.0,0.0,0.0,0.0,0.0,0.0,0.0,0.0,-2.9472,-3.1473,-3.5232,-3.8508,-4.1257,-4.2792,-4.4302,-4.5242,-4.4518,-4.3172,-4.124,-3.8203,-3.5752,-3.3457,-3.118,-3.0679,-3.0679,-3.0714,-3.13,-3.2559,-3.4818,-3.5818,-3.7905,-4.2551,-4.4475,0.0,0.0,0.0,0.0,0.0,0.0,0.0,0.0,0.0,0.0,0.0,0.0,-5.8875,-5.9012,-5.8875,-5.8701,-5.8525,-5.8295,-5.8116,-5.7935,-5.7935,-5.7935,-5.7881,-5.7935,0.0,0.0,0.0,0.0,0.0,-5.3976,-5.3462,-5.2652,-5.1975,-5.1298,-5.062,-4.9943,-4.9235,-4.862,0.0,0.0,0.0,0.0,0.0,0.0,0.0,-2.2526,-2.3106,-2.3851,-2.5146,-2.6334,-2.7105,-2.733,-2.7434,-2.7452,-2.6099,0.0,0.0,0.0,0.0,0.0,0.0,0.0,0.0,0.0,-2.8527,-2.9833,-3.0678,-3.1076,-3.1076,-3.0834,0.0,0.0,0.0,0.0,0.0,0.0,0.0,0.0,0.0,0.0,0.0,0.0,0.0,0.0,0.0,0.0,0.0,0.0,0.0,0.0,0.0,0.0,0.0,-3.1162,-3.4542,-3.7974,-3.9031,-4.0371,-4.1336,-4.0578,-4.0049,-3.9008,-3.6512,-3.4993,-3.3613,-3.1817,-3.0987,-3.0744,-3.1351,-3.1572,-3.2601,-3.547,-3.6146,-3.7715,-4.1809,0.0,0.0,0.0,0.0,0.0,0.0,0.0,0.0,0.0,0.0,0.0,0.0,0.0,-5.8666,-5.8875,-5.8561,-5.8367,-5.8295,-5.8116,-5.7954,-5.7881,-5.7881,-5.7881,-5.7881,-5.7881,0.0,0.0,0.0,0.0,0.0,-5.3976,-5.3239,-5.2006,-5.179,-5.1005,-4.9974,-4.9758,-4.9235,-4.862,0.0,0.0,0.0,0.0,0.0,0.0,0.0,-2.1812,-2.2061,-2.2838,-2.4128,-2.538,-2.642,-2.7028,-2.7503,-2.7773,-2.6725,0.0,0.0,0.0,0.0,0.0,0.0,0.0,0.0,-2.8254,-2.9454,-3.0986,-3.1816,-3.2214,-3.2214,-3.1921,-3.0644,-2.8558,0.0,0.0,0.0,0.0,0.0,0.0,0.0,0.0,0.0,0.0,0.0,0.0,0.0,0.0,0.0,0.0,0.0,0.0,0.0,0.0,0.0,0.0,-3.13,-3.4093,-3.5787,-3.7284,-3.8301,-3.7836,-3.7508,-3.6853,-3.5163,-3.418,-3.3283,-3.1985,-3.133,-3.1121,-3.1603,-3.1671,-3.2481,-3.4998,-3.5901,-3.7503,0.0,0.0,0.0,0.0,0.0,0.0,0.0,0.0,0.0,0.0,0.0,0.0,0.0,0.0,-5.7601,-5.7757,-5.8041,-5.8188,-5.8188,-5.7991,-5.7881,-5.7881,-5.7881,-5.7881,-5.7881,0.0,0.0,0.0,0.0,0.0,0.0,-5.2894,-5.2175,-5.1298,-5.1036,-5.0436,-4.9651,-4.9374,-4.9004,-4.862,0.0,0.0,0.0,0.0,0.0,0.0,0.0,-2.1812,-2.2059,-2.2816,-2.3741,-2.4842,-2.6286,-2.6607,-2.6979,-2.7655,0.0,0.0,0.0,0.0,0.0,0.0,0.0,0.0,-2.8066,-2.8956,-3.0212,-3.1869,-3.2628,-3.3007,-3.3059,-3.2352,-3.1576,-3.0696,-2.923,0.0,0.0,0.0,0.0,0.0,0.0,0.0,0.0,0.0,0.0,0.0,0.0,0.0,0.0,0.0,0.0,0.0,0.0,0.0,0.0,0.0,0.0,0.0,0.0,-3.4766,-3.5887,-3.5835,-3.5335,-3.47,-3.3941,-3.3266,0.0,-3.1703,-3.1656,-3.1742,-3.1673,-3.1752,-3.2399,-3.402,-3.5545,0.0,0.0,-4.3675,0.0,0.0,0.0,0.0,0.0,0.0,0.0,0.0,0.0,0.0,0.0,0.0,0.0,-5.5961,-5.7304,-5.8035,-5.8035,-5.7855,-5.7729,-5.7729,-5.7729,-5.7729,-5.7712,0.0,0.0,0.0,0.0,0.0,0.0,-5.1053,-5.0667,-5.0559,-4.9928,-4.9651,-4.9528,-4.885,-4.862,-4.862,0.0,0.0,0.0,0.0,0.0,0.0,0.0,0.0,0.0,0.0,-2.3406,-2.4472,-2.4872,-2.5982,-2.6759,0.0,0.0,0.0,0.0,0.0,0.0,0.0,0.0,0.0,-2.8066,-2.8991,-3.0523,-3.2645,-3.3421,-3.4111,-3.4663,-3.4473,-3.3369,-3.1489,-3.0558,-2.9506,0.0,0.0,0.0,0.0,0.0,0.0,0.0,0.0,0.0,0.0,0.0,-2.7437,0.0,0.0,0.0,0.0,0.0,0.0,0.0,0.0,-2.8075,-2.8816,-2.9541,0.0,-3.1869,-3.1248,-3.1438,-3.1541,0.0,-3.1261,-3.1687,-3.093,-3.111,-3.1769,-3.2949,-3.2707,-3.3594,-3.749,0.0,0.0,0.0,0.0,0.0,0.0,0.0,0.0,0.0,0.0,0.0,0.0,0.0,0.0,0.0,0.0,0.0,-5.5786,-5.6125,-5.6295,-5.6295,-5.6224,-5.6224,-5.6224,-5.6224,-5.6224,-5.6224,0.0,0.0,0.0,0.0,0.0,0.0,-5.1053,-5.0389,-4.9912,-4.9743,-4.9358,-4.885,-4.8681,-4.862,-4.862,0.0,0.0,0.0,0.0,0.0,0.0,0.0,0.0,0.0,0.0,0.0,0.0,0.0,0.0,0.0,0.0,0.0,0.0,0.0,0.0,0.0,0.0,0.0,-2.7828,-2.863,-2.9506,-3.1262,-3.3955,-3.4387,-3.4973,-3.5697,-3.5697,-3.449,-3.2231,-3.0782,-2.9506,0.0,0.0,0.0,0.0,0.0,0.0,0.0,0.0,0.0,0.0,-2.7299,-2.7299,0.0,-2.8075,-2.8351,-2.8385,0.0,0.0,0.0,0.0,-2.7575,-2.7902,-2.7902,-2.9765,-3.1593,-3.1179,-3.1368,-3.1538,-3.1107,-3.0777,-3.0514,-3.0391,-3.0643,-3.1319,-3.2777,-3.3036,-3.4201,0.0,-3.8867,0.0,0.0,0.0,0.0,0.0,0.0,0.0,0.0,0.0,0.0,0.0,0.0,0.0,0.0,0.0,0.0,0.0,-5.4702,-5.504,-5.5681,-5.5681,-5.5681,-5.5681,-5.5681,-5.5681,-5.5664,0.0,0.0,0.0,0.0,0.0,-5.0925,-5.0091,-4.9528,-4.9189,-4.9189,-4.8958,-4.862,-4.862,-4.862,-4.862,0.0,0.0,0.0,0.0,0.0,0.0,0.0,0.0,0.0,0.0,0.0,0.0,0.0,0.0,0.0,0.0,0.0,0.0,0.0,0.0,0.0,0.0,0.0,-2.8458,-2.9451,-3.0173,-3.1999,-3.5025,-3.5249,-3.5749,-3.649,-3.6594,-3.5249,-3.2645,-3.0713,-2.9368,0.0,0.0,0.0,0.0,0.0,0.0,0.0,0.0,0.0,0.0,0.0,0.0,0.0,-2.8747,-2.8903,-2.8644,-2.9041,0.0,0.0,0.0,0.0,0.0,-2.7697,-3.035,-3.29,-3.2314,-3.2481,-3.2698,-3.2458,-3.1045,-2.9926,-3.043,-3.0706,-3.1285,-3.2723,-3.3641,0.0,0.0,0.0,0.0,0.0,0.0,0.0,0.0,0.0,0.0,0.0,0.0,0.0,0.0,0.0,0.0,0.0,0.0,0.0,0.0,-5.3501,-5.411,-5.5361,-5.5378,-5.5378,-5.5378,-5.5378,-5.5378,-5.5326,-5.4021,0.0,0.0,0.0,0.0,-4.9829,-4.8975,-4.862,-4.862,-4.862,-4.862,-4.862,-4.862,-4.862,-4.862,0.0,0.0,0.0,0.0,0.0,0.0,0.0,0.0,0.0,0.0,0.0,0.0,0.0,0.0,0.0,0.0,0.0,0.0,0.0,0.0,0.0,-2.6859,-2.7657,-2.8749,-3.0203,-3.052,-3.1852,-3.4268,-3.5508,-3.6525,-3.734,-3.7939,-3.599,-3.1955,-3.1593,-3.0662,-2.9386,0.0,0.0,0.0,0.0,0.0,0.0,0.0,0.0,0.0,0.0,0.0,0.0,-2.7558,-2.8385,-2.9127,-2.7989,0.0,0.0,0.0,0.0,0.0,-2.9523,-3.1838,-3.2973,-2.9746,-3.0787,-3.2283,-3.0987,-3.1338,-3.1958,-3.204,-3.2523,-3.3584,-3.5712,-3.6226,-3.7452,0.0,0.0,0.0,0.0,0.0,0.0,0.0,0.0,0.0,0.0,0.0,0.0,0.0,0.0,0.0,0.0,0.0,0.0,0.0,0.0,-5.3619,-5.3839,-5.3839,-5.3839,-5.3839,-5.3839,-5.3839,-5.3839,-5.3568,-5.3105,0.0,0.0,0.0,-4.9829,-4.8975,-4.862,-4.862,-4.862,-4.862,-4.862,-4.862,-4.862,-4.862,0.0,0.0,0.0,0.0,0.0,0.0,0.0,0.0,0.0,0.0,0.0,0.0,0.0,0.0,0.0,0.0,0.0,0.0,0.0,0.0,0.0,-2.7368,-2.8271,-2.928,-3.0412,-3.1757,-3.3776,-3.6525,-3.7594,-3.8543,-3.9307,-3.7581,-3.5197,-3.2369,-3.1558,-3.08,-3.0162,-3.0524,0.0,0.0,0.0,0.0,0.0,0.0,0.0,0.0,0.0,0.0,0.0,0.0,-2.8318,-2.8715,-2.806,0.0,0.0,0.0,0.0,0.0,-2.839,-3.0546,-3.2076,-3.0317,-3.2463,-3.4793,-3.4095,-3.3417,-3.3062,-3.3452,-3.3766,-3.4573,0.0,0.0,-3.9326,-4.347,0.0,0.0,0.0,0.0,0.0,0.0,0.0,0.0,0.0,0.0,0.0,0.0,0.0,0.0,0.0,0.0,0.0,0.0,0.0,-5.3501,-5.3501,-5.3501,-5.3501,-5.3501,-5.3501,-5.3501,-5.3501,-5.3058,-5.2642,0.0,0.0,-5.0881,-5.0461,-4.963,-4.9284,-4.9244,-4.8769,-4.862,-4.862,-4.862,-4.862,-4.862,0.0,0.0,0.0,0.0,0.0,0.0,0.0,0.0,0.0,0.0,0.0,0.0,0.0,0.0,0.0,0.0,0.0,0.0,0.0,0.0,-2.7046,-2.7808,-2.8747,-2.9811,-3.0963,-3.2924,-3.5287,-3.806,-3.9163,-4.0008,-4.0549,-3.7439,-3.4887,-3.2852,-3.1714,-3.1007,-3.0696,-3.0869,-3.1282,0.0,0.0,0.0,0.0,0.0,0.0,0.0,0.0,0.0,0.0,0.0,0.0,0.0,0.0,0.0,0.0,-2.731,-2.7039,-2.7127,-2.7672,-2.9533,-3.1426,-3.1933,-3.4262,-3.6559,-3.7103,-3.5638,-3.4506,-3.5588,-3.5808,-3.6163,0.0,-3.9056,0.0,-4.5348,0.0,0.0,0.0,0.0,0.0,0.0,0.0,0.0,0.0,0.0,0.0,0.0,0.0,0.0,0.0,0.0,0.0,0.0,0.0,0.0,-5.3501,-5.3501,-5.3501,-5.3501,-5.3501,-5.3501,-5.3467,-5.2868,-5.2501,-5.2272,-5.1643,-5.1257,-5.1032,-5.0245,-4.9908,-4.9789,-4.8934,-4.862,-4.862,-4.862,-4.862,-4.862,0.0,0.0,0.0,0.0,0.0,0.0,0.0,0.0,0.0,0.0,0.0,0.0,0.0,0.0,0.0,0.0,0.0,0.0,0.0,0.0,-2.708,-2.7947,-2.8713,-3.0164,-3.2393,-3.3513,-3.4869,-3.6473,-3.8646,-3.9715,-3.9767,-3.8784,-3.6387,-3.2904,-3.28,-3.1972,-3.0748,-3.142,-3.1748,-3.1662,0.0,0.0,0.0,0.0,0.0,0.0,0.0,0.0,0.0,0.0,0.0,0.0,0.0,0.0,-2.7964,-2.7229,-2.6991,-2.7435,-2.9428,-3.0613,-3.178,-3.3787,-3.4477,-3.5238,-3.7347,-3.7185,-3.7168,-3.9251,-3.969,-3.9724,0.0,-4.2236,0.0,0.0,0.0,0.0,0.0,0.0,0.0,0.0,0.0,0.0,0.0,0.0,0.0,0.0,0.0,0.0,0.0,0.0,0.0,0.0,0.0,0.0,-5.3501,-5.3501,-5.3501,-5.3501,-5.3501,-5.3501,-5.3501,-5.3433,-5.3024,-5.2307,-5.2236,-5.1806,-5.1032,-5.0245,-4.9908,-4.9789,-4.8934,-4.862,-4.862,-4.862,-4.862,-4.862,0.0,0.0,0.0,0.0,0.0,0.0,0.0,0.0,0.0,0.0,0.0,0.0,0.0,0.0,0.0,0.0,0.0,0.0,0.0,-2.6437,-2.7046,-2.7843,-2.873,-2.9842,-3.1194,-3.3505,-3.5704,-3.7732,-3.9043,-3.9698,-3.9646,-3.7491,-3.5456,-3.3593,-3.2645,-3.1866,-3.1294,-3.157,-3.1653,-3.1493,-2.9915,0.0,0.0,0.0,0.0,0.0,0.0,0.0,0.0,0.0,-2.6239,-2.6653,-2.6906,-2.7146,-2.73,-2.7027,-2.6553,-2.6418,-2.7794,-2.9337,-3.1094,-3.3271,-3.4506,-3.5791,-3.8058,-3.9428,-4.0578,-4.1871,-4.2557,-4.2895,-4.2895,0.0,0.0,0.0,0.0,0.0,0.0,0.0,0.0,0.0,0.0,0.0,0.0,0.0,0.0,0.0,0.0,0.0,0.0,0.0,0.0,0.0,0.0,0.0,0.0,-5.3501,-5.3501,-5.3501,-5.3501,-5.3501,-5.3501,-5.3501,-5.3314,-5.3058,-5.3058,-5.2868,-5.252,-5.1733,-5.1385,-5.1311,-5.0461,-4.9852,-4.9405,-4.9405,-4.9056,-4.862,0.0,0.0,0.0,0.0,0.0,0.0,0.0,0.0,0.0,0.0,0.0,0.0,0.0,0.0,0.0,0.0,0.0,0.0,-2.527,-2.5947,-2.6691,-2.7418,-2.8337,-2.9311,-3.0374,-3.2721,-3.5122,-3.7525,-3.8508,-3.875,-3.8205,-3.5921,-3.4596,-3.4044,-3.2435,-3.1828,-3.1941,-3.1442,-3.118,-3.1022,-2.9448,-2.8817,0.0,0.0,0.0,0.0,0.0,0.0,0.0,0.0,-2.5224,-2.5451,-2.6264,-2.6519,-2.6537,-2.6774,-2.6758,-2.6809,-2.7403,-2.8978,-3.092,-3.2916,-3.4709,-3.6569,-3.8819,-4.0696,-4.2371,-4.3842,-4.4181,-4.4434,-4.5173,0.0,0.0,0.0,0.0,0.0,0.0,0.0,0.0,0.0,0.0,0.0,0.0,0.0,0.0,0.0,0.0,0.0,0.0,0.0,0.0,0.0,0.0,0.0,0.0,-5.2773,-5.2892,-5.3129,-5.2892,-5.3044,-5.3501,-5.3501,-5.3365,-5.3129,-5.3129,-5.2993,-5.2707,-5.163,-5.0936,-5.0443,-4.9903,-4.9344,-4.8867,-4.8867,-4.8484,-4.7973,0.0,0.0,0.0,0.0,0.0,0.0,0.0,0.0,0.0,0.0,0.0,0.0,0.0,0.0,0.0,0.0,0.0,0.0,-2.4541,-2.5186,-2.593,-2.6657,-2.7401,-2.8607,-3.034,-3.1031,-3.265,-3.5197,-3.6715,-3.6638,-3.5088,-3.4398,-3.4096,-3.399,-3.2342,-3.2027,-3.2664,-3.1061,-3.0391,-3.0254,-2.8628,-2.7998,0.0,0.0,0.0,0.0,0.0,0.0,0.0,0.0,-2.3941,-2.4625,-2.5434,-2.5657,-2.5761,-2.6488,-2.7791,-2.8976,-2.8993,-3.0076,-3.1562,-3.3051,-3.5131,-3.7405,-3.9639,-4.0696,-4.21,-4.5111,-4.4519,-4.4147,-4.638,-4.563,0.0,0.0,0.0,0.0,0.0,0.0,0.0,0.0,0.0,0.0,0.0,0.0,0.0,0.0,0.0,0.0,0.0,0.0,0.0,0.0,0.0,0.0,0.0,-5.1185,-5.1589,-5.2283,-5.1555,-5.2012,-5.3501,-5.3484,-5.3044,-5.2283,-5.2283,-5.1894,-5.1071,-4.9555,-4.7998,-4.6628,-4.6628,-4.6628,-4.6588,-4.6588,-4.6603,-4.6603,0.0,0.0,0.0,0.0,0.0,0.0,0.0,0.0,0.0,0.0,0.0,0.0,0.0,0.0,0.0,0.0,0.0,0.0,-2.4508,-2.5186,-2.571,-2.593,-2.7216,-2.8185,-2.8714,-3.0066,-3.2196,-3.5129,-3.5026,-3.5005,-3.507,-3.4318,-3.3353,-3.2265,-3.2293,-3.1517,-3.0199,-3.0229,-2.9937,-2.9321,-2.8284,-2.7859,0.0,0.0,0.0,0.0,0.0,0.0,0.0,0.0,0.0,0.0,-2.5218,-2.5963,-2.642,-2.664,-2.7029,-2.7486,-2.8027,-2.9651,-3.1681,-3.3677,-3.6671,-3.9715,-4.1931,-4.3436,-4.506,-4.753,-4.7229,-4.6756,-4.7462,0.0,0.0,0.0,0.0,0.0,0.0,0.0,0.0,0.0,0.0,0.0,0.0,0.0,0.0,0.0,0.0,0.0,0.0,0.0,0.0,0.0,0.0,0.0,0.0,0.0,-5.1319,-5.1539,-5.1286,-5.1725,-5.2638,-5.2131,-5.1758,-5.1539,-5.1539,-5.142,-5.1103,-5.0157,-4.9468,-4.9008,-4.848,-4.7939,-4.7446,-4.7446,-4.7107,-4.6603,0.0,0.0,0.0,0.0,0.0,0.0,0.0,0.0,0.0,0.0,0.0,0.0,0.0,0.0,0.0,0.0,0.0,0.0,0.0,-2.4746,-2.5152,-2.5152,-2.6656,-2.7657,-2.7998,-2.9278,-3.0872,-3.2762,-3.2629,-3.2764,-3.3148,-3.3014,-3.2584,-3.1963,-3.2363,-3.1609,-2.9988,-2.9815,-2.9249,-2.845,-2.7689,-2.735,-2.7232,0.0,0.0,0.0,0.0,0.0,0.0,0.0,0.0,0.0,-2.4357,-2.5033,-2.5558,-2.6437,-2.7334,-2.8349,-2.9666,-3.1461,-3.3558,-3.6101,-3.843,-4.0849,-4.3673,-4.55,0.0,0.0,-4.8189,-4.7648,-4.824,0.0,0.0,0.0,0.0,0.0,0.0,0.0,0.0,0.0,0.0,0.0,0.0,0.0,0.0,0.0,0.0,0.0,0.0,0.0,0.0,0.0,0.0,0.0,0.0,0.0,0.0,-5.076,-5.0473,-5.071,-5.142,-5.1285,-5.1048,-5.076,-5.0456,-5.0161,-4.9838,-4.941,-4.9059,-4.8736,-4.8302,-4.7825,-4.7356,-4.7078,-4.6646,-4.6221,0.0,0.0,0.0,0.0,0.0,0.0,0.0,0.0,0.0,0.0,-2.4457,0.0,0.0,0.0,0.0,0.0,0.0,0.0,0.0,0.0,-2.4491,-2.4491,-2.6048,-2.7284,-2.8066,-2.8745,-2.9086,-2.9073,-2.995,-3.0272,-3.0122,-3.1049,-3.1752,-3.2281,-3.2352,-3.1873,-3.087,-2.9402,-2.8281,-2.7435,-2.6776,-2.6505,-2.6437,-2.5761,0.0,0.0,0.0,0.0,0.0,0.0,0.0,0.0,-2.3274,-2.3509,-2.39,-2.5981,-2.8163,-3.0359,-3.2611,-3.4264,-3.6146,-3.9249,-4.0265,-4.1433,-4.4908,-4.6802,-4.802,-4.8748,0.0,-4.7411,-4.8748,0.0,0.0,0.0,0.0,0.0,0.0,0.0,0.0,0.0,0.0,0.0,0.0,0.0,0.0,0.0,0.0,0.0,0.0,0.0,0.0,0.0,0.0,0.0,0.0,0.0,0.0,0.0,-4.9323,-4.9357,-5.0016,-5.0693,-5.0642,-4.9949,-4.9289,-4.8625,-4.7982,-4.7917,-4.7522,-4.688,-4.6811,-4.6811,-4.6708,-4.604,-4.5805,-4.5805,0.0,0.0,0.0,0.0,0.0,0.0,0.0,0.0,0.0,0.0,0.0,0.0,0.0,0.0,0.0,0.0,0.0,0.0,0.0,0.0,-2.4491,-2.4491,-2.7063,-2.8587,-2.8792,-2.8999,-2.8778,-2.8114,-2.8968,-2.9379,-2.9376,-3.0702,-3.0785,-2.981,-3.0978,-3.0078,-2.769,-2.7334,-2.6437,-2.5202,-2.5032,-2.4965,-2.4965,-2.4795,-2.4288,0.0,0.0,0.0,0.0,0.0,0.0,0.0,-2.4034,-2.4254,-2.4474,-2.5524,-2.6995,-2.8787,-3.1055,-3.2763,0.0,-3.8328,-4.1467,-4.4005,-4.5382,-4.6397,-4.7242,-4.7973,-4.8342,-4.8629,0.0,0.0,0.0,0.0,0.0,0.0,0.0,0.0,0.0,0.0,0.0,0.0,0.0,0.0,0.0,0.0,0.0,0.0,0.0,0.0,0.0,0.0,0.0,0.0,-4.9001,-4.9001,-4.9086,0.0,-4.9086,-4.9086,-4.9238,-4.9407,-4.939,-4.9221,-4.9069,-4.8909,-4.8719,-4.8129,-4.7819,-4.7622,-4.7017,-4.6811,-4.6777,-4.6604,-4.6569,-4.6464,0.0,0.0,0.0,0.0,0.0,0.0,0.0,0.0,0.0,0.0,0.0,0.0,0.0,0.0,0.0,0.0,0.0,0.0,0.0,0.0,-2.4812,-2.5523,-2.7402,-2.8282,-2.7996,-2.8318,-2.8114,-2.7368,-2.7759,-2.8336,-2.9082,-3.0915,-3.1353,-3.0618,-3.1379,-3.0262,-2.7757,-2.6996,-2.5862,-2.4491,-2.4491,-2.4491,-2.4457,-2.4118,-2.3729,-2.3342,-2.3004,0.0,0.0,0.0,0.0,0.0,0.0,0.0,-2.3663,-2.4746,-2.6116,-2.7926,-3.0903,-3.3068,0.0,-3.9546,0.0,-4.4231,-4.4993,-4.5737,-4.638,-4.6786,0.0,0.0,0.0,0.0,0.0,0.0,0.0,0.0,0.0,0.0,0.0,0.0,0.0,0.0,0.0,0.0,0.0,0.0,0.0,0.0,0.0,0.0,0.0,0.0,0.0,0.0,-4.9001,-4.9001,-4.9001,-4.9001,-4.9001,-4.9001,-4.9001,-4.9001,-4.9001,-4.9001,-4.9001,-4.9001,-4.897,-4.8593,-4.845,-4.837,-4.7999,-4.7836,-4.7803,-4.7456,-4.7322,-4.7204,0.0,0.0,0.0,0.0,0.0,0.0,0.0,0.0,0.0,0.0,0.0,0.0,0.0,0.0,0.0,0.0,0.0,0.0,0.0,-2.4017,-2.5168,-2.664,-2.7401,-2.7571,-2.708,-2.7436,-2.7368,-2.6859,-2.6623,-2.7503,-2.9416,-3.1125,-3.1989,-3.2107,-3.1989,-3.0685,-2.8502,-2.6979,-2.5472,-2.4118,-2.4118,-2.4118,-2.4051,-2.3427,-2.3207,-2.3122,-2.2516,-2.2381,-2.2496,-2.2496,0.0,0.0,0.0,0.0,-2.2564,-2.3915,-2.5269,-2.708,-3.0584,-3.3626,-3.6783,-4.0899,-4.2675,0.0,-4.4231,-4.4959,-4.5551,-4.5669,0.0,0.0,0.0,0.0,0.0,0.0,0.0,0.0,0.0,0.0,0.0,0.0,0.0,0.0,0.0,0.0,0.0,0.0,0.0,0.0,0.0,0.0,0.0,0.0,0.0,-4.9001,-4.9001,-4.9001,-4.9001,-4.9001,-4.9001,-4.9001,-4.9001,-4.9001,-4.9001,-4.9001,-4.9001,-4.9001,-4.9001,-4.9001,-4.9001,-4.9001,-4.9001,-4.9001,-4.894,-4.8306,-4.8096,-4.7999,0.0,0.0,0.0,0.0,0.0,0.0,0.0,0.0,0.0,0.0,-2.4491,-2.4541,-2.4643,-2.3325,0.0,0.0,0.0,0.0,-2.2448,0.0,0.0,-2.664,-2.7401,-2.7756,-2.7672,-2.7131,-2.6809,-2.6742,-2.6065,-2.752,-3.0886,-3.0548,-3.0734,-3.1309,-3.0683,-2.9127,-2.6911,-2.5422,-2.3949,-2.2584,-2.2584,-2.2584,-2.2581,-2.2482,-2.2448,-2.2431,-2.233,-2.2716,-2.3241,-2.3241,-2.3241,0.0,0.0,0.0,0.0,-2.3291,-2.4135,-2.532,-2.7739,0.0,-3.7229,0.0,-4.1905,-4.3426,0.0,0.0,-4.4925,0.0,0.0,0.0,0.0,0.0,0.0,0.0,0.0,0.0,0.0,0.0,0.0,0.0,0.0,0.0,0.0,0.0,0.0,0.0,0.0,0.0,0.0,0.0,-4.9001,-4.9001,-4.9001,0.0,-4.9001,-4.9001,-4.9001,-4.9001,-4.9001,-4.9001,-4.9001,-4.9001,-4.9001,-4.9001,-4.9001,-4.9001,-4.9001,-4.9001,-4.9001,-4.9001,-4.9001,-4.9001,-4.9001,-4.8892,-4.8861,-4.8767,0.0,0.0,0.0,0.0,0.0,0.0,0.0,0.0,0.0,0.0,0.0,-2.4051,-2.4457,-2.3173,0.0,0.0,0.0,0.0,-2.2885,-2.3511,0.0,0.0,-2.5778,-2.5947,-2.5947,-2.5625,-2.5472,-2.5472,-2.5151,-2.7114,-3.119,-3.0869,-3.2002,-3.4257,-3.2222,-3.0548,-2.9008,-2.5845,-2.3898,-2.2885,-2.2465,-2.304,-2.4003,-2.2769,-2.3057,-2.3987,-2.2736,-2.2513,-2.2784,-2.2784,-2.2784,-2.2784,-2.2784,0.0,0.0,0.0,-2.3308,-2.4745,-2.8653,-3.2256,-3.5723,0.0,-4.0832,-4.1762,-4.2608,0.0,0.0,0.0,0.0,0.0,0.0,0.0,0.0,0.0,0.0,0.0,0.0,0.0,0.0,0.0,0.0,0.0,0.0,0.0,0.0,0.0,0.0,0.0,0.0,-4.9001,-4.9001,-4.9001,-4.9001,0.0,-4.9001,-4.8925,-4.8894,-4.8894,-4.897,-4.9001,-4.9001,-4.9001,-4.9001,-4.9001,-4.9001,-4.9001,-4.9001,-4.9001,-4.9001,-4.9001,-4.9001,-4.9001,-4.9001,-4.9001,-4.9001,-4.8892,0.0,0.0,0.0,0.0,0.0,0.0,0.0,0.0,0.0,0.0,0.0,0.0,-2.4152,0.0,0.0,0.0,0.0,0.0,-2.3088,0.0,0.0,0.0,0.0,-2.4406,-2.422,-2.422,-2.422,-2.422,-2.422,-2.6623,-3.119,-3.119,-3.3389,-3.7235,-3.4206,-3.2039,-3.0395,-2.6657,-2.4643,-2.39,-2.3359,-2.4122,-2.5507,-2.4612,-2.5203,-2.6201,-2.4154,-2.3294,-2.304,-2.2482,-2.2296,-2.2296,0.0,0.0,0.0,0.0,0.0,-2.4086,0.0,0.0,-3.3017,-3.7313,-3.8979,-3.9943,0.0,0.0,0.0,0.0,0.0,0.0,0.0,0.0,0.0,0.0,0.0,0.0,0.0,0.0,0.0,0.0,0.0,0.0,0.0,0.0,0.0,0.0,0.0,0.0,-4.8443,-4.8443,-4.8443,-4.8443,-4.8396,-4.845,-4.8652,-4.8748,-4.8818,-4.8832,-4.8956,-4.9001,-4.9001,-4.9001,-4.9001,-4.9001,-4.9001,-4.9001,-4.9001,-4.9001,-4.9001,-4.9001,-4.9001,-4.9001,-4.9001,-4.9001,-4.9001,-4.8923,0.0,0.0,0.0,0.0,0.0,0.0,0.0,0.0,0.0,0.0,0.0,0.0,-2.3444,-2.2767,-2.2296,-2.2296,0.0,0.0,0.0,0.0,0.0,0.0,0.0,0.0,-2.346,-2.346,-2.346,-2.346,-2.346,-2.6099,-3.119,-3.119,-3.3947,-3.8751,-3.5723,-3.2429,-2.8993,-2.7317,-2.6167,-2.5474,-2.544,-2.5507,-2.5913,-2.8653,-2.933,-2.862,-2.7046,-2.6015,-2.5102,-2.3006,-2.2296,-2.2296,-2.2296,-2.2296,-2.2296,0.0,0.0,0.0,0.0,-2.6962,0.0,-3.2814,-3.591,0.0,0.0,0.0,0.0,0.0,0.0,0.0,0.0,0.0,0.0,0.0,0.0,0.0,0.0,0.0,0.0,0.0,0.0,0.0,0.0,0.0,0.0,0.0,0.0,0.0,-4.6904,-4.6904,-4.6904,-4.6904,-4.6722,-4.6969,-4.7676,-4.8416,-4.8863,-4.9001,-4.9001,-4.9001,-4.9001,-4.9001,-4.9001,-4.9001,-4.9001,-4.9001,-4.9001,-4.9001,-4.9001,-4.9001,-4.9001,-4.9001,-4.9001,-4.9001,-4.9001,-4.9001,0.0,0.0,0.0,0.0,0.0,0.0,0.0,0.0,0.0,0.0,0.0,0.0,0.0,-2.275,-2.2296,-2.2296,-2.2296,0.0,0.0,0.0,0.0,0.0,0.0,0.0,0.0,-2.2699,-2.2699,-2.2699,-2.2699,-2.4864,-2.9007,-2.9007,-3.0801,-3.3964,-3.3359,-3.2886,-3.2242,-2.7858,-2.6116,-2.6302,-2.6302,-2.7469,-2.9211,-2.933,-3.0702,-3.2226,-2.9753,-2.8095,-2.6894,-2.61,-2.4561,-2.3004,-2.3004,-2.2682,-2.2296,-2.2296,-2.2296,-2.2769,-2.5,0.0,0.0,-3.1055,-3.3508,-3.5402,0.0,0.0,0.0,0.0,0.0,0.0,0.0,0.0,0.0,0.0,0.0,0.0,0.0,0.0,0.0,0.0,0.0,0.0,0.0,0.0,0.0,0.0,0.0,0.0,-4.6786,-4.6786,-4.6786,-4.6786,-4.6604,-4.6589,-4.6767,-4.7265,-4.749,-4.7396,-4.801,-4.8308,-4.8325,-4.8781,-4.9001,-4.9001,-4.9001,-4.9001,-4.9001,-4.9001,-4.9001,-4.9001,-4.9001,-4.9001,-4.9001,-4.9001,-4.9001,-4.9001,0.0,0.0,0.0,0.0,0.0,0.0,0.0,0.0,0.0,-2.297,0.0,0.0,0.0,0.0,-2.2296,-2.2296,-2.2296,-2.2296,-2.2296,-2.2296,0.0,0.0,0.0,0.0,0.0,-2.2296,-2.2296,-2.2296,-2.255,-2.4173,-2.7063,-2.73,-2.8653,-3.0818,-3.055,-3.1532,-3.3119,-2.8907,-2.7402,-2.7858,-2.8112,-2.9397,-3.1258,-3.1802,-3.3186,-3.4607,-3.2662,0.0,0.0,0.0,0.0,-2.4797,-2.4289,-2.3291,-2.2296,-2.2296,-2.2296,-2.2617,-2.4088,-2.4678,0.0,0.0,0.0,-3.2303,0.0,0.0,0.0,0.0,0.0,0.0,0.0,0.0,0.0,0.0,0.0,0.0,0.0,0.0,0.0,0.0,0.0,0.0,0.0,0.0,0.0,0.0,0.0,0.0,-4.6041,-4.6041,-4.6012,-4.5896,-4.5997,-4.6025,-4.5935,-4.6443,-4.668,-4.6621,-4.7233,-4.7547,-4.7564,-4.8291,-4.8646,-4.8646,-4.89,-4.9001,-4.9001,-4.9001,-4.9001,-4.9001,-4.9001,-4.9001,-4.9001,-4.9001,-4.9001,-4.9001,0.0,0.0,0.0,0.0,0.0,0.0,0.0,0.0,-2.233,-2.233,0.0,0.0,0.0,0.0,0.0,-2.233,-2.233,-2.2313,-2.2296,-2.2296,0.0,0.0,0.0,0.0,-2.2296,-2.2296,-2.2296,-2.2296,-2.3021,-2.4103,-2.5542,-2.6268,-2.7807,-2.9869,-2.7655,-2.8298,-3.1021,-3.026,-3.0006,-3.0176,-3.0835,-3.119,-3.1799,-3.6146,-3.6935,-3.5718,-3.5701,-3.4737,0.0,-3.1021,0.0,-2.7604,-2.6049,-2.4086,-2.233,-2.2296,-2.2313,-2.233,0.0,0.0,0.0,0.0,0.0,0.0,0.0,0.0,0.0,0.0,0.0,0.0,0.0,0.0,0.0,0.0,0.0,0.0,0.0,0.0,0.0,0.0,0.0,0.0,0.0,0.0,0.0,0.0,0.0,-4.453,-4.453,-4.4564,-4.4423,-4.4126,-4.48,-4.5169,-4.5165,-4.6034,-4.6536,-4.6735,-4.6752,-4.6752,-4.6786,-4.7547,-4.7855,-4.7889,-4.8629,-4.8951,-4.8968,-4.9001,-4.9001,-4.9001,-4.9001,-4.9001,-4.9001,-4.9001,-4.9001,-4.9001,0.0,0.0,0.0,0.0,0.0,-2.5118,-2.4575,-2.3712,-2.3105,0.0,0.0,0.0,-2.3105,-2.3105,-2.3105,-2.3105,-2.3105,-2.2868,-2.233,-2.2296,-2.2296,-2.2296,-2.2296,-2.2296,-2.2296,-2.2296,-2.2296,-2.2296,-2.2499,-2.3088,-2.4002,-2.4222,-2.522,-2.6826,-2.6201,-2.6657,-2.7858,-2.6589,-2.7621,-3.0023,-2.9108,-3.1002,0.0,0.0,0.0,0.0,0.0,-3.711,-3.578,0.0,-3.2493,-2.8906,-2.5794,-2.4034,-2.2987,-2.2448,-2.2682,-2.2987,-2.2431,0.0,0.0,0.0,0.0,0.0,0.0,0.0,0.0,0.0,0.0,0.0,0.0,0.0,0.0,0.0,0.0,0.0,0.0,0.0,0.0,0.0,0.0,0.0,0.0,0.0,0.0,0.0,0.0,-4.2956,-4.2956,-4.3436,-4.3894,-4.4236,-4.4586,-4.4704,-4.4555,-4.4918,-4.515,-4.5224,-4.5737,-4.6007,-4.6024,-4.6769,-4.7107,-4.7124,-4.731,-4.7716,-4.8257,-4.8781,-4.9001,-4.9001,-4.9001,-4.9001,-4.9001,-4.9001,-4.9001,-4.9001,0.0,0.0,0.0,-2.6907,-2.6309,-2.5614,-2.5048,-2.4323,-2.3864,0.0,0.0,0.0,-2.3864,-2.4137,-2.4069,-2.3444,-2.3393,-2.3088,-2.2347,-2.2296,-2.2296,-2.2296,-2.2296,-2.2296,-2.2296,-2.2296,-2.2296,-2.2296,-2.2296,-2.2516,-2.2936,-2.2936,-2.341,-2.4223,-2.4223,-2.4628,-2.5236,-2.4069,-2.5727,0.0,-2.9869,0.0,0.0,-3.5943,-3.7533,0.0,0.0,0.0,-3.7726,-3.7726,-3.4726,0.0,0.0,-2.5642,-2.456,-2.3528,-2.3748,-2.4154,-2.3427,-2.3528,-2.4017,0.0,0.0,0.0,0.0,0.0,0.0,0.0,0.0,0.0,0.0,0.0,0.0,0.0,0.0,0.0,0.0,0.0,0.0,0.0,0.0,0.0,0.0,0.0,0.0,0.0,-4.2286,-4.2286,-4.2286,-4.2655,-4.3012,-4.3367,-4.3788,-4.3957,-4.3855,-4.4361,-4.4615,-4.4615,-4.5026,-4.5229,-4.5263,-4.5991,-4.6346,-4.6363,-4.6667,-4.7039,-4.7479,-4.7902,-4.8443,-4.9001,-4.9001,-4.9001,-4.9001,-4.9001,-4.9001,-4.9001,0.0,0.0,-2.7076,-2.7076,-2.6561,-2.6057,-2.5775,-2.51,-2.4677,0.0,-2.4863,-2.4897,-2.4982,-2.5423,-2.5186,-2.3883,-2.3613,-2.3207,-2.2465,-2.2361,-2.2296,-2.2296,-2.2296,-2.2296,-2.2296,-2.2296,-2.2296,-2.2296,-2.2296,-2.2296,-2.2296,-2.2296,-2.2296,-2.2296,-2.2296,-2.2651,-2.3241,-2.275,-2.4527,-2.7976,-3.139,-3.3136,0.0,0.0,-3.8497,-3.8328,-3.9639,-3.969,-3.9089,-3.892,-3.6186,0.0,0.0,-2.8299,-2.6877,-2.5235,-2.5321,-2.5795,-2.4965,-2.4863,-2.5252,0.0,0.0,0.0,-2.867,-2.8534,0.0,0.0,0.0,0.0,0.0,0.0,0.0,0.0,0.0,0.0,0.0,0.0,0.0,0.0,0.0,0.0,0.0,0.0,0.0,-4.2049,-4.2049,-4.2083,-4.2168,-4.2051,-4.2048,-4.2115,-4.2745,-4.3098,-4.3098,-4.3939,-4.4395,-4.4479,-4.4479,-4.4513,-4.4632,-4.528,-4.5585,-4.5618,-4.6261,-4.6599,-4.6667,-4.6667,-4.7496,-4.8765,-4.8849,-4.8883,-4.89,-4.8968,-4.9001,-4.8984,0.0,-2.5666,-2.6237,-2.6237,-2.6426,-2.6554,-2.6505,-2.5862,-2.5812,-2.6995,-2.7148,-2.7402,-2.8045,-2.7131,-2.637,-2.6065,-2.4982,-2.3966,-2.3224,-2.2632,-2.2296,-2.2296,-2.2296,-2.2296,-2.2296,-2.2296,-2.2296,-2.2296,-2.2296,-2.2296,-2.2296,-2.2296,-2.2296,-2.2296,-2.2296,-2.2381,-2.2581,-2.3628,0.0,-2.7029,-2.8348,0.0,-3.5312,-3.6688,-3.8251,-3.9723,-3.9994,-4.0011,-3.9706,-3.8514,-3.7127,-3.5323,0.0,0.0,0.0,-2.7063,-2.725,-2.8045,-2.6657,-2.7182,-2.7757,0.0,0.0,0.0,-2.6082,-2.6268,0.0,0.0,0.0,0.0,0.0,0.0,0.0,0.0,0.0,0.0,0.0,0.0,0.0,0.0,0.0,0.0,0.0,0.0,-4.0536,-4.0536,-4.0536,-4.0807,-4.139,-4.1398,-4.1642,-4.2243,-4.2412,-4.2496,-4.2496,-4.2658,-4.3047,-4.3639,-4.3639,-4.3978,-4.4615,-4.475,-4.479,-4.4835,-4.4987,-4.5365,-4.5923,-4.5923,-4.643,-4.7276,-4.7885,-4.8091,-4.8176,-4.8781,-4.9001,-4.8917,-2.4599,-2.5196,-2.5874,-2.6416,-2.6581,-2.6718,-2.6921,-2.6649,-2.6738,-2.7672,-2.8466,-2.8804,-2.845,-2.8061,-2.7402,-2.6251,-2.5151,-2.4186,-2.3444,-2.2716,-2.2296,-2.2296,-2.2296,-2.2296,-2.2296,-2.2296,-2.2296,-2.2296,-2.2296,-2.2296,-2.2296,-2.2296,-2.2499,-2.2835,-2.2448,-2.2499,-2.2868,-2.3241,-2.4239,-2.5895,-2.9262,0.0,-3.5802,-3.7726,-3.9131,-4.0096,-4.0096,-4.0096,-3.9876,-3.8396,-3.7398,0.0,0.0,-3.2848,-3.2324,0.0,-2.9754,-3.0245,-2.8367,-2.8417,-2.8739,-2.7571,0.0,0.0,0.0,0.0,-2.659,0.0,0.0,0.0,0.0,0.0,0.0,0.0,0.0,0.0,0.0,0.0,0.0,0.0,0.0,0.0,0.0,0.0,-4.0096,-4.0096,-4.0096,-4.0265,-4.0629,-4.0646,-4.0815,-4.1196,-4.1559,-4.1745,-4.1745,-4.2117,-4.2489,-4.2861,-4.2861,-4.3267,-4.3995,-4.3995,-4.4215,-4.4615,-4.4615,-4.4818,-4.5145,-4.5145,-4.5365,-4.5805,-4.6921,-4.7361,-4.7411,-4.7767,-4.7902,-4.7851,-2.4455,-2.4867,-2.5531,-2.6386,-2.6519,-2.6632,-2.7108,-2.7133,-2.733,-2.7943,-2.9364,-2.9886,-2.8787,-2.911,-2.8807,-2.7249,-2.5761,-2.4728,-2.4272,-2.3156,-2.2499,-2.2499,-2.2381,-2.2364,-2.2513,-2.2364,-2.2296,-2.2296,-2.2296,-2.2296,-2.2296,-2.2296,-2.2632,-2.3173,-2.2702,-2.2919,-2.3577,0.0,0.0,-2.642,0.0,-3.3744,-3.489,-3.8217,-3.9469,-3.952,-3.9943,-4.0096,-3.991,-3.8565,-3.7719,-3.6931,-3.5233,-3.4912,0.0,0.0,0.0,0.0,0.0,0.0,0.0,0.0,0.0,-2.823,0.0,0.0,0.0,-2.8636,0.0,0.0,0.0,0.0,0.0,0.0,0.0,0.0,0.0,0.0,0.0,0.0,0.0,0.0,0.0,0.0,-3.9266,-3.9842,-3.9486,-3.9503,-4.0079,-4.0096,-4.0096,-4.0096,-4.0679,-4.0984,-4.0984,-4.1576,-4.1948,-4.2083,-4.2083,-4.2472,-4.3172,-4.3325,-4.3758,-4.4395,-4.4547,-4.4615,-4.4615,-4.4615,-4.4615,-4.4733,-4.6058,-4.6583,-4.6599,-4.6735,-4.6786,-4.6769,-2.389,-2.4324,-2.4734,-2.486,-2.5547,-2.6285,-2.7012,-2.6906,-2.7267,-2.8671,-3.0142,-3.1258,-3.1752,-3.1295,-3.1376,-3.2425,-2.8789,-2.6691,-2.7266,-2.4764,-2.3274,-2.3274,-2.2649,-2.2615,-2.3257,-2.2632,-2.2296,-2.2296,-2.2296,-2.2296,-2.2296,-2.2296,-2.233,-2.2448,-2.3021,-2.368,-2.4372,0.0,-2.7013,0.0,-3.2158,-3.1732,0.0,-3.5543,-3.7168,-3.7438,-3.9402,-4.0096,-3.9977,0.0,-3.8819,-3.8362,0.0,-3.6394,-3.6941,-3.4015,0.0,0.0,0.0,0.0,0.0,0.0,-3.2286,0.0,0.0,0.0,-2.7943,-2.5625,0.0,0.0,0.0,0.0,0.0,0.0,0.0,0.0,0.0,0.0,0.0,0.0,0.0,0.0,0.0,0.0,0.0,-3.8903,-3.7263,-3.728,-3.996,-4.0096,-4.0096,-4.0096,-4.018,-4.0231,-4.0231,-4.0316,-4.0663,-4.1322,-4.1322,-4.1711,-4.2439,-4.3115,-4.3443,-4.3589,-4.4282,-4.4615,-4.4615,-4.4615,-4.4615,-4.4682,-4.55,-4.5821,-4.5906,-4.6549,-4.6786,-4.6701,-2.3806,-2.3889,-2.4158,-2.4727,-2.4921,-2.5474,-2.6838,-2.8104,-2.8919,-2.8977,-3.0668,-3.1955,-3.2276,-3.2022,-3.209,-3.2716,0.0,-2.8415,0.0,0.0,-2.4492,-2.4068,-2.3325,-2.3088,-2.3393,-2.2682,-2.2296,-2.2296,-2.2296,-2.2296,-2.2296,-2.2296,-2.2767,-2.3594,-2.3898,-2.4915,-2.637,0.0,-2.664,0.0,0.0,0.0,0.0,-3.6355,-3.8708,-3.8843,-3.9774,-4.0096,-3.9926,0.0,-3.8362,0.0,0.0,0.0,0.0,0.0,0.0,0.0,0.0,0.0,0.0,0.0,0.0,0.0,-2.8399,0.0,-2.7571,0.0,0.0,0.0,0.0,0.0,0.0,0.0,0.0,0.0,0.0,0.0,0.0,0.0,0.0,0.0,0.0,0.0,0.0,0.0,0.0,-3.6096,-3.8684,-3.9225,-3.9673,-4.0096,-4.0096,-4.0096,-4.0096,-4.0096,-4.0265,-4.0544,-4.0544,-4.0933,-4.1677,-4.1982,-4.2371,-4.2811,-4.3572,-4.391,-4.3944,-4.4429,-4.4615,-4.4632,-4.4925,-4.5043,-4.5094,-4.5427,-4.55,-4.5495,-2.3806,-2.3678,-2.3811,-2.4552,-2.4516,-2.4966,-2.6759,-2.8741,-2.9885,-2.9369,-3.0968,-3.2329,-3.2835,-3.2903,0.0,-3.407,-3.2391,-3.0835,0.0,0.0,-2.6285,-2.576,-2.444,-2.3814,-2.4002,-2.3088,-2.2499,-2.2296,-2.2296,-2.2296,-2.2296,-2.2296,-2.2868,-2.3932,-2.4541,-2.593,-2.7756,0.0,-2.7858,-2.9533,-3.0446,-3.1312,-3.2564,-3.7371,-3.9571,-4.0096,-4.0096,-4.0096,-3.991,-3.8633,-3.821,0.0,-3.7973,0.0,0.0,0.0,0.0,0.0,-3.4726,0.0,0.0,0.0,0.0,0.0,0.0,0.0,0.0,0.0,0.0,0.0,0.0,0.0,0.0,0.0,0.0,0.0,0.0,0.0,0.0,0.0,0.0,0.0,0.0,0.0,0.0,0.0,0.0,0.0,-3.7432,-3.8294,-3.9039,-3.9791,-3.9994,-4.0096,-4.0096,-4.0096,-4.0096,-4.0096,-4.0096,-4.0383,-4.0899,-4.1119,-4.1491,-4.2033,-4.2777,-4.3115,-4.3149,-4.3724,-4.4107,-4.4265,-4.4265,-4.4429,-4.4615,-4.4615,-4.4615,-4.4615,-2.3806,-2.3795,-2.3795,-2.3831,-2.425,-2.516,-2.6845,-2.8154,-2.9219,-2.9965,0.0,0.0,0.0,0.0,0.0,0.0,0.0,-3.4336,-3.4286,0.0,-2.8874,-2.8857,-2.6031,-2.4795,0.0,-2.4103,-2.3021,-2.2296,-2.2296,-2.2296,-2.2296,-2.2296,-2.233,-2.2448,-2.4612,-2.6404,-2.7891,-2.9328,-3.2476,-3.6423,-3.569,-3.7144,-3.9537,0.0,-3.8251,-4.0096,-4.0096,0.0,0.0,-3.9208,-3.8954,0.0,0.0,0.0,0.0,0.0,0.0,0.0,0.0,0.0,0.0,-3.2324,0.0,0.0,0.0,0.0,-2.9565,0.0,0.0,0.0,0.0,-2.8281,-2.7232,-2.5845,-2.5592,0.0,0.0,0.0,0.0,0.0,0.0,0.0,0.0,0.0,0.0,0.0,0.0,0.0,-3.6558,-3.7533,-3.8278,-3.9005,-3.974,-4.0096,-4.0096,-4.0096,-4.0096,-4.0096,-4.0096,-4.0113,-4.0163,-4.0865,-4.1221,-4.1288,-4.2016,-4.2337,-4.2337,-4.2354,-4.2794,-4.3426,-4.3426,-4.391,-4.4615,-4.4615,-4.4615,-4.4615,-2.3806,-2.3806,-2.3806,-2.3806,-2.3835,-2.4525,-2.6463,-2.8769,-3.0797,0.0,0.0,0.0,0.0,-3.7387,-3.7942,0.0,0.0,-3.6783,-3.5753,-3.2849,0.0,-3.1176,-2.8281,-2.6793,0.0,0.0,-2.378,-2.3038,-2.2533,-2.2296,-2.2296,-2.2296,-2.2564,-2.3105,-2.4831,-2.6996,0.0,0.0,0.0,0.0,0.0,-3.7415,-4.0028,0.0,0.0,-4.0096,-4.0096,-4.0096,0.0,-3.9808,-3.9394,-3.9039,-3.9276,-3.8853,-3.8328,-3.8565,-3.8464,0.0,0.0,0.0,-3.7787,-3.4252,0.0,0.0,0.0,0.0,0.0,0.0,0.0,0.0,0.0,-2.8349,-2.7486,-2.6488,-2.5507,-2.444,0.0,0.0,0.0,0.0,0.0,0.0,0.0,0.0,0.0,0.0,0.0,0.0,0.0,-3.6468,-3.7719,-3.8954,-3.9723,-4.0096,-4.0096,-4.0096,-4.0096,-4.0096,-4.0096,-4.0096,-4.0113,-4.0367,-4.046,-4.0493,-4.1255,-4.1576,-4.161,-4.21,-4.2439,-4.2675,-4.2675,-4.2828,-4.321,-4.4225,-4.4615,-4.4615,-2.386,-2.3806,-2.3806,0.0,0.0,-2.5398,-2.6896,0.0,0.0,0.0,-3.4931,0.0,-3.9027,0.0,-3.9312,0.0,-3.9996,-3.8715,-3.6612,-3.5027,0.0,-3.3106,-3.0717,0.0,0.0,0.0,-2.5472,-2.4188,-2.3444,-2.2818,-2.2296,-2.2296,-2.255,-2.3088,0.0,-2.7131,-2.9803,-3.1343,-3.3152,0.0,0.0,-3.8362,0.0,0.0,-4.0096,-4.0096,0.0,-4.0096,-4.0096,-4.0096,-3.9791,-3.9462,-3.996,-3.9453,-3.8768,-3.9242,-3.9039,-3.8633,-3.8362,-3.8633,0.0,0.0,-3.4539,0.0,-3.0446,0.0,0.0,0.0,0.0,0.0,0.0,0.0,-2.8365,-2.7638,-2.6048,-2.4441,0.0,0.0,0.0,0.0,0.0,0.0,0.0,0.0,-2.637,-2.8416,0.0,0.0,0.0,0.0,-3.6535,-3.7753,-3.9039,-3.9723,-3.9723,-3.9977,-4.0096,-4.0096,-4.0096,-4.0096,-4.0096,-4.0096,-4.0096,-4.013,-4.0595,-4.0798,-4.0849,-4.1305,-4.166,-4.1914,-4.1914,-4.2066,-4.2405,-4.343,-4.3955,-4.4198,-2.394,-2.385,0.0,0.0,-2.5842,0.0,0.0,0.0,-3.4553,0.0,-3.6505,-3.8126,-3.9347,-3.9444,-3.9851,-4.0804,-4.1298,-4.0262,-3.7268,-3.7389,0.0,0.0,-3.3358,-3.2527,-3.2493,0.0,0.0,0.0,-2.4829,-2.3695,-2.2347,-2.2313,-2.2296,-2.2398,-2.4561,0.0,-2.9128,-3.2087,-3.5131,-3.8091,-3.9537,-4.0096,-4.0096,-4.0096,0.0,-4.0096,-4.0096,-4.0096,-4.0096,-4.0096,-4.0096,-4.0096,-4.0096,-4.0096,-4.0096,-4.0096,-4.0096,-3.996,-3.9225,-3.9039,-3.8531,-3.6309,0.0,0.0,0.0,0.0,-3.4184,0.0,0.0,0.0,0.0,0.0,-2.9976,-2.9077,-2.7063,-2.4849,-2.2702,0.0,0.0,0.0,0.0,0.0,0.0,-2.4272,-2.4678,-2.7486,-2.708,0.0,0.0,0.0,0.0,-3.5566,-3.7787,-3.8937,-3.8937,-3.969,-4.0045,-4.0045,-4.0079,-4.0096,-4.0096,-4.0096,-4.0096,-4.0096,-4.0096,-4.0096,-4.0096,-4.0096,-4.0493,-4.1153,-4.1153,-4.1576,-4.2185,-4.2252,-4.2777,-4.3521,-2.3831,-2.4755,-2.5769,0.0,-2.6482,-2.7357,0.0,0.0,0.0,0.0,-3.8215,-3.9665,-4.1745,-4.1669,-4.1709,-4.2304,-4.2157,0.0,0.0,0.0,0.0,-3.8889,-3.6943,-3.5603,-3.499,-3.1392,0.0,-2.7766,0.0,-2.2953,-2.3105,-2.2564,-2.2296,-2.2364,0.0,0.0,-2.8297,-3.1309,-3.4945,-3.8802,-3.974,-4.0096,0.0,0.0,-4.0096,-4.0096,-4.0096,-4.0096,-4.0096,-4.0096,-4.0096,-4.0096,-4.0096,-4.0096,-4.0096,-4.0096,-4.0096,-4.0062,-3.9876,-3.9825,-3.9554,-3.8413,-3.7297,-3.6129,0.0,0.0,0.0,0.0,0.0,0.0,0.0,0.0,0.0,-2.8555,-2.6691,-2.522,-2.4101,0.0,0.0,0.0,0.0,0.0,0.0,0.0,-2.5355,-2.61,0.0,0.0,0.0,0.0,0.0,-3.5532,-3.7297,-3.8176,-3.8176,-3.8903,-3.9276,-3.9276,-3.9842,-4.0096,-4.0096,-4.0096,-4.0096,-4.0096,-4.0096,-4.0096,-4.0096,-4.0096,-4.0214,-4.0383,-4.0383,-4.0502,-4.0807,-4.1907,-4.2777,-4.3426,-2.4846,0.0,0.0,-2.8884,0.0,0.0,-3.1763,0.0,0.0,-3.7777,-3.9156,0.0,-4.1704,-4.2239,-4.2518,-4.2595,-4.2537,0.0,-4.0993,0.0,0.0,-3.9947,-3.9036,-3.8176,-3.7365,-3.407,0.0,-2.8983,0.0,0.0,-2.2919,-2.2482,-2.2296,0.0,0.0,-2.5727,-2.806,-3.2053,-3.5402,-3.8132,-3.9199,0.0,0.0,-4.0096,-4.0096,-4.0096,-4.0096,-4.0096,-4.0096,-4.0096,-4.0096,-4.0096,-4.0096,-4.0096,-4.0096,-4.0096,-4.0096,-4.0096,-4.0096,-4.0096,-4.0011,-3.9588,-3.9013,-3.8127,-3.6497,-3.6633,-3.6711,0.0,0.0,0.0,0.0,0.0,0.0,-2.7402,-2.5879,-2.4966,0.0,0.0,0.0,0.0,0.0,0.0,0.0,0.0,0.0,0.0,0.0,0.0,0.0,0.0,0.0,0.0,-3.6282,-3.7415,-3.7415,-3.8142,-3.8514,-3.8514,-3.8937,-3.9292,-3.9622,-3.9622,-3.9808,-4.0096,-4.0096,-4.0096,-4.0096,-4.0096,-4.0096,-4.0096,-4.0096,-4.0096,-4.0197,-4.1044,-4.1813,-4.2513,-2.6638,0.0,0.0,0.0,0.0,0.0,0.0,-3.5222,0.0,-3.8282,0.0,-4.08,-4.08,-4.2067,-4.2749,-4.2338,0.0,-4.2001,-3.9911,-4.1347,-4.1548,-3.9835,-4.0397,-4.0358,-3.9561,-3.7161,-3.395,0.0,-2.8081,-2.5536,-2.2431,-2.2361,0.0,0.0,0.0,0.0,0.0,-3.3351,-3.6028,0.0,-3.8531,-3.9537,-4.0096,-4.0096,-4.0096,-4.0096,-4.0096,-4.0096,-4.0096,-4.0096,-4.0096,-4.0096,-4.0096,-4.0096,-4.0096,-4.0096,-4.0096,-4.0079,-3.9994,-3.9993,-4.0001,-3.99,-4.024,-3.9968,-3.7632,-3.7418,-3.7387,-3.6297,-3.5383,0.0,0.0,0.0,0.0,-2.6571,0.0,0.0,0.0,0.0,0.0,0.0,0.0,0.0,0.0,0.0,0.0,0.0,0.0,0.0,0.0,0.0,0.0,0.0,-3.5035,0.0,-3.6643,0.0,-3.777,-3.777,-3.7855,-3.8244,-3.8853,-3.8853,-3.9191,-3.9825,-3.991,-3.996,-3.996,-4.0062,-4.0096,-4.0096,-4.0096,-4.0096,-4.0096,-4.0096,-4.0493,-4.1255,-2.8915,0.0,0.0,0.0,0.0,-3.5838,-3.7176,-3.7594,-3.8337,-3.9894,-4.1488,-4.2466,-4.2466,-4.2719,-4.2863,-4.2769,-4.2844,0.0,0.0,0.0,0.0,-4.2276,-4.2384,-4.2077,-4.1265,-3.8115,-3.4992,-3.1997,-2.8235,-2.5306,-2.319,-2.2584,-2.2296,0.0,0.0,0.0,-2.992,-3.3271,0.0,-3.7838,-3.9292,-3.9994,-4.0096,-4.0096,-4.0096,-4.0096,-4.0096,-4.0096,-4.0096,-4.0096,-4.0096,-4.0096,-4.0096,-4.0096,-4.0096,-4.0096,-4.0096,-3.9977,-3.9343,-3.9433,-3.953,-3.8929,-3.9101,-3.9285,-3.8798,-3.8775,-3.8744,-3.8519,-3.8649,-3.827,-3.658,0.0,0.0,0.0,0.0,0.0,0.0,0.0,0.0,0.0,0.0,0.0,0.0,0.0,0.0,0.0,0.0,0.0,0.0,0.0,0.0,0.0,0.0,0.0,0.0,0.0,0.0,-3.7015,-3.7618,-3.7973,-3.8091,-3.8091,-3.8159,-3.8328,-3.892,-3.9191,-3.9225,-3.9859,-4.0096,-4.0096,-4.0096,-4.0096,-4.0096,-4.0096,-4.018,-4.0434,0.0,0.0,0.0,0.0,0.0,0.0,0.0,-4.0093,0.0,-4.051,-4.118,-4.1651,-4.1651,-4.2393,-4.2901,-4.2901,-4.2901,-4.2901,-4.2901,-4.2901,-4.2901,-4.2901,-4.2901,0.0,-4.1723,-3.93,-3.6215,-3.2503,-2.938,-2.6321,-2.3376,-2.2787,-2.2432,-2.2412,0.0,-2.7621,0.0,0.0,0.0,-3.7472,-3.9218,-4.0117,-4.0483,-4.0737,-4.0832,-4.0832,-4.0832,-4.0832,-4.0761,-4.0254,-4.0096,-4.0146,-4.0402,-4.0458,-4.0458,-4.0458,-4.0635,-4.0588,-3.96,-3.9617,-3.979,-3.9003,-3.9157,-3.9302,-3.8673,-3.8707,-3.8702,-3.8093,-3.8306,-3.7985,-3.5918,-3.381,0.0,0.0,0.0,0.0,0.0,0.0,0.0,0.0,0.0,0.0,0.0,0.0,0.0,0.0,0.0,0.0,0.0,0.0,0.0,0.0,0.0,0.0,0.0,0.0,0.0,-3.618,-3.6552,-3.6941,-3.733,-3.733,-3.7533,-3.7939,-3.8684,-3.8768,-3.8481,-3.9249,-3.9757,-4.0096,-4.0096,-4.0096,-4.0096,-4.0096,-4.0096,-4.0214,0.0,-3.5765,0.0,0.0,-3.8554,0.0,-4.0401,-4.1868,-4.2448,-4.118,-4.1017,-4.1017,-4.1017,-4.214,-4.2901,-4.2901,-4.2901,-4.2901,-4.2901,-4.2901,-4.2901,-4.2901,-4.2901,-4.2592,-4.1958,-4.06,-3.7663,0.0,-3.112,-2.807,-2.4067,-2.3522,-2.335,0.0,0.0,0.0,0.0,0.0,-3.6879,-3.7701,-3.9296,-4.0337,-4.0972,-4.1253,-4.1415,-4.1503,-4.1503,-4.1503,-4.1393,-4.0659,-4.041,-4.0458,-4.0832,-4.0949,-4.0949,-4.0949,-4.1208,-4.1222,-3.9874,-3.9853,-3.9951,-3.8998,-3.911,-3.9201,-3.8252,-3.832,-3.831,-3.7369,-3.7431,-3.7166,-3.5591,-3.4385,0.0,0.0,0.0,0.0,0.0,0.0,0.0,0.0,0.0,0.0,0.0,0.0,0.0,0.0,0.0,0.0,-2.4677,-2.6404,0.0,0.0,0.0,0.0,-3.4252,0.0,-3.56,0.0,-3.56,-3.5943,-3.6535,-3.6535,-3.6857,-3.7442,-3.821,-3.8294,-3.7973,-3.87,-3.9326,-3.9893,-4.0045,-4.0096,-4.0096,-4.0096,-4.0096,-4.018,0.0,0.0,0.0,0.0,0.0,0.0,0.0,-4.1868,-4.2865,-4.2702,-4.2665,-4.2665,-4.2665,-4.281,-4.2901,-4.2901,-4.2901,-4.2901,-4.2901,-4.2901,-4.2901,-4.2901,-4.2901,-4.2846,-4.2792,-4.194,-3.9391,0.0,0.0,-3.0484,-2.6276,-2.5516,0.0,0.0,0.0,0.0,0.0,-3.622,-3.8143,-4.0088,-4.0516,-4.0995,-4.1393,-4.1019,-4.1116,-4.1503,-4.1503,-4.1503,-4.1481,-4.1393,-4.137,-4.137,-4.1415,-4.1437,-4.1437,-4.1437,-4.1459,-4.1165,-3.9648,-3.9552,-3.9478,-3.802,-3.8008,-3.8322,-3.8216,-3.8215,-3.8214,-3.8089,-3.8106,-3.7549,-3.5659,-3.6601,-3.6495,0.0,0.0,0.0,0.0,0.0,-3.0767,-2.9315,0.0,0.0,0.0,0.0,0.0,0.0,0.0,0.0,0.0,-2.5693,0.0,-3.0004,0.0,-3.2767,-3.3508,-3.489,0.0,-3.56,-3.56,-3.5633,-3.5701,-3.5701,-3.5752,-3.5853,-3.6654,-3.7347,-3.7973,-3.87,-3.9039,-3.9157,-3.9842,-4.0096,-4.0096,-4.0096,-4.0096,-4.0113,0.0,0.0,0.0,0.0,0.0,0.0,0.0,-4.2502,-4.2901,-4.2901,-4.2901,-4.2901,-4.2901,-4.2901,-4.2901,-4.2901,-4.2901,-4.2901,-4.2901,-4.2901,-4.2901,-4.2901,-4.2901,-4.2901,-4.2901,-4.2122,-4.0311,0.0,0.0,-3.2402,-2.94,-2.8308,0.0,0.0,0.0,-3.4174,-3.5865,-3.8351,-3.9805,-4.0471,-4.1309,-4.1739,-4.1931,-4.2015,-4.2177,-4.234,-4.234,-4.234,-4.234,-4.234,-4.1973,-4.1547,-4.1825,-4.1909,-4.1909,-4.1909,-4.1777,-4.1312,-3.9931,-3.956,-3.9302,-3.8185,-3.8054,-3.8209,-3.8209,-3.8209,-3.8209,-3.8209,-3.8209,-3.7958,-3.7172,-3.6726,-3.6317,0.0,0.0,0.0,0.0,0.0,0.0,-2.9877,0.0,-2.7108,0.0,0.0,0.0,0.0,0.0,0.0,0.0,0.0,0.0,-2.801,0.0,-3.2811,-3.31,-3.5266,-3.6374,-3.6392,-3.6135,-3.6023,-3.6002,-3.5734,-3.5853,-3.6315,-3.6146,-3.6772,-3.7889,-3.7736,-3.8193,-3.9022,-3.9309,-3.9723,-4.0096,-4.0096,-4.0096,-4.0096,-4.08,0.0,-4.0492,0.0,-4.1578,-4.1596,-4.2738,-4.2901,-4.2901,-4.2901,-4.2901,-4.2901,-4.2901,-4.2901,-4.2901,-4.2901,-4.2901,-4.2901,-4.2901,-4.2901,-4.2901,-4.2901,-4.2901,0.0,-4.2901,-4.2339,-4.116,-3.9373,-3.7115,0.0,-3.2961,0.0,0.0,0.0,-3.5704,-3.7055,-3.8026,-4.0266,-4.1183,-4.1189,-4.1905,-4.2279,-4.2438,-4.2614,-4.2787,-4.2901,-4.2901,-4.2901,-4.2901,-4.2901,-4.246,-4.1973,-4.23,-4.2398,-4.2398,-4.2398,-4.2237,-4.174,-4.0395,-3.9878,-3.9478,-3.8462,-3.8209,-3.8209,-3.8209,-3.8209,-3.8209,-3.8209,-3.7812,-3.7558,-3.781,-3.6722,-3.6097,0.0,0.0,0.0,0.0,0.0,0.0,0.0,-2.8434,-2.7079,-2.5909,0.0,0.0,0.0,0.0,0.0,0.0,0.0,0.0,0.0,0.0,0.0,0.0,0.0,-3.69,-3.69,-3.6618,-3.6471,-3.6471,-3.6118,-3.6275,-3.6794,-3.611,-3.6435,-3.7398,-3.696,-3.7422,-3.8362,-3.8582,-3.8988,-3.9445,-3.9445,-3.9445,-3.9486,-4.1524,-4.1687,-4.1922,-4.2737,-4.2883,-4.2883,-4.2901,-4.2901,-4.2901,-4.2901,-4.2901,-4.2901,-4.2901,-4.2901,-4.2901,-4.2901,-4.2901,-4.2901,-4.2901,-4.2901,-4.2901,0.0,0.0,-4.2901,-4.2901,-4.2901,-4.2103,-4.0474,0.0,0.0,-3.6924,0.0,-3.7339,-3.8156,-3.8971,-4.0202,-4.165,-4.1687,-4.2157,-4.2826,-4.2378,-4.2478,-4.2844,-4.2378,-4.2516,-4.2901,-4.2901,-4.2901,-4.2901,-4.2901,-4.2882,-4.2882,-4.2882,-4.2882,-4.2882,-4.2882,-4.2882,-4.2538,-4.0926,-4.0492,-4.013,-3.8572,-3.8209,-3.8209,-3.8209,-3.8209,-3.8209,-3.8209,-3.6942,-3.6073,-3.6868,-3.6995,-3.6469,-3.4896,0.0,0.0,0.0,0.0,0.0,0.0,-2.682,-2.5237,-2.574,0.0,0.0,0.0,0.0,0.0,0.0,0.0,0.0,-2.93,-3.2057,0.0,-3.289,-3.5568,-3.69,-3.69,-3.69,-3.688,-3.688,-3.688,-3.688,-3.6878,-3.6471,-3.6301,-3.6345,-3.6656,-3.6812,-3.6897,-3.7635,-3.7922,-3.7939,-3.7939,-3.7939,-3.8041,-4.2466,-4.252,-4.2592,-4.2846,-4.2901,-4.2901,-4.2901,-4.2901,-4.2901,-4.2901,-4.2901,-4.2901,-4.2901,-4.2901,-4.2901,0.0,-4.2901,-4.2901,0.0,-4.2901,-4.2901,-4.2901,-4.2901,-4.2901,-4.2901,-4.2901,-4.2647,-4.214,0.0,0.0,0.0,-3.8644,-3.9043,-3.9804,-4.0619,-4.1234,-4.1741,-4.2303,-4.2665,-4.2882,-4.2749,-4.2768,-4.2882,-4.2731,-4.2768,-4.2901,-4.2901,-4.2901,-4.2901,-4.2901,-4.2901,-4.2901,-4.2901,-4.2901,-4.2901,-4.2901,-4.2122,-4.1162,-4.0637,-3.9731,-3.8808,-3.8317,-3.8209,-3.8209,-3.8209,-3.8209,-3.8046,-3.7502,-3.7412,-3.7341,-3.7049,-3.7448,-3.7466,-3.6415,0.0,0.0,0.0,0.0,0.0,0.0,-2.8833,-2.8129,0.0,-2.767,0.0,0.0,0.0,0.0,0.0,0.0,0.0,0.0,-3.2431,0.0,-3.372,-3.6416,-3.7792,-3.7774,-3.7468,-3.717,-3.69,-3.69,-3.69,-3.688,-3.6761,-3.6719,-3.6716,-3.6817,-3.7155,-3.764,-3.7862,-3.8116,-3.8305,-3.8305,-3.8131,-3.8024,-4.2901,-4.2901,-4.2901,-4.2901,-4.2901,-4.2901,-4.2901,-4.2901,-4.2901,-4.2901,-4.2901,-4.2901,-4.2901,-4.2901,0.0,-4.2901,-4.2901,-4.2901,-4.2901,-4.2901,-4.2901,-4.2901,-4.2901,-4.2901,-4.2901,0.0,0.0,-4.2901,-4.1886,-4.1162,-4.0709,-4.0709,-4.0963,-4.1433,-4.194,-4.2158,-4.2194,-4.2683,-4.2901,-4.2901,-4.2901,-4.2901,-4.2901,-4.2901,-4.2901,-4.2901,-4.2901,-4.2901,-4.2901,-4.2901,-4.2901,-4.2901,-4.2901,-4.2901,-4.2847,-4.2538,-4.1741,-4.0818,-4.0256,-3.9387,-3.8589,-3.8281,-3.8209,-3.8209,-3.8209,-3.7973,-3.7701,-3.7484,-3.7375,-3.7142,-3.6635,-3.7212,-3.7393,-3.6288,0.0,-3.5243,-3.3628,0.0,0.0,0.0,0.0,0.0,0.0,-2.9022,0.0,0.0,0.0,0.0,0.0,0.0,0.0,-2.924,-3.3251,0.0,-3.4519,-3.6955,-3.8209,-3.8192,-3.7897,-3.7632,-3.7376,-3.7376,-3.7376,-3.7376,-3.7208,-3.7132,-3.7113,-3.6958,-3.718,-3.7582,-3.7582,-3.7696,-3.7897,-3.7897,-3.7741,-3.7636,-4.2901,-4.2901,0.0,0.0,-4.2901,0.0,-4.2901,-4.2901,-4.2901,-4.2901,-4.2901,-4.2901,-4.2901,-4.2901,-4.2901,-4.2901,0.0,0.0,0.0,-4.2901,-4.2901,-4.2901,-4.2901,0.0,-4.2901,-4.2901,-4.2901,-4.2901,-4.2901,-4.2901,-4.2901,-4.2901,-4.2901,-4.2901,-4.2901,-4.2901,-4.2901,-4.2901,-4.2901,-4.2901,-4.2901,-4.2901,-4.2901,-4.2901,-4.2901,-4.2901,-4.2901,-4.2901,-4.2901,-4.2901,-4.2901,-4.2901,-4.2901,-4.2901,-4.2737,-4.1994,-4.1705,-4.1288,-3.9858,-3.9387,-3.9134,-3.839,-3.8209,-3.8209,-3.8209,-3.7629,-3.7285,-3.7973,-3.6979,-3.5949,-3.5876,-3.649,-3.6488,-3.495,-3.5206,-3.5062,-3.3465,0.0,0.0,0.0,0.0,0.0,0.0,-2.9182,-3.0014,0.0,0.0,0.0,0.0,0.0,0.0,-3.1668,-3.438,-3.5642,-3.5325,-3.7227,-3.8209,-3.8209,-3.8209,-3.8209,-3.8209,-3.8209,-3.8209,-3.8175,-3.7739,-3.7542,-3.7523,-3.7151,-3.6978,-3.6978,-3.6978,-3.6958,-3.6939,-3.6939,-3.6919,-3.7005,0.0,0.0,-4.2901,-4.2901,-4.2901,-4.2901,-4.2901,-4.2901,-4.2901,-4.2901,-4.2901,-4.2901,-4.2901,-4.2901,-4.2901,-4.2901,-4.2901,-4.2901,-4.2901,-4.2901,-4.2901,-4.2901,-4.2901,-4.2901,-4.2901,-4.2901,-4.2901,-4.2901,-4.2901,-4.2901,-4.2901,-4.2901,-4.2901,-4.2901,-4.2901,-4.2901,-4.2901,-4.2901,-4.2901,-4.2901,-4.2901,-4.2901,-4.2901,-4.2901,-4.2901,-4.2901,-4.2901,-4.2901,-4.2901,-4.2901,-4.2901,-4.2901,-4.2901,-4.2901,-4.2846,-4.2665,-4.1759,-4.0691,-4.0347,-3.9387,-3.8444,-3.8263,-3.8209,-3.8209,-3.8209,-3.8064,-3.781,-3.7375,-3.7484,-3.7431,-3.6832,-3.6868,-3.6669,-3.5677,-3.4661,-3.3411,-3.1781,-3.1252,0.0,0.0,-3.0613,-3.101,-3.0396,-3.1624,-3.1711,0.0,0.0,0.0,0.0,0.0,-3.1622,-3.2931,-3.4814,-3.6043,-3.6573,-3.7652,-3.8209,-3.8209,-3.8209,-3.8209,-3.8209,-3.8209,-3.8209,-3.8192,-3.8071,-3.8037,-3.8037,-3.7915,-3.788,-3.788,-3.788,-3.7667,-3.7358,-3.7358,-3.7152,-3.7005,-4.3069,-4.3069,-4.3105,-4.3249,-4.316,-4.3069,-4.3069,-4.2976,-4.2901,-4.2901,-4.2901,-4.2901,-4.2901,-4.2901,-4.2901,-4.2901,-4.2901,-4.2901,-4.2901,-4.2901,-4.2901,-4.2901,-4.2901,-4.2901,-4.2901,-4.2901,-4.2901,-4.2901,-4.2901,-4.2901,-4.2901,-4.2901,-4.2901,-4.2901,-4.2901,-4.2901,-4.2901,-4.2901,-4.2901,-4.2901,-4.2901,-4.2901,-4.2901,-4.2901,-4.2901,-4.2901,-4.2901,-4.2901,-4.2901,-4.2901,-4.2901,-4.2901,-4.2901,-4.2901,-4.2901,-4.2901,-4.1759,-4.042,-4.0093,-3.9115,-3.8209,-3.8209,-3.8209,-3.8209,-3.8209,-3.8209,-3.8082,-3.7647,-3.7901,-3.7955,-3.7158,-3.6995,-3.6506,-3.495,-3.428,-3.3266,-3.1274,-3.1324,0.0,-3.0962,-3.1673,-3.2162,-3.2089,-3.2886,-3.2792,-3.1344,0.0,0.0,-3.1902,-3.261,-3.3301,-3.3936,-3.5152,-3.62,-3.6995,-3.781,-3.8209,-3.8209,-3.8209,-3.8209,-3.8209,-3.8209,-3.8209,-3.8209,-3.8209,-3.8209,-3.8209,-3.8209,-3.8209,-3.8209,-3.8209,-3.8037,-3.7827,-3.7827,-3.7667,-3.7521,-4.332,-4.3355,-4.3425,-4.3662,-4.3511,-4.3355,-4.3355,-4.3178,-4.3032,-4.3032,-4.2995,-4.2957,-4.2957,-4.292,-4.2901,-4.2901,-4.2901,-4.2901,-4.2901,-4.2901,-4.2901,-4.2901,-4.2901,-4.2901,-4.2901,-4.2901,-4.2901,-4.2901,-4.2901,-4.2901,-4.2901,-4.2901,-4.2901,-4.2901,-4.2901,-4.2901,-4.2901,-4.2901,-4.2901,-4.2901,-4.2901,-4.2901,-4.2901,-4.2901,-4.2901,-4.2901,-4.2901,-4.2901,-4.2901,-4.2901,-4.2901,-4.2901,-4.2901,-4.2901,-4.2901,-4.2901,-4.1759,-4.0347,-3.9731,-3.8915,-3.8209,-3.8209,-3.8209,-3.8209,-3.8209,-3.8209,-3.8209,-3.8209,-3.8209,-3.7991,-3.7303,-3.6977,-3.6107,-3.3936,-3.3954,-3.3484,-3.1324,0.0,-3.2198,-3.2198,-3.2306,-3.2651,-3.3339,-3.3393,-3.3393,-3.3393,-3.3393,0.0,0.0,-3.4063,-3.4534,-3.4769,-3.555,-3.6363,-3.7176,-3.7865,-3.8209,-3.8209,-3.8209,-3.8209,-3.8209,-3.8209,-3.8209,-3.8209,-3.8209,-3.8209,-3.8209,-3.8209,-3.8209,-3.8209,-3.8209,-3.8209,-3.8209,-3.8209,-3.8209,-3.814,-4.3629,-4.3629,-4.3646,-4.3695,-4.3662,-4.3629,-4.3629,-4.3595,-4.3579,-4.3579,-4.3373,-4.3232,-4.3232,-4.3032,-4.2901,-4.2901,-4.2901,-4.2901,-4.2901,-4.2901,-4.2901,-4.2901,-4.2901,-4.2901,-4.2901,-4.2901,-4.2901,-4.2901,-4.2901,-4.2901,-4.2901,-4.2901,-4.2901,-4.2901,-4.2901,-4.2901,-4.2901,-4.2901,-4.2901,-4.2901,-4.2901,-4.2901,-4.2901,-4.2901,-4.2901,-4.2901,-4.2901,-4.2901,-4.2901,-4.2901,-4.2901,-4.2901,-4.2901,-4.2901,-4.2901,-4.2901,-4.1759,-4.0474,-4.0347,-3.9297,-3.8209,-3.8209,-3.8209,-3.8209,-3.8209,-3.8209,-3.8209,-3.8209,-3.8209,-3.8172,-3.8046,-3.6906,-3.5639,-3.4588,-3.3375,-3.2198,0.0,0.0,-3.2198,-3.2198,-3.2795,-3.3266,-3.3393,-3.3393,-3.3393,-3.3393,-3.3393,-3.3393,-3.3393,-3.352,-3.4208,-3.5569,-3.6381,-3.7194,-3.8009,-3.8136,-3.8209,-3.8209,-3.8209,-3.8209,-3.8209,-3.8209,-3.8209,-3.8209,-3.8209,-3.8209,-3.8209,-3.8209,-3.8209,-3.8209,-3.8209,-3.8209,-3.8209,-3.8209,-3.8209,-3.8192,-4.3889,-4.3892,-4.3923,-4.4094,-4.4124,-4.4079,-4.3936,-4.3793,-4.3695,-4.3695,-4.3595,-4.3511,-4.3511,-4.3267,-4.3124,-4.3124,-4.2976,-4.2901,-4.2901,-4.2901,-4.2901,-4.2901,-4.2901,-4.2901,-4.2901,-4.2901,-4.2901,-4.2901,-4.2901,-4.2901,-4.2901,-4.2901,-4.2901,-4.2901,-4.2901,-4.2901,-4.2901,-4.2901,-4.2901,-4.2901,-4.2901,-4.2901,-4.2901,-4.2901,-4.2901,-4.2901,-4.2901,-4.2901,-4.2901,-4.2901,-4.2901,-4.2901,-4.2901,-4.2901,-4.2901,-4.2901,-4.1759,-4.0311,-3.9496,-3.8735,-3.8209,-3.8209,-3.8209,-3.8209,-3.8209,-3.8209,-3.8209,-3.8209,-3.8209,-3.8209,-3.8209,-3.7249,-3.6182,-3.5369,-3.4262,0.0,0.0,-3.2614,-3.285,-3.285,-3.3176,-3.3393,-3.3393,-3.3393,-3.3393,-3.3393,-3.3393,-3.3393,-3.3393,-3.381,-3.4588,-3.575,-3.6997,-3.7828,-3.8209,-3.8209,-3.8209,-3.8209,-3.8209,-3.8209,-3.8209,-3.8209,-3.8209,-3.8209,-3.8209,-3.8209,-3.8209,-3.8209,-3.8209,-3.8209,-3.8209,-3.8209,-3.8209,-3.8209,-3.8209,-3.8157,-4.4155,-4.414,-4.4188,-4.4473,-4.4501,-4.4426,-4.4214,-4.4033,-4.3892,-4.3892,-4.3825,-4.3793,-4.3793,-4.3562,-4.339,-4.339,-4.3196,-4.3087,-4.3087,-4.3087,-4.3032,-4.2919,-4.2901,-4.2901,-4.2901,-4.2901,-4.2901,-4.2901,-4.2901,-4.2901,-4.2901,-4.2901,-4.2901,-4.2901,-4.2901,-4.2901,-4.2901,-4.2901,-4.2901,-4.2901,-4.2901,-4.2901,-4.2901,-4.2901,-4.2901,-4.2901,-4.2901,-4.2901,-4.2901,-4.2901,-4.2901,-4.2901,-4.2901,-4.2901,-4.2901,-4.2901,-4.1759,-4.0184,-3.8844,-3.8354,-3.8209,-3.8209,-3.8209,-3.8209,-3.8209,-3.8209,-3.8209,-3.8209,-3.8209,-3.8209,-3.8209,-3.7538,-3.6687,-3.5677,0.0,0.0,0.0,-3.3284,-3.3393,-3.3393,-3.3393,-3.3393,-3.3393,-3.3393,-3.3393,-3.3393,-3.3393,-3.3393,-3.3393,-3.3991,-3.4787,-3.5768,-3.7359,-3.8209,-3.8209,-3.8209,-3.8209,-3.8209,-3.8209,-3.8209,-3.8209,-3.8209,-3.8209,-3.8209,-3.8209,-3.8209,-3.8209,-3.8209,-3.8209,-3.8209,-3.8209,-3.8209,-3.8209,-3.8209,-3.8209,-3.814,-4.4473,-4.4473,-4.4473,-4.4501,-4.4501,-4.4501,-4.4468,-4.444,-4.444,-4.444,-4.4214,-4.406,-4.406,-4.3825,-4.3662,-4.3662,-4.3646,-4.3646,-4.3646,-4.3646,-4.3425,-4.292,-4.2901,-4.2901,-4.2901,-4.2901,-4.2901,-4.2901,-4.2901,-4.2901,-4.2901,-4.2901,-4.2901,-4.2901,-4.2901,-4.2901,-4.2901,-4.2901,-4.2901,-4.2901,-4.2901,-4.2901,-4.2901,-4.2901,-4.2901,-4.2901,-4.2901,-4.2901,-4.2901,-4.2901,-4.2901,-4.2901,-4.2901,-4.2901,-4.2901,-4.2901,-4.1759,-4.0329,-3.9532,-3.8753,-3.8209,-3.8209,-3.8209,-3.8209,-3.8209,-3.8209,-3.8209,-3.8209,-3.8209,-3.8209,-3.8209,-3.7538,-3.6488,-3.495,0.0,0.0,-3.2506,-3.2922,-3.3393,-3.3393,-3.3393,-3.3393,-3.3393,-3.3393,-3.3393,-3.3393,-3.3393,-3.3393,-3.3393,-3.3465,-3.4208,-3.575,-3.7359,-3.8209,-3.8209,-3.8209,-3.8209,-3.8209,-3.8209,-3.8209,-3.8209,-3.8209,-3.8209,-3.8209,-3.8209,-3.8209,-3.8209,-3.8209,-3.8209,-3.8209,-3.8209,-3.8209,-3.8209,-3.8209,-3.8209,-3.8192,-4.4619,-4.457,-4.4501,-4.4501,-4.4501,-4.4501,-4.4501,-4.4501,-4.4501,-4.4501,-4.4411,-4.4335,-4.4335,-4.4109,-4.3936,-4.3936,-4.3793,-4.3695,-4.3695,-4.3695,-4.3528,-4.316,-4.2995,-4.2901,-4.2901,-4.2901,-4.2901,-4.2901,-4.2901,-4.2901,-4.2901,-4.2901,-4.2901,-4.2901,-4.2901,-4.2901,-4.2901,-4.2901,-4.2901,-4.2901,-4.2901,-4.2901,-4.2901,-4.2901,-4.2901,-4.2901,-4.2901,-4.2901,-4.2901,-4.2901,-4.2901,-4.2901,-4.2901,-4.2901,-4.2901,-4.2901,-4.1759,-4.0438,-4.0166,-3.9152,-3.8209,-3.8209,-3.8209,-3.8209,-3.8209,-3.8209,-3.8209,-3.8209,-3.8209,-3.8209,-3.8209,-3.7538,-3.6796,-3.6182,0.0,-3.4389,-3.3773,-3.352,-3.3393,-3.3393,-3.3393,-3.3393,-3.3393,-3.3393,-3.3393,-3.3393,-3.3393,-3.3393,-3.3393,-3.3882,-3.4661,-3.5768,-3.687,-3.7701,-3.8209,-3.8209,-3.8209,-3.8209,-3.8209,-3.8209,-3.8209,-3.8209,-3.8209,-3.8209,-3.8209,-3.8209,-3.8209,-3.8209,-3.8209,-3.8209,-3.8209,-3.8209,-3.8209,-3.8209,-3.8209,-3.8209,-4.4757,-4.4699,-4.4619,-4.4619,-4.4592,-4.4551,-4.4551,-4.4528,-4.4501,-4.4501,-4.4501,-4.4501,-4.4501,-4.4335,-4.4214,-4.4214,-4.4064,-4.3955,-4.3955,-4.3873,-4.3712,-4.3442,-4.316,-4.3032,-4.3032,-4.2939,-4.2901,-4.2901,-4.2901,-4.2901,-4.2901,-4.2901,-4.2901,-4.2901,-4.2901,-4.2901,-4.2901,-4.2901,-4.2901,-4.2901,-4.2901,-4.2901,-4.2901,-4.2901,-4.2901,-4.2901,-4.2901,-4.2901,-4.2901,-4.2901,-4.2901,-4.2901,-4.2901,-4.2901,-4.281,-4.2285,-4.1361,-4.0383,-3.9912,-3.9007,-3.8209,-3.8209,-3.8209,-3.8209,-3.8209,-3.8209,-3.8209,-3.8209,-3.8209,-3.8209,-3.8209,-3.7538,-3.6922,-3.6653,-3.5476,-3.4516,-3.4262,-3.3755,-3.3393,-3.3393,-3.3393,-3.3393,-3.3393,-3.3393,-3.3393,-3.3393,-3.3393,-3.3393,-3.3393,-3.4172,-3.4969,-3.5768,-3.658,-3.7393,-3.8191,-3.8209,-3.8209,-3.8209,-3.8209,-3.8209,-3.8209,-3.8209,-3.8209,-3.8209,-3.8209,-3.8209,-3.8209,-3.8209,-3.8209,-3.8209,-3.8209,-3.8209,-3.8209,-3.8209,-3.8209,-3.8209,-4.4895,-4.4895,-4.4895,-4.4895,-4.4783,-4.4712,-4.4712,-4.4578,-4.4501,-4.4501,-4.4501,-4.4501,-4.4501,-4.4501,-4.4501,-4.4501,-4.4501,-4.4501,-4.4501,-4.4262,-4.3983,-4.3712,-4.3442,-4.3303,-4.3303,-4.305,-4.2901,-4.2901,-4.2901,-4.2901,-4.2901,-4.2901,-4.2901,-4.2901,-4.2901,-4.2901,-4.2901,-4.2901,-4.2901,-4.2901,-4.2901,-4.2901,-4.2901,-4.2901,-4.2901,-4.2901,-4.2901,-4.2901,-4.2901,-4.2901,-4.2901,-4.2901,-4.2901,-4.2901,-4.2593,-4.0999,-4.051,-4.0184,-3.8627,-3.8209,-3.8209,-3.8209,-3.8209,-3.8209,-3.8209,-3.8209,-3.8209,-3.8209,-3.8209,-3.8209,-3.8209,-3.7538,-3.6741,-3.5931,-3.5116,-3.4317,-3.352,-3.3393,-3.3393,-3.3393,-3.3393,-3.3393,-3.3393,-3.3393,-3.3393,-3.3393,-3.3393,-3.3393,-3.3393,-3.4172,-3.4969,-3.5768,-3.658,-3.7393,-3.8191,-3.8209,-3.8209,-3.8209,-3.8209,-3.8209,-3.8209,-3.8209,-3.8209,-3.8209,-3.8209,-3.8209,-3.8209,-3.8209,-3.8209,-3.8209,-3.8209,-3.8209,-3.8209,-3.8209,-3.8209,-3.8209,-4.5045,-4.4955,-4.4895,-4.4895,-4.4858,-4.4833,-4.4833,-4.4815,-4.477,-4.477,-4.4712,-4.4646,-4.4646,-4.457,-4.4501,-4.4501,-4.4501,-4.4501,-4.4501,-4.4426,-4.4335,-4.4262,-4.3825,-4.3579,-4.3579,-4.3511,-4.346,-4.346,-4.3267,-4.3178,-4.3178,-4.2995,-4.2901,-4.2901,-4.2901,-4.2901,-4.2901,-4.2901,-4.2901,-4.2901,-4.2901,-4.2901,-4.2901,-4.2901,-4.2901,-4.2901,-4.2901,-4.2901,-4.2901,-4.2901,-4.2901,-4.2901,-4.2901,-4.2901,-4.281,-4.2321,-4.1379,-4.0401,-3.9948,-3.9025,-3.8209,-3.8209,-3.8209,-3.8209,-3.8209,-3.8209,-3.8209,-3.8209,-3.8209,-3.8209,-3.8209,-3.7069,-3.6091,-3.584,-3.4661,-3.3665,-3.3429,-3.3393,-3.3393,-3.3393,-3.3393,-3.3393,-3.3393,-3.3393,-3.3393,-3.3393,-3.3393,-3.3393,-3.3393,-3.4172,-3.4969,-3.5768,-3.658,-3.7393,-3.8191,-3.8209,-3.8209,-3.8209,-3.8209,-3.8209,-3.8209,-3.8209,-3.8209,-3.8209,-3.8209,-3.8209,-3.8209,-3.8209,-3.8209,-3.8209,-3.8209,-3.8209,-3.8209,-3.8209,-3.8209,-3.8209,-4.5181,-4.5114,-4.5068,-4.5068,-4.5003,-4.4967,-4.4967,-4.4931,-4.4895,-4.4895,-4.4821,-4.477,-4.477,-4.4712,-4.4659,-4.4659,-4.4605,-4.4578,-4.4578,-4.4542,-4.4501,-4.4501,-4.4203,-4.3971,-4.3857,-4.3744,-4.3695,-4.3695,-4.3545,-4.346,-4.346,-4.3285,-4.316,-4.3069,-4.3069,-4.2995,-4.2901,-4.2901,-4.2901,-4.2901,-4.2901,-4.2901,-4.2901,-4.2901,-4.2901,-4.2901,-4.2901,-4.2901,-4.2901,-4.2901,-4.2901,-4.2901,-4.2901,-4.2901,-4.2847,-4.252,-4.1741,-4.0836,-4.0238,-3.9387,-3.8607,-3.8281,-3.8209,-3.8209,-3.8209,-3.8209,-3.8209,-3.8209,-3.8209,-3.8209,-3.8209,-3.7142,-3.6272,-3.6272,-3.4932,-3.3882,-3.3882,-3.361,-3.3393,-3.3393,-3.3393,-3.3393,-3.3393,-3.3393,-3.3393,-3.3393,-3.3393,-3.3538,-3.3864,-3.4353,-3.5113,-3.6236,-3.6759,-3.7393,-3.8191,-3.8209,-3.8209,-3.8209,-3.8209,-3.8209,-3.8209,-3.8209,-3.8209,-3.8209,-3.8209,-3.8209,-3.8209,-3.8209,-3.8209,-3.8209,-3.8209,-3.8209,-3.8209,-3.8209,-3.8209,-3.8209,-4.5307,-4.5307,-4.5307,-4.5307,-4.5192,-4.5125,-4.5125,-4.5003,-4.495,-4.495,-4.4938,-4.4907,-4.4907,-4.4907,-4.4895,-4.4895,-4.4802,-4.4725,-4.4725,-4.4605,-4.4542,-4.4528,-4.4528,-4.4411,-4.414,-4.3889,-4.3761,-4.3761,-4.3744,-4.3728,-4.3728,-4.3712,-4.3562,-4.3338,-4.3338,-4.3196,-4.2976,-4.2976,-4.2957,-4.2939,-4.2939,-4.292,-4.2901,-4.2901,-4.2901,-4.2901,-4.2901,-4.2901,-4.2901,-4.2901,-4.2901,-4.2901,-4.2901,-4.2901,-4.2755,-4.2012,-4.1759,-4.1379,-3.9894,-3.9441,-3.9206,-3.8408,-3.8209,-3.8209,-3.8209,-3.8209,-3.8209,-3.8209,-3.8209,-3.8209,-3.8209,-3.7538,-3.6995,-3.6995,-3.5711,-3.4679,-3.4624,-3.3973,-3.3484,-3.3411,-3.3393,-3.3393,-3.3393,-3.3393,-3.3393,-3.3393,-3.3393,-3.3755,-3.457,-3.4663,-3.5403,-3.6941,-3.7067,-3.7466,-3.8191,-3.8209,-3.8209,-3.8209,-3.8209,-3.8209,-3.8209,-3.8209,-3.8209,-3.8209,-3.8209,-3.8209,-3.8209,-3.8209,-3.8209,-3.8209,-3.8209,-3.8209,-3.8209,-3.8209,-3.8209,-3.8209,-4.5307,-4.5307,-4.5307,-4.5307,-4.5286,-4.5265,-4.5265,-4.5224,-4.5203,-4.5203,-4.5125,-4.5068,-4.5068,-4.4955,-4.4895,-4.4895,-4.487,-4.4846,-4.4846,-4.4821,-4.4776,-4.4659,-4.4659,-4.4592,-4.4411,-4.4368,-4.434,-4.434,-4.4124,-4.4014,-4.3999,-4.3793,-4.3662,-4.3612,-4.3612,-4.3579,-4.3528,-4.3528,-4.3408,-4.3214,-4.3214,-4.3105,-4.2901,-4.2901,-4.2901,-4.2901,-4.2901,-4.2901,-4.2901,-4.2901,-4.2901,-4.2901,-4.2901,-4.2901,-4.2883,-4.2683,-4.2194,-4.1488,-4.051,-3.984,-3.9206,-3.8408,-3.8209,-3.8209,-3.8209,-3.8209,-3.8209,-3.8209,-3.8209,-3.8209,-3.8209,-3.7538,-3.6995,-3.6995,-3.6182,-3.5315,-3.4682,-3.4461,-3.4117,-3.3465,-3.3393,-3.3393,-3.3393,-3.3393,-3.3393,-3.3393,-3.3393,-3.3755,-3.457,-3.5188,-3.6001,-3.6977,-3.7611,-3.8028,-3.8209,-3.8209,-3.8209,-3.8209,-3.8209,-3.8209,-3.8209,-3.8209,-3.8209,-3.8209,-3.8209,-3.8209,-3.8209,-3.8209,-3.8209,-3.8209,-3.8209,-3.8209,-3.8209,-3.8209,-3.8209,-3.8209,-4.5307,-4.5307,-4.5307,-4.5307,-4.5307,-4.5307,-4.5307,-4.5307,-4.5307,-4.5307,-4.5235,-4.5192,-4.5192,-4.5136,-4.5091,-4.5091,-4.5026,-4.501,-4.501,-4.495,-4.4858,-4.4815,-4.4802,-4.4719,-4.4592,-4.4592,-4.4565,-4.4501,-4.4368,-4.4292,-4.4292,-4.414,-4.4017,-4.3889,-4.3889,-4.3825,-4.3695,-4.3695,-4.3612,-4.3494,-4.3494,-4.3408,-4.3285,-4.3285,-4.3285,-4.3285,-4.3285,-4.332,-4.3354,-4.316,-4.3123,-4.3141,-4.2976,-4.2901,-4.2901,-4.2901,-4.2592,-4.2103,-4.1288,-4.0599,-3.9905,-3.8987,-3.8564,-3.8322,-3.8207,-3.8209,-3.8209,-3.8209,-3.8209,-3.8209,-3.8209,-3.7865,-3.7575,-3.7575,-3.6888,-3.6236,-3.5802,-3.5077,-3.4443,-3.4027,-3.3628,-3.3393,-3.3393,-3.3393,-3.3556,-3.3954,-3.3973,-3.4498,-3.5675,-3.6146,-3.6743,-3.7557,-3.7991,-3.8209,-3.8209,-3.8209,-3.8209,-3.8209,-3.8209,-3.8209,-3.8209,-3.8209,-3.8209,-3.8209,-3.8209,-3.8209,-3.8209,-3.8209,-3.8209,-3.8209,-3.8209,-3.8209,-3.8209,-3.8209,-3.8209,-3.8209,-4.5307,-4.5307,-4.5307,-4.5307,-4.5307,-4.5307,-4.5307,-4.5307,-4.5307,-4.5307,-4.5307,-4.5307,-4.5307,-4.5307,-4.5307,-4.5307,-4.5192,-4.5136,-4.5136,-4.5026,-4.4955,-4.495,-4.4931,-4.487,-4.4751,-4.4719,-4.4659,-4.4501,-4.4501,-4.4501,-4.4501,-4.4501,-4.4383,-4.417,-4.417,-4.403,-4.3844,-4.3844,-4.3809,-4.3761,-4.3793,-4.3761,-4.3695,-4.3742,-4.3742,-4.3744,-4.3758,-4.3836,-4.3878,-4.3559,-4.3507,-4.3537,-4.3213,-4.3105,-4.3105,-4.3105,-4.3014,-4.2705,-4.1922,-4.1258,-4.0569,-3.9621,-3.8988,-3.8585,-3.8417,-3.8272,-3.8209,-3.8209,-3.8209,-3.8225,-3.8241,-3.8257,-3.8257,-3.8257,-3.7695,-3.7189,-3.7013,-3.5885,-3.4996,-3.4824,-3.4099,-3.3571,-3.3441,-3.3549,-3.3897,-3.4567,-3.4733,-3.5457,-3.6922,-3.6995,-3.7375,-3.8172,-3.8209,-3.8209,-3.8209,-3.8209,-3.8209,-3.8209,-3.8209,-3.8209,-3.8209,-3.8209,-3.8209,-3.8209,-3.8209,-3.8209,-3.8209,-3.8209,-3.8209,-3.8209,-3.8209,-3.8209,-3.8209,-3.8209,-3.8209,-3.8209,-4.5307,-4.5307,-4.5307,-4.5307,-4.5307,-4.5307,-4.5307,-4.5307,-4.5307,-4.5307,-4.5307,-4.5307,-4.5307,-4.5307,-4.5307,-4.5307,-4.5286,-4.5275,-4.5275,-4.5265,-4.5192,-4.508,-4.5061,-4.5003,-4.4889,-4.487,-4.4764,-4.4501,-4.4501,-4.4501,-4.4501,-4.4501,-4.4487,-4.444,-4.444,-4.4426,-4.4397,-4.4397,-4.4262,-4.406,-4.4177,-4.4011,-4.3728,-4.3955,-4.3971,-4.3881,-4.3998,-4.4058,-4.4054,-4.4013,-4.3994,-4.4009,-4.3949,-4.3933,-4.3933,-4.3933,-4.3453,-4.2728,-4.1924,-4.1101,-4.0268,-3.943,-3.9165,-3.9099,-3.9058,-3.8628,-3.8209,-3.8209,-3.8209,-3.8257,-3.8433,-3.8462,-3.8462,-3.8462,-3.8371,-3.7981,-3.7118,-3.6968,-3.6614,-3.5745,-3.4978,-3.4273,-3.3636,-3.4142,-3.457,-3.4679,-3.5289,-3.6037,-3.6941,-3.6995,-3.7375,-3.8172,-3.8209,-3.8209,-3.8209,-3.8209,-3.8209,-3.8209,-3.8209,-3.8209,-3.8209,-3.8209,-3.8209,-3.8209,-3.8209,-3.8209,-3.8209,-3.8209,-3.8209,-3.8209,-3.8209,-3.8209,-3.8209,-3.8209,-3.8209,-3.8209,-4.5307,-4.5307,-4.5307,-4.5307,-4.5307,-4.5307,-4.5307,-4.5307,-4.5307,-4.5307,-4.5307,-4.5307,-4.5307,-4.5307,-4.5307,-4.5307,-4.5307,-4.5307,-4.5307,-4.5307,-4.5256,-4.5213,-4.5203,-4.5148,-4.5003,-4.5003,-4.4907,-4.4706,-4.4706,-4.4706,-4.4706,-4.4706,-4.4706,-4.4706,-4.4706,-4.4706,-4.4706,-4.4706,-4.4667,-4.4549,-4.4616,-4.4535,-4.4379,-4.4498,-4.4511,-4.4476,-4.4525,-4.4604,-4.4612,-4.4406,-4.4359,-4.4387,-4.4175,-4.4098,-4.4098,-4.4098,-4.3841,-4.3393,-4.259,-4.1833,-4.1063,-4.0101,-3.9657,-3.9383,-3.9231,-3.8966,-3.8744,-3.8655,-3.8715,-3.8755,-3.8789,-3.8843,-3.8882,-3.8882,-3.8882,-3.8742,-3.829,-3.7914,-3.7364,-3.6454,-3.566,-3.5217,-3.5264,-3.5174,-3.5455,-3.6303,-3.6681,-3.7216,-3.8007,-3.8059,-3.8208,-3.8575,-3.8593,-3.853,-3.8368,-3.8368,-3.8305,-3.8209,-3.8209,-3.8209,-3.8209,-3.8209,-3.8209,-3.8209,-3.8209,-3.8209,-3.8209,-3.8209,-3.8209,-3.8209,-3.8209,-3.8209,-3.8209,-3.8209,-3.8209,-3.8209]},{"header":{"parameterUnit":"m.s-1","parameterCategory":1,"la1":30.6,"la2":28.766,"lo1":-90.7593,"lo2":-88.6598,"dy":0.0162,"dx":0.0183,"nx":116,"ny":114,"refTime":"2024-06-05T06:00:00:Z","depth":0,"parameterNumber":3,"parameterNumberName":"V-component_of_WINDS"},"data":[0.0,0.0,0.0,0.0,0.0,0.0,0.0,0.0,0.0,0.0,0.0,0.0,0.0,0.0,0.0,0.0,0.0,0.0,0.0,0.0,0.0,0.0,0.0,0.0,0.0,0.0,0.0,0.0,0.0,0.0,0.0,0.0,0.0,0.0,0.0,0.0,0.0,0.0,0.0,0.0,0.0,0.0,0.0,0.0,0.0,0.0,0.0,0.0,0.0,0.0,0.0,0.0,0.0,0.0,0.0,0.0,0.0,0.0,0.0,0.0,0.0,0.0,0.0,0.0,0.0,0.0,0.0,0.0,0.0,0.0,0.0,0.0,0.0,0.0,0.0,0.0,0.0,0.0,0.0,0.0,0.0,0.0,0.0,0.0,0.0,0.0,0.0,0.0,0.0,0.0,0.0,0.0,0.0,0.0,0.0,0.0,0.0,0.0,0.0,0.0,0.0,0.0,0.0,0.0,0.0,0.0,0.0,0.0,0.0,0.0,0.0,0.0,0.0,0.0,0.0,0.0,0.0,0.0,0.0,0.0,0.0,0.0,0.0,0.0,0.0,0.0,0.0,0.0,0.0,0.0,0.0,0.0,0.0,0.0,0.0,0.0,0.0,0.0,0.0,0.0,0.0,0.0,0.0,0.0,0.0,0.0,0.0,0.0,0.0,0.0,0.0,0.0,0.0,0.0,0.0,0.0,0.0,0.0,0.0,0.0,0.0,0.0,0.0,0.0,0.0,0.0,0.0,0.0,0.0,0.0,0.0,0.0,0.0,0.0,0.0,0.0,0.0,0.0,0.0,0.0,0.0,0.0,0.0,0.0,0.0,0.0,0.0,0.0,0.0,0.0,0.0,0.0,0.0,0.0,0.0,0.0,0.0,0.0,0.0,0.0,0.0,0.0,0.0,0.0,0.0,0.0,0.0,0.0,0.0,0.0,0.0,0.0,0.0,0.0,0.0,0.0,0.0,0.0,0.0,0.0,0.0,0.0,0.0,0.0,0.0,0.0,0.0,0.0,0.0,0.0,0.0,0.0,0.0,0.0,0.0,0.0,0.0,0.0,0.0,0.0,0.0,0.0,0.0,0.0,0.0,0.0,0.0,0.0,0.0,0.0,0.0,0.0,0.0,0.0,0.0,0.0,0.0,0.0,0.0,0.0,0.0,0.0,0.0,0.0,0.0,0.0,0.0,0.0,0.0,0.0,0.0,0.0,0.0,0.0,0.0,0.0,0.0,0.0,0.0,0.0,0.0,0.0,0.0,0.0,0.0,0.0,0.0,0.0,0.0,0.0,0.0,0.0,0.0,0.0,0.0,0.0,0.0,0.0,0.0,0.0,0.0,0.0,0.0,0.0,0.0,0.0,0.0,0.0,0.0,0.0,0.0,0.0,0.0,0.0,0.0,0.0,0.0,0.0,0.0,0.0,0.0,0.0,0.0,0.0,0.0,0.0,0.0,0.0,0.0,0.0,0.0,0.0,0.0,0.0,0.0,0.0,0.0,0.0,0.0,0.0,0.0,0.0,0.0,0.0,0.0,0.0,0.0,0.0,0.0,0.0,0.0,0.0,0.0,0.0,0.0,0.0,0.0,0.0,0.0,0.0,0.0,0.0,0.0,0.0,0.0,0.0,0.0,0.0,0.0,0.0,0.0,0.0,0.0,0.0,0.0,0.0,0.0,0.0,0.0,0.0,0.0,0.0,0.0,0.0,0.0,0.0,0.0,0.0,0.0,0.0,0.0,0.0,0.0,0.0,0.0,0.0,0.0,0.0,0.0,0.0,0.0,0.0,0.0,0.0,0.0,0.0,0.0,0.0,0.0,0.0,0.0,0.0,0.0,0.0,0.0,0.0,0.0,0.0,0.0,0.0,0.0,0.0,0.0,0.0,0.0,0.0,0.0,0.0,0.0,0.0,0.0,0.0,0.0,0.0,0.0,0.0,0.0,0.0,0.0,0.0,0.0,0.0,0.0,0.0,0.0,0.0,0.0,0.0,0.0,0.0,0.0,0.0,0.0,0.0,0.0,0.0,0.0,0.0,0.0,0.0,0.0,0.0,0.0,0.0,0.0,0.0,0.0,0.0,0.0,0.0,0.0,0.0,0.0,0.0,0.0,0.0,0.0,0.0,0.0,0.0,0.0,0.0,0.0,0.0,0.0,0.0,0.0,0.0,0.0,0.0,0.0,0.0,0.0,0.0,0.0,0.0,0.0,0.0,0.0,0.0,0.0,0.0,0.0,0.0,0.0,0.0,0.0,0.0,0.0,0.0,0.0,0.0,0.0,0.0,0.0,0.0,0.0,0.0,0.0,0.0,0.0,0.0,0.0,0.0,0.0,0.0,0.0,0.0,0.0,0.0,0.0,0.0,0.0,0.0,0.0,0.0,0.0,0.0,0.0,0.0,0.0,0.0,0.0,0.0,0.0,0.0,0.0,0.0,0.0,0.0,0.0,0.0,0.0,0.0,0.0,0.0,0.0,0.0,0.0,0.0,0.0,0.0,0.0,0.0,0.0,0.0,0.0,0.0,0.0,0.0,0.0,0.0,0.0,0.0,0.0,0.0,0.0,0.0,0.0,0.0,0.0,0.0,0.0,0.0,0.0,0.0,0.0,0.0,0.0,0.0,0.0,0.0,0.0,0.0,0.0,0.0,0.0,0.0,0.0,0.0,0.0,0.0,0.0,0.0,0.0,0.0,0.0,0.0,0.0,0.0,0.0,0.0,0.0,0.0,0.0,0.0,0.0,0.0,0.0,0.0,0.0,0.0,0.0,0.0,0.0,0.0,0.0,0.0,0.0,0.0,0.0,0.0,0.0,0.0,0.0,0.0,0.0,0.0,0.0,0.0,0.0,0.0,0.0,0.0,0.0,0.0,0.0,0.0,0.0,0.0,0.0,0.0,0.0,0.0,0.0,0.0,0.0,0.0,0.0,0.0,0.0,0.0,0.0,0.0,0.0,0.0,0.0,0.0,0.0,0.0,0.0,0.0,0.0,0.0,0.0,0.0,0.0,0.0,0.0,0.0,0.0,0.0,0.0,0.0,0.0,0.0,0.0,0.0,0.0,0.0,0.0,0.0,0.0,0.0,0.0,0.0,0.0,0.0,0.0,0.0,0.0,0.0,0.0,0.0,0.0,0.0,0.0,0.0,0.0,0.0,0.0,0.0,0.0,0.0,0.0,0.0,0.0,0.0,0.0,0.0,0.0,0.0,0.0,0.0,0.0,0.0,0.0,0.0,0.0,0.0,0.0,0.0,0.0,0.0,0.0,0.0,0.0,0.0,0.0,0.0,0.0,0.0,0.0,0.0,0.0,0.0,0.0,0.0,0.0,0.0,0.0,0.0,0.0,0.0,0.0,0.0,0.0,0.0,0.0,0.0,0.0,0.0,0.0,0.0,0.0,0.0,0.0,0.0,0.0,0.0,0.0,0.0,0.0,0.0,0.0,0.0,0.0,0.0,0.0,0.0,0.0,0.0,0.0,0.0,0.0,0.0,0.0,0.0,0.0,0.0,0.0,0.0,0.0,0.0,0.0,0.0,0.0,0.0,0.0,0.0,0.0,0.0,0.0,0.0,0.0,0.0,0.0,0.0,0.0,0.0,0.0,0.0,0.0,0.0,0.0,0.0,0.0,0.0,0.0,0.0,0.0,0.0,0.0,0.0,0.0,0.0,0.0,0.0,0.0,0.0,0.0,0.0,0.0,0.0,0.0,0.0,0.0,0.0,0.0,0.0,0.0,0.0,0.0,0.0,0.0,0.0,0.0,0.0,0.0,0.0,0.0,0.0,0.0,0.0,0.0,0.0,0.0,0.0,0.0,0.0,0.0,0.0,0.0,0.0,0.0,0.0,0.0,0.0,0.0,0.0,0.0,0.0,0.0,0.0,0.0,0.0,0.0,0.0,0.0,0.0,0.0,0.0,0.0,0.0,0.0,0.0,0.0,0.0,0.0,0.0,0.0,0.0,0.0,0.0,0.0,0.0,0.0,0.0,0.0,0.0,0.0,0.0,0.0,0.0,0.0,0.0,0.0,0.0,0.0,0.0,0.0,0.0,0.0,0.0,0.0,0.0,0.0,0.0,0.0,0.0,0.0,0.0,0.0,0.0,0.0,0.0,0.0,0.0,0.0,0.0,0.0,0.0,0.0,0.0,0.0,0.0,0.0,0.0,0.0,0.0,0.0,0.0,0.0,0.0,0.0,0.0,0.0,0.0,0.0,0.0,0.0,0.0,0.0,0.0,0.0,0.0,0.0,0.0,0.0,0.0,0.0,0.0,0.0,0.0,0.0,0.0,0.0,0.0,0.0,0.0,0.0,0.0,0.0,0.0,0.0,0.0,0.0,0.0,0.0,0.0,0.0,0.0,0.0,0.0,0.0,0.0,0.0,0.0,0.0,0.0,0.0,0.0,0.0,0.0,0.0,0.0,0.0,0.0,0.0,0.0,0.0,0.0,0.0,0.0,0.0,0.0,0.0,0.0,0.0,0.0,0.0,0.0,0.0,0.0,0.0,0.0,0.0,0.0,0.0,0.0,0.0,0.0,0.0,0.0,0.0,0.0,0.0,0.0,0.0,0.0,0.0,0.0,0.0,0.0,0.0,0.0,0.0,0.0,0.0,0.0,0.0,0.0,0.0,0.0,0.0,0.0,0.0,0.0,0.0,0.0,0.0,0.0,0.0,0.0,0.0,0.0,0.0,0.0,0.0,0.0,0.0,0.0,0.0,0.0,0.0,0.0,0.0,0.0,0.0,0.0,0.0,0.0,0.0,0.0,0.0,0.0,0.0,0.0,0.0,0.0,0.0,0.0,0.0,0.0,0.0,0.0,0.0,0.0,0.0,0.0,0.0,0.0,0.0,0.0,0.0,0.0,0.0,0.0,0.0,0.0,0.0,0.0,0.0,0.0,0.0,0.0,0.0,0.0,0.0,0.0,0.0,0.0,0.0,0.0,0.0,0.0,0.0,0.0,0.0,0.0,0.0,0.0,0.0,0.0,0.0,0.0,0.0,0.0,0.0,0.0,0.0,0.0,0.0,0.0,0.0,0.0,0.0,0.0,0.0,0.0,0.0,0.0,0.0,0.0,0.0,0.0,0.0,0.0,0.0,0.0,0.0,0.0,0.0,0.0,0.0,0.0,0.0,0.0,0.0,0.0,0.0,0.0,0.0,0.0,0.0,0.0,0.0,0.0,0.0,0.0,0.0,0.0,0.0,0.0,0.0,0.0,0.0,0.0,0.0,0.0,0.0,0.0,0.0,0.0,0.0,0.0,0.0,0.0,0.0,0.0,0.0,0.0,0.0,0.0,0.0,0.0,0.0,0.0,0.0,0.0,0.0,0.0,0.0,0.0,0.0,0.0,0.0,0.0,0.0,0.0,0.0,0.0,0.0,0.0,0.0,0.0,0.0,0.0,0.0,0.0,0.0,0.0,0.0,0.0,0.0,0.0,0.0,0.0,0.0,0.0,0.0,0.0,0.0,0.0,0.0,0.0,0.0,0.0,0.0,0.0,0.0,0.0,0.0,0.0,0.0,0.0,0.0,0.0,0.0,0.0,0.0,0.0,0.0,0.0,0.0,0.0,0.0,0.0,0.0,0.0,0.0,0.0,0.0,0.0,0.0,0.0,0.0,0.0,0.0,0.0,0.0,0.0,0.0,0.0,0.0,0.0,0.0,0.0,0.0,0.0,0.0,0.0,0.0,0.0,0.0,0.0,0.0,0.0,0.0,0.0,0.0,0.0,0.0,0.0,0.0,0.0,0.0,0.0,0.0,0.0,0.0,0.0,0.0,0.0,0.0,0.0,0.0,0.0,0.0,0.0,0.0,0.0,0.0,0.0,0.0,0.0,0.0,0.0,0.0,0.0,0.0,0.0,0.0,0.0,0.0,0.0,0.0,0.0,0.0,0.0,0.0,0.0,0.0,0.0,0.0,0.0,0.0,0.0,0.0,0.0,0.0,0.0,0.0,0.0,0.0,0.0,0.0,0.0,0.0,0.0,0.0,0.0,0.0,0.0,0.0,0.0,0.0,0.0,0.0,0.0,0.0,0.0,0.0,0.0,0.0,0.0,0.0,0.0,0.0,0.0,0.0,0.0,0.0,0.0,0.0,0.0,0.0,0.0,0.0,0.0,-1.8429,0.0,0.0,0.0,0.0,0.0,0.0,0.0,0.0,0.0,0.0,0.0,0.0,0.0,0.0,0.0,0.0,0.0,0.0,0.0,0.0,0.0,0.0,0.0,0.0,-1.1551,-1.1906,-1.219,-1.1725,-1.15,-1.1719,0.0,0.0,0.0,0.0,0.0,-1.0272,-1.0272,-1.0401,-1.0678,-1.0678,-1.095,-1.15,-1.1583,-1.1179,-1.0371,0.0,0.0,0.0,0.0,0.0,0.0,0.0,0.0,0.0,0.0,0.0,0.0,0.0,0.0,0.0,0.0,0.0,0.0,0.0,0.0,0.0,0.0,0.0,0.0,0.0,0.0,0.0,0.0,0.0,0.0,0.0,0.0,0.0,0.0,0.0,0.0,0.0,0.0,0.0,0.0,0.0,0.0,0.0,0.0,0.0,0.0,0.0,0.0,0.0,0.0,0.0,0.0,0.0,0.0,0.0,0.0,0.0,0.0,0.0,0.0,0.0,0.0,0.0,0.0,0.0,0.0,0.0,0.0,0.0,0.0,0.0,-1.9628,0.0,0.0,0.0,0.0,0.0,0.0,0.0,0.0,0.0,0.0,0.0,0.0,0.0,0.0,0.0,0.0,0.0,0.0,0.0,0.0,0.0,-1.0539,-1.2042,-1.2399,-1.2698,-1.3163,-1.2795,-1.2542,-1.257,-1.1937,0.0,0.0,0.0,-1.1123,-1.1069,-1.099,-1.1132,-1.1547,-1.1828,-1.2377,-1.3211,-1.3789,-1.3159,-1.1507,-1.0866,0.0,0.0,0.0,0.0,0.0,0.0,0.0,0.0,0.0,0.0,0.0,0.0,0.0,0.0,0.0,0.0,0.0,0.0,0.0,0.0,0.0,0.0,0.0,0.0,0.0,0.0,0.0,0.0,0.0,0.0,0.0,0.0,0.0,0.0,0.0,0.0,0.0,0.0,0.0,0.0,0.0,0.0,0.0,0.0,0.0,0.0,0.0,0.0,0.0,0.0,0.0,0.0,0.0,0.0,0.0,0.0,0.0,0.0,0.0,0.0,0.0,0.0,0.0,0.0,-2.4042,-2.4725,-2.4661,-2.4891,-2.5188,-2.3079,-2.2162,-2.2053,0.0,0.0,0.0,0.0,0.0,0.0,0.0,0.0,0.0,0.0,0.0,0.0,0.0,0.0,0.0,0.0,0.0,0.0,0.0,0.0,-1.1469,-1.1826,-1.2759,-1.3419,-1.3607,-1.3561,-1.3663,-1.4009,-1.2867,0.0,0.0,-1.2015,-1.1456,-1.1685,-1.129,-1.1547,-1.2507,-1.39,-1.4972,-1.5614,-1.521,-1.4968,-1.4806,-1.3291,-1.2774,-1.2971,0.0,0.0,0.0,0.0,0.0,0.0,0.0,0.0,0.0,0.0,0.0,0.0,0.0,0.0,0.0,0.0,0.0,0.0,0.0,0.0,0.0,0.0,0.0,0.0,0.0,0.0,0.0,0.0,0.0,0.0,0.0,0.0,0.0,0.0,0.0,0.0,0.0,0.0,0.0,0.0,0.0,-1.459,-1.5343,0.0,0.0,0.0,0.0,0.0,0.0,0.0,0.0,0.0,0.0,0.0,0.0,0.0,0.0,-2.2926,-2.4308,-2.519,-2.5617,-2.6279,-2.6674,-2.6765,-2.6426,-2.6674,-2.739,-2.6664,0.0,-2.3816,-2.2922,0.0,0.0,0.0,0.0,0.0,0.0,0.0,0.0,0.0,0.0,0.0,0.0,0.0,0.0,0.0,0.0,0.0,0.0,0.0,0.0,0.0,-1.4631,-1.5489,-1.5549,-1.6138,-1.6173,-1.5358,-1.4803,-1.4316,-1.3921,-1.3308,-1.2818,-1.2487,-1.272,-1.3358,-1.4389,-1.6001,-1.6868,-1.7072,-1.7243,-1.7348,-1.7324,-1.6437,-1.5221,-1.375,-1.2458,0.0,0.0,0.0,0.0,0.0,0.0,0.0,0.0,0.0,0.0,0.0,0.0,0.0,0.0,0.0,0.0,0.0,0.0,0.0,0.0,0.0,0.0,0.0,0.0,0.0,0.0,0.0,0.0,0.0,0.0,0.0,0.0,0.0,0.0,0.0,0.0,0.0,0.0,0.0,-1.405,-1.5257,-1.5975,-1.6148,-1.6088,0.0,0.0,0.0,0.0,0.0,0.0,0.0,0.0,0.0,-2.1841,-2.29,-2.3821,-2.4703,-2.5883,-2.6765,-2.7334,-2.7691,-2.7976,-2.8187,-2.8012,-2.8122,-2.8434,-2.8269,-2.7563,-2.6435,-2.517,-2.3785,-2.2355,0.0,0.0,0.0,0.0,0.0,-2.264,0.0,0.0,0.0,0.0,0.0,0.0,0.0,0.0,0.0,0.0,0.0,0.0,-1.4943,-1.6237,-1.7134,-1.7458,-1.8233,-1.8139,-1.6787,-1.6374,-1.577,-1.4851,-1.4451,-1.3984,-1.3417,-1.4187,-1.515,-1.6312,-1.7734,-1.8455,-1.8502,-1.9069,-1.9268,-1.9147,-1.8894,-1.7468,-1.5127,-1.3816,-1.2997,-1.2378,0.0,0.0,0.0,0.0,0.0,0.0,0.0,0.0,0.0,0.0,0.0,0.0,0.0,0.0,0.0,0.0,0.0,0.0,0.0,0.0,0.0,0.0,0.0,0.0,0.0,0.0,0.0,0.0,0.0,0.0,0.0,0.0,0.0,0.0,0.0,0.0,0.0,-1.5095,-1.6214,-1.706,-1.7552,-1.7638,0.0,0.0,0.0,0.0,0.0,0.0,-2.1525,-2.2218,-2.2912,-2.3665,-2.493,-2.5741,-2.6187,-2.7153,-2.7948,-2.8544,-2.8544,-2.8755,-2.9131,-2.903,-2.9039,-2.9131,-2.9021,-2.8819,-2.8434,-2.7068,-2.5592,-2.4231,-2.3828,-2.3242,-2.2796,-2.3973,-2.4685,-2.5201,0.0,0.0,0.0,0.0,0.0,0.0,0.0,0.0,0.0,0.0,0.0,-1.4516,-1.6301,-1.6787,-1.7482,-1.8698,-1.8752,-1.8609,0.0,-1.6942,-1.6209,-1.6466,-1.5094,-1.437,-1.4518,-1.5254,-1.6401,-1.7962,-1.8834,-1.9641,-2.0351,-2.0196,-2.0138,-2.0138,-1.9909,-1.9212,-1.8057,-1.6368,-1.5206,-1.4375,-1.2438,0.0,0.0,0.0,0.0,0.0,0.0,0.0,0.0,0.0,0.0,0.0,0.0,0.0,0.0,0.0,0.0,0.0,0.0,0.0,0.0,0.0,0.0,0.0,0.0,0.0,0.0,0.0,0.0,0.0,0.0,0.0,0.0,0.0,0.0,0.0,0.0,0.0,0.0,-1.9392,-1.9898,0.0,0.0,0.0,0.0,-2.0651,-2.1405,-2.2338,-2.3502,-2.3922,-2.447,-2.5232,-2.6272,-2.7013,-2.7395,-2.8387,-2.8911,-2.8948,-2.8948,-2.9159,-2.9586,-2.9149,-2.9186,-2.9525,-2.914,-2.8975,-2.8883,-2.8088,-2.7187,-2.6389,-2.6021,-2.5607,-2.5286,-2.6024,-2.6464,-2.6759,0.0,0.0,0.0,0.0,0.0,-1.0073,-1.1005,-1.1405,-1.2118,-1.3589,-1.4532,-1.5578,-1.6963,-1.8473,-1.9556,-2.0035,-2.0638,-2.0474,-1.9236,-1.8288,-1.7726,-1.764,-1.6775,-1.6556,-1.7143,-1.7093,-1.764,-1.888,-1.9943,-2.0613,-2.0906,-2.1094,-2.1178,-2.1178,-2.0959,-2.0522,-1.9811,-1.7684,-1.6232,-1.524,-1.3339,-1.2097,0.0,0.0,0.0,0.0,0.0,0.0,0.0,0.0,0.0,0.0,0.0,0.0,0.0,0.0,0.0,0.0,0.0,0.0,0.0,0.0,0.0,0.0,0.0,0.0,0.0,0.0,0.0,0.0,0.0,0.0,0.0,0.0,0.0,0.0,0.0,0.0,0.0,-2.0677,-2.1362,0.0,-2.1559,-2.1773,-2.2124,-2.268,-2.3383,-2.4205,-2.5095,-2.5489,-2.6033,-2.6717,-2.7296,-2.7792,-2.8122,-2.8733,-2.8984,-2.8984,-2.8984,-2.9058,-2.9186,-2.9048,-2.9058,-2.9186,-2.9039,-2.8984,-2.8966,-2.8673,-2.8232,-2.7737,-2.7581,-2.727,-2.7041,-2.7622,-2.8115,-2.8482,0.0,0.0,0.0,0.0,-0.9725,-1.0282,-1.1439,-1.1738,-1.247,-1.4148,-1.5475,-1.6782,-1.8077,-1.9862,-2.1119,-2.1496,-2.1832,-2.1484,-2.0207,-1.9203,-1.8559,-1.8269,-1.8001,-1.821,-1.8993,-1.8744,-1.9052,-1.9916,-2.0714,-2.1181,-2.1328,-2.1559,-2.1696,-2.1687,-2.1562,-2.1328,-2.0887,-1.919,-1.7711,-1.6342,-1.4792,-1.3656,-1.284,0.0,0.0,0.0,0.0,0.0,0.0,0.0,0.0,0.0,0.0,0.0,0.0,0.0,0.0,0.0,0.0,0.0,0.0,0.0,0.0,0.0,0.0,0.0,0.0,0.0,0.0,0.0,0.0,0.0,0.0,0.0,0.0,0.0,0.0,0.0,-2.072,-2.185,-2.2655,-2.3117,-2.3117,-2.358,-2.4033,-2.4401,-2.5018,-2.566,-2.6285,-2.6551,-2.703,-2.7713,-2.8025,-2.8407,-2.8913,-2.9216,-2.9397,-2.9397,-2.9397,-2.9397,-2.9397,-2.9397,-2.9397,-2.9388,-2.9241,-2.9177,-2.9168,-2.9039,-2.8828,-2.859,-2.859,-2.8425,-2.8235,-2.8639,-2.9086,-2.9612,0.0,0.0,0.0,-0.9489,-0.9724,-1.0307,-1.1439,-1.2077,-1.3019,-1.4683,-1.6367,-1.8039,-1.9623,-2.0828,-2.1945,-2.3007,-2.2121,-2.1437,-2.1309,-1.9597,-1.8583,-1.8482,-1.8674,-1.9122,-1.9875,-2.0115,-2.0526,-2.1108,-2.1117,-2.1337,-2.1696,-2.1696,-2.1696,-2.1696,-2.1696,-2.1607,-2.1365,-2.0968,-1.9695,-1.7796,-1.6816,-1.5961,-1.5086,0.0,0.0,0.0,0.0,0.0,0.0,0.0,0.0,0.0,0.0,0.0,0.0,0.0,0.0,0.0,0.0,0.0,0.0,0.0,0.0,0.0,0.0,0.0,0.0,0.0,0.0,0.0,0.0,0.0,0.0,0.0,0.0,0.0,-1.9282,-2.0549,-2.1919,-2.3049,-2.3845,-2.4307,-2.427,-2.4992,-2.5574,-2.5885,-2.6302,-2.6679,-2.7073,-2.709,-2.7444,-2.8123,-2.843,-2.8976,-2.9742,-3.0071,-3.0204,-3.0204,-3.0204,-3.0204,-3.0204,-3.0204,-3.0204,-3.0176,-2.9773,-2.9589,-2.9562,-2.9168,-2.9003,-2.9003,-2.8984,-2.8984,-2.8984,-2.9044,-2.939,-3.0049,0.0,0.0,-0.9422,-0.9182,-0.9883,-1.0733,-1.149,-1.2391,-1.3441,-1.4733,-1.6706,-1.8442,-1.9673,-2.1167,-2.2372,-2.3045,-2.2121,-2.1437,-2.1309,-1.9702,-1.9151,-2.0098,-2.0478,-2.1009,-2.1743,-2.1213,-2.1091,-2.1376,-2.1507,-2.1577,-2.1696,-2.1696,-2.1696,-2.1696,-2.1696,-2.1651,-2.1597,-2.1355,-2.0675,-1.96,-1.8053,-1.6974,-1.6165,0.0,0.0,0.0,0.0,0.0,0.0,0.0,0.0,0.0,0.0,0.0,0.0,0.0,0.0,0.0,0.0,0.0,0.0,0.0,0.0,0.0,0.0,0.0,0.0,0.0,0.0,0.0,0.0,0.0,0.0,0.0,0.0,-2.0497,-2.0754,-2.2329,-2.3776,-2.465,-2.5412,-2.5977,-2.6268,-2.6482,-2.6653,-2.6756,-2.6859,-2.7073,-2.7441,-2.7458,-2.7885,-2.8897,-2.8968,-2.9395,-3.0071,-3.0133,-3.0204,-3.0204,-3.0204,-3.0204,-3.0204,-3.0204,-3.0204,-3.0195,-3.0075,-3.003,-2.9993,-2.958,-2.9415,-2.9379,-2.9094,-2.8984,-2.9044,-2.9518,-3.0049,-3.0645,0.0,-0.8855,-0.9195,-0.8894,-0.9753,-1.0696,-1.1295,-1.2489,-1.3704,-1.4751,-1.7024,-1.8757,-1.9409,-2.0966,-2.2096,-2.2393,-2.1857,-2.1265,-2.0719,-1.9548,-1.9742,-2.1632,-2.1688,-2.2067,-2.2902,-2.228,-2.1826,-2.1593,-2.1656,-2.1696,-2.1696,-2.1696,-2.1696,-2.1696,-2.1696,-2.1696,-2.1696,-2.1562,-2.1257,-2.0774,-1.9441,-1.8469,-1.7635,-1.6724,-1.6165,-1.5798,-1.506,-1.4701,-1.4478,-1.3939,0.0,0.0,0.0,0.0,0.0,0.0,0.0,0.0,0.0,0.0,0.0,0.0,0.0,0.0,0.0,0.0,0.0,0.0,0.0,0.0,0.0,0.0,0.0,0.0,-2.1045,-2.2227,-2.2766,-2.3785,-2.4812,-2.5729,-2.6217,-2.6645,-2.7039,-2.7073,-2.7073,-2.7073,-2.7218,-2.739,-2.7595,-2.7882,-2.8523,-2.9421,-2.9573,-3.0023,-3.069,-3.069,-3.069,-3.069,-3.069,-3.069,-3.069,-3.069,-3.069,0.0,-3.0516,-3.0442,-3.0415,-3.0002,-2.9727,0.0,0.0,0.0,0.0,0.0,-3.0225,-3.0704,0.0,-0.877,-0.8903,-0.8708,-0.958,-1.0504,-1.1094,-1.2527,-1.3894,-1.4782,-1.7187,-1.8845,-1.8907,-2.0413,-2.1393,-2.1393,-2.1455,-2.1091,0.0,0.0,-2.0594,-2.3095,-2.2576,-2.2676,-2.3665,-2.3184,-2.2562,-2.1776,-2.1741,-2.1696,-2.1696,-2.1696,-2.1696,-2.1696,-2.1696,-2.1651,-2.1651,-2.1642,-2.1517,-2.1275,-2.074,-2.0009,-1.9204,-1.8442,-1.7954,-1.7557,-1.6439,-1.5857,-1.548,-1.4726,0.0,0.0,0.0,0.0,0.0,0.0,0.0,0.0,0.0,0.0,0.0,0.0,0.0,0.0,0.0,0.0,0.0,0.0,0.0,0.0,0.0,0.0,0.0,0.0,-2.2898,-2.4132,-2.5001,-2.5065,-2.5434,-2.6371,-2.6525,-2.6696,-2.7039,-2.7073,-2.709,-2.7133,-2.7494,-2.7708,-2.7794,0.0,0.0,0.0,0.0,-3.071,-3.1377,-3.1377,-3.1377,-3.1377,-3.1377,-3.1377,-3.1377,-3.1377,-3.1377,-3.1359,-3.1011,-3.0855,-3.0827,-3.0433,-2.9993,-2.9534,-2.914,-2.9094,-2.9381,-2.9912,-3.0441,0.0,0.0,-0.8488,-0.8791,-0.9112,-1.014,-1.109,-1.16,-1.298,-1.42,-1.4821,-1.6543,-1.7865,-1.8317,-1.9862,-2.0842,-2.0842,-2.1257,-2.1525,0.0,0.0,-2.3003,-2.4384,-2.3999,-2.4093,-2.4713,-2.3278,-2.2444,-2.2264,-2.1909,-2.1696,-2.1696,-2.1696,-2.1696,-2.1687,-2.1517,-2.1482,-2.1437,-2.123,-2.1006,-2.0835,-2.0711,-2.0367,-1.9843,-1.9213,-1.8913,-1.8775,-1.7903,-1.7749,-1.7817,-1.7111,-1.645,-1.5926,-1.5728,0.0,0.0,0.0,0.0,0.0,0.0,0.0,0.0,0.0,0.0,0.0,0.0,0.0,0.0,0.0,0.0,0.0,0.0,0.0,0.0,-2.3169,-2.427,-2.5366,-2.6778,-2.6758,-2.6544,-2.6524,-2.6765,-2.6987,-2.7064,-2.7073,-2.7193,-2.7475,-2.7824,-2.826,-2.8948,-2.9362,0.0,-3.068,-3.0762,-3.0992,-3.1377,-3.1377,-3.1377,-3.1377,0.0,0.0,-3.1377,-3.1377,-3.1377,-3.1377,-3.1295,-3.1267,-3.1231,-3.0837,-3.0241,-2.9534,-2.914,-2.9893,-3.1207,-3.1323,-3.2291,-3.3663,-0.8201,-0.8595,-0.8977,-0.9074,-1.0235,-1.1244,-1.1559,-1.2847,-1.4063,-1.4802,-1.6103,-1.7162,-1.7739,-1.8781,-1.9459,-1.9459,-1.9638,0.0,0.0,-2.1859,-2.2795,-2.4135,-2.4065,-2.4164,-2.4535,-2.3128,-2.2353,-2.2264,-2.1865,-2.1696,-2.1696,-2.1696,-2.1696,-2.1696,-2.1482,-2.1392,-2.1392,-2.1096,-2.0871,-2.0699,-2.0699,-2.0496,-2.0171,-1.9848,-1.9615,-1.9384,-1.8811,-1.8596,-1.8468,-1.7763,-1.7257,-1.6879,-1.6501,-1.5703,-1.4795,0.0,0.0,0.0,0.0,0.0,0.0,0.0,0.0,0.0,0.0,0.0,0.0,0.0,0.0,-1.9507,0.0,0.0,-2.3313,-2.479,-2.5629,-2.6374,-2.7351,-2.7485,-2.7439,-2.7251,-2.7297,-2.7297,-2.7297,-2.7427,-2.7644,-2.7833,-2.8359,-2.8905,-2.9485,-3.0081,-3.0543,-3.087,-3.1064,-3.1249,-3.1377,-3.1377,-3.1377,-3.1377,-3.1377,-3.1377,-3.1377,-3.1377,-3.1377,-3.1377,-3.1377,-3.1377,-3.135,-3.0947,-3.0552,-3.0183,-2.9707,-3.0437,-3.1775,-3.2395,-3.336,-3.4336,-0.8336,-0.8954,-0.9366,-0.9072,-1.0179,-1.1229,-1.1497,-1.2538,-1.3697,-1.477,-1.5643,-1.6459,-1.7137,-1.7714,-1.8129,0.0,0.0,0.0,0.0,-2.127,-2.2256,-2.3684,-2.3891,-2.4021,-2.4168,-2.2994,-2.2309,-2.2141,-2.1874,-2.1696,-2.1696,-2.1696,-2.1696,-2.1696,-2.1482,-2.1392,-2.1392,-2.1051,-2.0871,-2.0699,-2.0654,-2.0473,-2.0283,-2.0215,-2.0001,-1.9648,-1.9307,-1.887,-1.8391,-1.7783,-1.7565,-1.7411,-1.6879,-1.6458,-1.5917,-1.4846,-1.4427,0.0,0.0,0.0,0.0,0.0,0.0,0.0,0.0,0.0,-1.8601,-1.9469,-2.0774,-2.201,-2.2942,-2.4161,-2.5254,-2.6181,-2.6807,-2.7338,-2.7723,-2.7944,-2.814,-2.8199,-2.7831,-2.7581,-2.7581,-2.7831,-2.8094,-2.8316,-2.8888,-2.952,-2.9983,-3.0635,-3.1,-3.1,-3.1249,-3.1377,-3.1377,-3.1377,-3.1377,-3.1377,-3.1377,-3.1377,-3.1377,-3.1377,-3.1377,-3.1377,-3.1377,-3.1377,-3.135,-3.1038,-3.0855,-3.0789,-3.0681,-3.1278,-3.2278,-3.3258,-3.4247,-3.4947,0.0,-0.9507,-0.9946,-0.9509,-1.0222,-1.1099,-1.1899,-1.2401,-1.3241,-1.472,-1.4997,-1.5475,-1.6497,-1.7124,-1.7865,-1.882,0.0,0.0,-2.1218,-2.2364,-2.3396,-2.4279,-2.4387,-2.4436,-2.4445,-2.3125,-2.2397,-2.2353,-2.1909,-2.1696,-2.1696,-2.1696,-2.1696,-2.1696,-2.1482,-2.1392,-2.1347,-2.0925,-2.0699,-2.0699,-2.0428,-2.0337,-2.0257,-1.9879,-1.9734,-1.9648,-1.9307,-1.8708,-1.8042,-1.7957,-1.7749,-1.7548,-1.7766,-1.7586,-1.7162,-1.6364,-1.566,-1.5069,-1.4983,-1.5437,-1.6219,-1.736,-1.7612,-1.8258,0.0,0.0,-2.1078,-2.2418,-2.3394,-2.4135,-2.4505,-2.5548,-2.6537,-2.6985,-2.7735,-2.8345,-2.8797,-2.86,-2.8576,-2.8865,-2.8319,-2.7951,-2.7951,-2.796,-2.833,-2.9013,-2.9413,-2.9951,-3.0771,-3.1166,-3.1313,-3.1313,-3.1377,-3.1377,-3.1377,-3.1377,-3.1377,-3.1377,-3.1377,-3.1377,-3.1377,-3.1377,-3.1377,-3.1377,-3.1377,-3.1377,-3.1377,-3.1332,-3.1102,-3.0899,-3.2276,-3.3215,-3.3832,-3.395,-3.5464,-3.759,0.0,-0.9598,-1.0138,-0.9943,-1.0638,-1.1401,-1.2006,-1.2389,-1.304,-1.4268,-1.4714,-1.5185,-1.5957,-1.6547,-1.695,-1.7111,-1.8312,-1.9254,-1.9752,-2.1765,-2.295,-2.294,-2.367,-2.3965,-2.3681,-2.2828,-2.2397,-2.2397,-2.1909,-2.1696,-2.1696,-2.1696,-2.1696,-2.1696,-2.1482,-2.1392,-2.1392,-2.1006,-2.0862,-2.0871,-2.0654,-2.0518,-2.0475,-1.9925,-1.9418,-1.9016,-1.8648,-1.8168,0.0,0.0,-1.7094,-1.6876,-1.7222,-1.7086,-1.6704,-1.6182,-1.6114,-1.6396,-1.7424,-1.7817,-1.8293,-1.9601,-2.015,-2.0771,-2.2189,-2.2735,-2.3162,-2.3967,-2.4751,-2.535,-2.5463,-2.6454,-2.7325,0.0,-2.8205,-2.8792,-2.8966,-2.8674,-2.8469,-2.8636,-2.8401,-2.8255,-2.831,-2.8448,-2.8832,-2.9439,-2.9813,-3.0355,-3.1148,-3.1313,-3.1377,-3.1377,-3.1616,-3.1744,-3.1744,-3.1744,-3.1744,-3.1744,-3.1497,-3.1377,-3.1377,-3.1377,-3.1377,-3.1377,-3.1377,-3.1377,-3.1442,-3.2247,-3.246,-3.2468,-3.3983,-3.5032,-3.5599,-3.5478,-3.6516,-3.7921,0.0,-0.9784,-1.0386,-1.0386,-1.0922,-1.1471,-1.1866,-1.2228,-1.286,-1.4007,-1.4588,-1.516,-1.5844,-1.6037,-1.6032,-1.581,-1.7233,-1.8157,-1.8213,-2.0573,-2.1829,-2.1546,-2.2753,-2.3265,-2.2959,-2.2595,-2.2397,-2.2397,-2.1909,-2.1696,-2.1696,-2.1696,-2.1696,-2.1687,-2.1571,-2.1482,-2.1482,-2.1239,-2.1096,-2.1087,-2.0756,-2.0587,-2.0436,-1.967,-1.8904,-1.8245,-1.798,-1.7501,0.0,0.0,-1.6223,-1.6035,-1.6325,-1.6291,-1.6137,-1.6122,-1.675,-1.7713,-1.8952,-1.9589,-2.013,-2.122,-2.2153,-2.2905,-2.3217,-2.3904,-2.4624,-2.4937,-2.5451,-2.5846,-2.5846,-2.6747,-2.7537,-2.7638,-2.8287,-2.8856,-2.8966,-2.8645,-2.8434,-2.8544,-2.8462,-2.8436,-2.86,-2.8966,-2.9373,-2.9821,-3.0171,-3.0662,-3.1341,-3.1377,-3.1377,-3.1377,-3.179,-3.201,-3.201,-3.2111,-3.2111,-3.2001,-3.1698,-3.1488,-3.1377,-3.1377,-3.1377,-3.1377,-3.1377,-3.1625,-3.2001,-3.3,-3.3684,-3.4198,-3.5388,-3.6273,-3.6802,-3.6748,-3.7289,-3.788,0.0,0.0,-1.089,-1.089,-1.09,-1.1042,-1.146,-1.1866,-1.2637,-1.41,-1.4651,-1.5299,-1.635,-1.568,-1.5322,-1.5766,-1.6212,-1.6675,-1.721,-1.891,-2.0095,-2.0605,-2.1867,-2.2519,-2.2529,-2.2451,-2.2397,-2.2397,-2.1909,-2.1696,-2.1696,-2.1696,-2.1696,-2.1696,-2.1687,-2.1696,-2.1696,-2.1482,-2.1392,-2.132,-2.0686,-2.0272,-1.9983,-1.8891,-1.8042,-1.754,-1.7531,0.0,-1.5788,-1.5403,-1.5223,-1.5249,-1.5266,-1.5514,0.0,-1.6679,-1.779,-1.8806,-1.8749,-1.9978,-2.1392,-2.1642,-2.2923,-2.4146,-2.4165,-2.4799,-2.5387,-2.5405,-2.5424,-2.5442,-2.5442,-2.6068,-2.6747,-2.7132,-2.7884,-2.8544,-2.8929,-2.8645,-2.8535,-2.892,-2.8627,-2.8544,0.0,-2.9333,-2.9736,-3.0167,-3.0552,-3.0947,-3.1359,-3.1377,-3.1377,-3.1377,-3.179,-3.201,-3.201,-3.2386,-3.2386,-3.201,-3.1992,-3.1772,-3.1377,-3.1377,-3.1377,-3.1377,-3.1377,-3.2128,-3.3316,-3.3379,-3.429,-3.5734,-3.6162,-3.6616,-3.7121,-3.7497,-3.7824,-3.7974,0.0,0.0,0.0,-1.0952,-1.1168,-1.132,-1.1122,-1.1434,-1.2065,-1.3101,-1.4249,0.0,0.0,0.0,0.0,0.0,-1.6031,-1.6706,-1.7236,-1.8365,-1.9225,-1.9705,-2.0684,-2.1357,-2.1619,-2.161,-2.175,-2.1991,-2.1537,-2.1421,-2.1696,-2.1696,-2.1696,-2.1696,-2.1696,-2.1696,-2.1696,-2.1607,-2.1607,-2.1526,-2.0941,-2.0604,-2.0419,-1.9211,-1.8139,-1.7185,0.0,0.0,-1.4649,-1.4521,-1.4298,-1.417,-1.4692,-1.4958,-1.5394,-1.7009,-1.8018,-1.893,-2.047,-2.1554,-2.2387,-2.3151,-2.396,-2.4689,-2.4955,-2.5231,-2.5298,-2.5032,-2.4977,-2.4895,-2.4661,-2.5497,-2.6307,-2.6719,-2.7691,-2.8535,-2.8929,-2.8645,-2.8443,-2.8581,-2.8471,0.0,0.0,0.0,0.0,-3.0149,-3.0323,-3.069,-3.1341,-3.1377,-3.1377,-3.1377,-3.2047,-3.2395,-3.2395,-3.2808,-3.2808,-3.2395,-3.1845,-3.1515,-3.1377,-3.1377,-3.1377,-3.1442,-3.232,-3.3,-3.3558,-3.5283,-3.6438,-3.7237,-3.8447,-3.8677,-3.848,-3.8839,-3.8573,-3.7986,0.0,0.0,0.0,0.0,0.0,0.0,0.0,0.0,0.0,0.0,0.0,0.0,0.0,0.0,0.0,0.0,0.0,-1.6015,-1.6293,-1.7082,-1.7802,-1.8355,-1.9053,-1.9697,-2.0178,-2.0137,-2.0358,-2.0853,-2.043,-2.0539,-2.1046,-2.1046,-2.1119,-2.1257,-2.1257,-2.1257,-2.1248,-2.111,-2.1046,-2.0991,-2.0161,-1.9797,-1.9606,-1.8324,-1.7263,0.0,0.0,-1.4165,-1.3735,-1.3567,-1.3494,-1.3622,-1.4273,-1.5188,-1.6268,-1.7464,-1.861,-1.9853,-2.1716,-2.2559,-2.319,-2.4345,-2.4845,-2.506,-2.5359,-2.5194,-2.4909,-2.4661,-2.4326,-2.4051,-2.3776,-2.4482,-2.5372,-2.6224,-2.7141,-2.804,-2.8865,-2.8645,-2.8443,-2.859,-2.848,-2.8452,0.0,0.0,0.0,-2.9929,-3.0241,-3.0635,-3.1139,-3.1304,-3.1377,-3.1377,-3.2029,-3.245,-3.2597,-3.3019,-3.3019,-3.2588,-3.1918,-3.1524,-3.1377,-3.1377,-3.169,-3.2192,-3.3,-3.3935,-3.4912,-3.6753,-3.791,-3.8766,-3.9931,-3.9943,-3.9308,-3.9542,-3.8912,-3.7986,0.0,0.0,0.0,0.0,0.0,0.0,0.0,0.0,0.0,0.0,0.0,0.0,0.0,0.0,0.0,0.0,0.0,0.0,-1.4506,-1.5211,0.0,-1.656,-1.709,-1.7658,-1.8305,-1.8161,-1.8373,-1.9041,-1.8765,-1.9054,-1.9802,-1.9802,-1.9994,-2.0393,-2.0393,-2.0393,-2.0365,-1.9957,-1.9802,-1.9692,-1.853,-1.7933,-1.7649,-1.646,0.0,0.0,0.0,-1.3246,-1.3122,-1.2625,-1.2988,-1.3725,-1.4119,-1.6146,-1.8306,-1.8009,-1.9602,-2.1599,-2.2449,-2.3135,-2.3892,-2.5087,-2.5442,-2.539,-2.5378,-2.4762,-2.4183,-2.4091,-2.3428,-2.2831,0.0,0.0,-2.3984,-2.5663,-2.6289,-2.7178,-2.8764,-2.8663,-2.8563,0.0,0.0,0.0,0.0,0.0,0.0,-2.9571,0.0,-3.0781,-3.0818,-3.1176,-3.1377,-3.1377,-3.179,-3.2194,-3.2588,-3.2991,-3.2991,-3.2588,-3.2175,-3.1763,-3.1377,-3.1442,-3.2192,-3.3316,-3.3505,-3.4974,-3.7237,-3.7741,-3.8837,-4.0223,-4.0549,-4.0263,-3.9609,-3.9609,-3.8912,-3.7986,0.0,0.0,0.0,0.0,0.0,0.0,0.0,0.0,0.0,0.0,0.0,0.0,0.0,0.0,0.0,0.0,0.0,0.0,-1.4533,0.0,0.0,0.0,-1.6318,-1.6905,-1.6979,-1.7402,-1.7816,-1.8117,-1.7926,-1.8073,-1.8548,-1.8548,-1.8603,-1.8695,-1.8695,-1.8695,-1.8695,-1.8594,-1.8548,-1.8493,0.0,-1.7615,-1.7478,0.0,0.0,0.0,0.0,-1.387,-1.3356,-1.3248,0.0,0.0,0.0,-1.7113,-1.8184,-1.945,-2.0792,-2.2216,-2.345,-2.4574,-2.5344,-2.5362,-2.5644,-2.5626,-2.4716,-2.4349,-2.3862,-2.2602,-2.2144,-2.1723,0.0,0.0,0.0,-2.4496,-2.6021,0.0,-2.8801,-2.8893,0.0,-2.8975,0.0,-2.9305,-2.9415,-2.9709,0.0,0.0,-3.0231,-3.0607,-3.1194,-3.1322,-3.1377,-3.1377,-3.179,-3.2194,-3.2588,-3.2698,-3.2698,-3.2588,-3.1873,-3.1478,-3.1442,-3.2438,-3.2502,-3.2065,-3.5026,-3.6144,-3.6042,-3.8373,-3.965,-4.0223,-4.0549,-4.0263,-3.9609,-3.9609,-3.8912,-3.7986,0.0,0.0,0.0,0.0,0.0,0.0,0.0,0.0,0.0,0.0,0.0,0.0,0.0,0.0,0.0,0.0,0.0,0.0,0.0,-1.3716,0.0,-1.4209,-1.4746,-1.51,-1.5281,-1.5818,-1.6083,-1.609,0.0,0.0,-1.6807,-1.6972,-1.7156,-1.7304,-1.7478,-1.7551,-1.7542,-1.7368,0.0,0.0,0.0,0.0,0.0,0.0,0.0,0.0,0.0,0.0,0.0,0.0,0.0,-1.752,-1.8189,-1.8956,-1.9896,-2.1078,0.0,-2.3277,-2.4409,-2.5359,-2.5957,-2.5736,-2.5589,-2.5124,-2.3904,-2.3354,-2.2685,-2.1193,-2.09,-2.0634,-1.9774,-2.0836,0.0,0.0,0.0,0.0,-2.8507,-2.8874,-2.8984,0.0,-2.9333,0.0,-2.9571,-2.9956,-3.0268,0.0,-3.0461,-3.0653,-3.1093,-3.1277,-3.1377,-3.1377,-3.1607,-3.1928,-3.2331,-3.2505,-3.2505,-3.2331,-3.1873,-3.1552,-3.1442,-3.2819,-3.3316,-3.3316,0.0,-3.7319,-3.7462,-3.9226,-4.013,-4.0479,-4.0781,-4.0509,-3.9922,-3.9693,-3.9068,-3.831,0.0,0.0,0.0,0.0,0.0,0.0,0.0,0.0,0.0,0.0,0.0,0.0,0.0,0.0,0.0,0.0,0.0,0.0,0.0,0.0,0.0,-1.3408,-1.3125,-1.315,-1.3624,-1.4015,-1.4063,-1.3828,0.0,0.0,0.0,0.0,0.0,0.0,0.0,0.0,0.0,0.0,0.0,0.0,0.0,0.0,0.0,0.0,0.0,0.0,0.0,0.0,0.0,0.0,-1.8449,-1.9231,-1.9909,-2.0988,-2.2187,-2.263,-2.3484,-2.4459,-2.5277,-2.5791,-2.6067,-2.5966,-2.5378,-2.4445,-2.3114,-2.2199,-2.1266,-2.0058,-1.9765,-1.9582,-1.9155,-1.9815,-2.1046,-2.3014,0.0,-2.6013,-2.8104,-2.8737,-2.8984,-2.8984,-2.9424,-2.9718,-2.9663,-3.0085,-3.0497,-3.0846,-3.0873,-3.0873,-3.0873,-3.1194,-3.1377,-3.1377,-3.1433,-3.1634,-3.2001,-3.2349,-3.2349,-3.201,-3.1946,-3.1735,-3.1442,-3.2819,-3.406,-3.5253,0.0,0.0,-3.9614,-4.006,-4.0409,-4.0723,-4.1069,-4.086,-4.0331,-3.9801,-3.9272,-3.8731,0.0,0.0,0.0,0.0,0.0,0.0,0.0,0.0,0.0,0.0,-1.402,-1.3597,0.0,0.0,0.0,0.0,0.0,0.0,0.0,0.0,0.0,0.0,-1.3152,-1.3228,-1.3216,-1.3482,-1.3561,0.0,0.0,0.0,0.0,0.0,0.0,0.0,0.0,0.0,0.0,0.0,0.0,0.0,0.0,0.0,0.0,0.0,0.0,0.0,0.0,-1.4985,-1.6063,-1.7551,-1.9227,-2.0766,-2.1051,-2.1771,-2.2639,-2.338,-2.414,-2.4849,-2.5699,-2.6214,-2.6316,-2.569,-2.5124,-2.4372,-2.2795,-2.176,0.0,0.0,-1.9146,-1.8696,-1.7944,-1.9026,-2.0534,-2.2217,-2.3859,-2.5711,-2.8067,-2.8737,-2.8984,0.0,-2.9929,-3.0451,-3.0121,-3.0745,0.0,0.0,0.0,0.0,-3.1277,-3.1341,-3.1377,-3.1377,-3.1717,-3.1937,-3.201,-3.2074,-3.2074,-3.2001,-3.1653,-3.1451,-3.1442,-3.2819,-3.3621,-3.4228,0.0,0.0,-3.8636,-3.9732,-4.0409,-4.0723,-4.1069,-4.086,-4.0331,-3.9801,-3.9272,-3.8731,0.0,0.0,0.0,0.0,0.0,0.0,0.0,-1.4366,-1.4831,-1.5297,-1.5183,-1.4837,-1.4286,-1.373,-1.3348,0.0,0.0,0.0,0.0,0.0,0.0,0.0,0.0,-1.2999,-1.2799,0.0,0.0,0.0,0.0,0.0,0.0,0.0,0.0,0.0,0.0,0.0,0.0,0.0,0.0,0.0,0.0,0.0,0.0,0.0,0.0,0.0,0.0,0.0,-1.6441,-1.7229,-1.8943,-2.0904,-2.1626,-2.228,-2.2908,-2.3766,-2.4395,-2.4959,-2.58,-2.627,-2.6389,-2.5573,-2.4964,-2.3914,-2.1851,0.0,0.0,0.0,-1.7761,-1.7587,-1.6991,-1.821,0.0,-2.1154,-2.2758,-2.4675,-2.7114,-2.7976,-2.8507,-2.8929,-3.0048,-3.0635,0.0,0.0,0.0,0.0,0.0,0.0,-3.1377,-3.1377,-3.1377,-3.1377,-3.157,-3.168,-3.168,-3.168,-3.168,-3.168,-3.1469,-3.1506,-3.1708,-3.2892,-3.3684,-3.4238,0.0,0.0,-3.8648,-3.9931,-4.0653,-4.0954,-4.1127,-4.1028,-4.0715,-3.991,-3.9453,-3.9116,0.0,0.0,0.0,0.0,0.0,0.0,0.0,-1.4863,-1.5463,-1.5918,-1.6301,-1.6182,-1.5287,-1.4282,-1.3528,0.0,0.0,0.0,0.0,0.0,0.0,0.0,0.0,0.0,0.0,0.0,0.0,0.0,0.0,0.0,0.0,0.0,0.0,0.0,0.0,0.0,0.0,0.0,0.0,0.0,0.0,0.0,0.0,0.0,0.0,0.0,0.0,0.0,0.0,0.0,-1.81,-1.9952,-2.1172,-2.2089,-2.2931,-2.3785,-2.4381,-2.4959,-2.58,-2.627,-2.6389,-2.5573,-2.4808,-2.3586,-2.1181,-1.9879,0.0,-1.6817,-1.6624,-1.6688,-1.6343,-1.745,-1.8907,0.0,-2.1623,-2.3425,-2.6087,-2.7141,-2.7939,0.0,-3.0002,0.0,-3.0241,0.0,0.0,0.0,0.0,0.0,-3.1377,-3.1377,-3.1377,-3.1377,-3.1377,-3.1442,-3.1515,-3.1515,-3.1515,-3.1635,-3.1635,-3.1772,-3.2047,-3.2838,-3.3694,-3.4622,0.0,0.0,0.0,-3.9884,-4.0653,-4.1184,-4.1184,-4.1112,-4.0896,-3.9958,-3.9537,-3.9296,0.0,0.0,0.0,0.0,0.0,0.0,0.0,-1.5411,-1.6415,-1.6831,-1.6924,-1.6795,-1.6466,-1.5265,-1.4258,0.0,0.0,0.0,0.0,0.0,0.0,0.0,0.0,0.0,0.0,0.0,0.0,0.0,0.0,0.0,0.0,0.0,0.0,0.0,0.0,0.0,0.0,0.0,0.0,0.0,0.0,0.0,0.0,0.0,0.0,0.0,0.0,0.0,0.0,0.0,0.0,-1.7449,-1.8669,-2.0543,-2.2492,-2.3316,0.0,0.0,-2.58,-2.627,-2.6389,-2.5573,-2.4808,-2.3659,-2.153,0.0,-1.8403,-1.7119,-1.6597,-1.6325,-1.6321,-1.7027,-1.8247,-2.02,-2.0943,-2.2382,-2.5617,-2.6774,-2.7536,-2.8352,0.0,0.0,-3.0241,0.0,0.0,0.0,0.0,0.0,0.0,-3.1377,-3.1377,-3.1377,-3.1377,-3.158,-3.1855,-3.1855,-3.1983,-3.2294,-3.2294,-3.2294,-3.2358,-3.2476,-3.3335,-3.4881,0.0,0.0,0.0,-3.9026,-3.9873,-4.1184,-4.1184,-4.0896,-4.0391,-3.9826,-3.9296,-3.8803,0.0,0.0,0.0,0.0,0.0,0.0,-1.4242,-1.5007,-1.5815,-1.655,-1.7029,-1.7206,-1.6991,-1.6157,-1.5066,-1.369,0.0,0.0,0.0,0.0,0.0,0.0,0.0,0.0,0.0,0.0,0.0,0.0,0.0,0.0,0.0,0.0,0.0,0.0,0.0,0.0,0.0,0.0,0.0,0.0,0.0,0.0,0.0,0.0,0.0,0.0,0.0,0.0,0.0,0.0,0.0,0.0,-1.6826,-1.8229,0.0,0.0,-2.2841,-2.3859,-2.4707,-2.5405,-2.572,-2.5161,-2.44,-2.3253,-2.1218,-1.9512,-1.8018,-1.6807,-1.623,-1.6019,-1.6276,-1.6963,-1.7917,-1.9219,-1.976,-2.0989,-2.3767,-2.4849,-2.6076,-2.7801,-2.9223,0.0,0.0,0.0,0.0,0.0,0.0,0.0,0.0,-3.1377,-3.1377,-3.1377,-3.158,-3.1782,-3.1919,-3.2111,-3.2294,-3.2422,-3.2422,-3.2485,-3.2667,-3.2476,-3.2975,-3.4027,0.0,0.0,0.0,-3.8755,-3.9908,-4.1184,-4.1184,-4.086,-4.0331,-3.9801,-3.9272,-3.8731,0.0,0.0,0.0,0.0,0.0,-1.3752,-1.4242,-1.4821,-1.5484,-1.6309,-1.6927,-1.7266,-1.7222,-1.6567,-1.5575,-1.418,-1.3838,0.0,0.0,0.0,0.0,0.0,0.0,0.0,0.0,0.0,0.0,-1.4812,0.0,0.0,0.0,0.0,0.0,0.0,0.0,0.0,0.0,0.0,0.0,0.0,0.0,0.0,0.0,0.0,0.0,0.0,0.0,0.0,0.0,0.0,0.0,0.0,0.0,-1.6468,-1.7944,0.0,-2.1485,-2.2721,-2.3574,-2.444,-2.4964,-2.451,-2.3794,-2.2638,-2.0735,-1.9152,-1.7743,-1.6535,-1.6083,-1.5964,-1.6266,-1.6872,-1.7623,-1.8559,-1.9045,-2.0154,-2.2565,-2.3648,-2.4964,0.0,0.0,0.0,0.0,0.0,0.0,0.0,0.0,0.0,0.0,-3.1506,-3.1515,-3.1377,-3.1717,-3.1919,-3.2047,-3.2358,-3.2613,-3.2667,-3.2667,-3.2794,-3.3048,-3.2794,-3.3165,0.0,0.0,0.0,0.0,-3.8803,-4.0013,-4.1172,-4.1016,-4.0631,-4.0102,-3.9573,-3.9032,-3.8515,0.0,0.0,0.0,0.0,0.0,0.0,-1.4242,-1.509,-1.5846,-1.635,-1.665,-1.691,-1.7181,-1.6297,-1.5614,-1.5391,-1.4591,0.0,0.0,0.0,0.0,0.0,0.0,0.0,0.0,0.0,-1.4971,-1.5093,-1.5478,-1.567,0.0,0.0,0.0,0.0,0.0,0.0,0.0,0.0,0.0,0.0,0.0,0.0,0.0,0.0,0.0,0.0,0.0,0.0,0.0,0.0,0.0,0.0,0.0,-1.567,-1.6691,-1.8733,-2.0475,-2.1879,-2.2693,-2.3556,-2.4119,-2.3608,-2.2895,-2.187,-2.0259,-1.896,-1.7743,-1.6535,-1.6312,-1.6312,-1.6288,-1.6642,-1.7312,-1.8513,-1.9045,-2.0154,-2.2565,-2.3648,0.0,0.0,0.0,0.0,0.0,0.0,0.0,0.0,0.0,0.0,0.0,0.0,-3.1717,-3.1377,-3.1717,-3.2038,-3.2358,-3.2731,-3.3048,-3.3364,-3.3364,-3.3364,-3.3418,-3.3364,0.0,0.0,0.0,0.0,0.0,-3.9216,-4.0013,-4.1136,-4.0607,-4.0078,-3.9549,-3.902,-3.8467,-3.7986,0.0,0.0,0.0,0.0,0.0,0.0,0.0,-1.4076,-1.4438,-1.4904,-1.541,-1.5862,-1.6286,-1.6098,-1.5959,-1.5889,-1.5068,0.0,0.0,0.0,0.0,0.0,0.0,0.0,0.0,0.0,-1.5449,-1.6072,-1.6355,-1.6523,-1.6523,-1.6395,0.0,0.0,0.0,0.0,0.0,0.0,0.0,0.0,0.0,0.0,0.0,0.0,0.0,0.0,0.0,0.0,0.0,0.0,0.0,0.0,0.0,0.0,0.0,-1.6569,-1.8366,-2.0191,-2.0698,-2.1465,-2.1979,-2.1575,-2.1238,-2.0741,-1.9363,-1.8557,-1.7825,-1.6917,-1.6606,-1.6563,-1.667,-1.692,-1.7563,-1.8909,-1.9219,-2.0053,-2.2172,0.0,0.0,0.0,0.0,0.0,0.0,0.0,0.0,0.0,0.0,0.0,0.0,0.0,-3.2102,-3.1717,-3.2294,-3.2603,-3.2731,-3.3048,-3.3292,-3.3418,-3.3418,-3.3418,-3.3418,-3.3418,0.0,0.0,0.0,0.0,0.0,-3.9216,-3.9756,-4.0631,-4.0463,-3.985,-3.9044,-3.8876,-3.8467,-3.7986,0.0,0.0,0.0,0.0,0.0,0.0,0.0,-1.3597,-1.3752,-1.4167,-1.4641,-1.5174,-1.5757,-1.5841,-1.5919,-1.6075,-1.543,0.0,0.0,0.0,0.0,0.0,0.0,0.0,0.0,-1.546,-1.5909,-1.6649,-1.6961,-1.7128,-1.7128,-1.6972,-1.6294,-1.5184,0.0,0.0,0.0,0.0,0.0,0.0,0.0,0.0,0.0,0.0,0.0,0.0,0.0,0.0,0.0,0.0,0.0,0.0,0.0,0.0,0.0,0.0,-1.6642,-1.8128,-1.8978,-1.9824,-2.0365,-2.0118,-1.9943,-1.9595,-1.8696,-1.8174,-1.7697,-1.7141,-1.6834,-1.681,-1.707,-1.7107,-1.7498,-1.8756,-1.9139,-1.9993,0.0,0.0,0.0,0.0,0.0,0.0,0.0,0.0,0.0,0.0,0.0,0.0,0.0,0.0,-3.2011,-3.1769,-3.2505,-3.2921,-3.2921,-3.3228,-3.3418,-3.3418,-3.3418,-3.3418,-3.3418,0.0,0.0,0.0,0.0,0.0,0.0,-3.914,-3.9675,-4.0078,-3.9874,-3.9405,-3.8791,-3.8575,-3.8286,-3.7986,0.0,0.0,0.0,0.0,0.0,0.0,0.0,-1.3597,-1.3717,-1.4016,-1.43,-1.478,-1.5522,-1.5478,-1.5576,-1.6007,0.0,0.0,0.0,0.0,0.0,0.0,0.0,0.0,-1.5598,-1.5804,-1.6233,-1.6945,-1.7348,-1.755,-1.7578,-1.7202,-1.6789,-1.6321,-1.5542,0.0,0.0,0.0,0.0,0.0,0.0,0.0,0.0,0.0,0.0,0.0,0.0,0.0,0.0,0.0,0.0,0.0,0.0,0.0,0.0,0.0,0.0,0.0,0.0,-1.8485,-1.9081,-1.9054,-1.8788,-1.8402,-1.7999,-1.7688,0.0,-1.7213,-1.7054,-1.71,-1.7511,-1.7285,-1.7363,-1.8471,-1.9099,0.0,0.0,-2.3529,0.0,0.0,0.0,0.0,0.0,0.0,0.0,0.0,0.0,0.0,0.0,0.0,0.0,-3.1661,-3.2421,-3.2835,-3.2835,-3.3151,-3.333,-3.333,-3.333,-3.333,-3.332,0.0,0.0,0.0,0.0,0.0,0.0,-3.9086,-3.9585,-3.9501,-3.9008,-3.8791,-3.8695,-3.8166,-3.7986,-3.7986,0.0,0.0,0.0,0.0,0.0,0.0,0.0,0.0,0.0,0.0,-1.4099,-1.4523,-1.4614,-1.5076,-1.5449,0.0,0.0,0.0,0.0,0.0,0.0,0.0,0.0,0.0,-1.5598,-1.57,-1.6272,-1.7358,-1.777,-1.8137,-1.843,-1.833,-1.7743,-1.6743,-1.6248,-1.5689,0.0,0.0,0.0,0.0,0.0,0.0,0.0,0.0,0.0,0.0,0.0,-1.4588,0.0,0.0,0.0,0.0,0.0,0.0,0.0,0.0,-1.4928,-1.5322,-1.5707,0.0,-1.6945,-1.6615,-1.6716,-1.6771,0.0,-1.6797,-1.716,-1.6794,-1.7156,-1.77,-1.8311,-1.8223,-1.8718,-2.0674,0.0,0.0,0.0,0.0,0.0,0.0,0.0,0.0,0.0,0.0,0.0,0.0,0.0,0.0,0.0,0.0,0.0,-3.2046,-3.2241,-3.2338,-3.2338,-3.2461,-3.2461,-3.2461,-3.2461,-3.2461,-3.2461,0.0,0.0,0.0,0.0,0.0,0.0,-3.9086,-3.9369,-3.8996,-3.8864,-3.8563,-3.8166,-3.8034,-3.7986,-3.7986,0.0,0.0,0.0,0.0,0.0,0.0,0.0,0.0,0.0,0.0,0.0,0.0,0.0,0.0,0.0,0.0,0.0,0.0,0.0,0.0,0.0,0.0,0.0,-1.5544,-1.587,-1.602,-1.6754,-1.8054,-1.8284,-1.8595,-1.8981,-1.8981,-1.8339,-1.7138,-1.6367,-1.5689,0.0,0.0,0.0,0.0,0.0,0.0,0.0,0.0,0.0,0.0,-1.4515,-1.4515,0.0,-1.4928,-1.5074,-1.5093,0.0,0.0,0.0,0.0,-1.4662,-1.4836,-1.4836,-1.5826,-1.6798,-1.6578,-1.6722,-1.6902,-1.6671,-1.6667,-1.6741,-1.6803,-1.7073,-1.7584,-1.8497,-1.8596,-1.9154,0.0,-2.1655,0.0,0.0,0.0,0.0,0.0,0.0,0.0,0.0,0.0,0.0,0.0,0.0,0.0,0.0,0.0,0.0,0.0,-3.1582,-3.1777,-3.2229,-3.2229,-3.2229,-3.2229,-3.2229,-3.2229,-3.2219,0.0,0.0,0.0,0.0,0.0,-3.7169,-3.835,-3.8695,-3.8431,-3.8431,-3.825,-3.7986,-3.7986,-3.7986,-3.7986,0.0,0.0,0.0,0.0,0.0,0.0,0.0,0.0,0.0,0.0,0.0,0.0,0.0,0.0,0.0,0.0,0.0,0.0,0.0,0.0,0.0,0.0,0.0,-1.5937,-1.6283,-1.6468,-1.7239,-1.8623,-1.8742,-1.9008,-1.9402,-1.9457,-1.8742,-1.7358,-1.6331,-1.5615,0.0,0.0,0.0,0.0,0.0,0.0,0.0,0.0,0.0,0.0,0.0,0.0,0.0,-1.5285,-1.5368,-1.523,-1.5441,0.0,0.0,0.0,0.0,0.0,-1.4765,-1.6223,-1.7585,-1.7272,-1.7498,-1.7754,-1.7623,-1.7032,-1.6674,-1.7173,-1.724,-1.7565,-1.875,-1.9033,0.0,0.0,0.0,0.0,0.0,0.0,0.0,0.0,0.0,0.0,0.0,0.0,0.0,0.0,0.0,0.0,0.0,0.0,0.0,0.0,-3.0889,-3.124,-3.1963,-3.1973,-3.1973,-3.1973,-3.1973,-3.1973,-3.2023,-3.262,0.0,0.0,0.0,0.0,-3.6286,-3.7495,-3.7986,-3.7986,-3.7986,-3.7986,-3.7986,-3.7986,-3.7986,-3.7986,0.0,0.0,0.0,0.0,0.0,0.0,0.0,0.0,0.0,0.0,0.0,0.0,0.0,0.0,0.0,0.0,0.0,0.0,0.0,0.0,0.0,-1.5235,-1.5489,-1.5977,-1.6699,-1.6485,-1.6936,-1.8173,-1.888,-1.9421,-1.9802,-2.0173,-1.9136,-1.6991,-1.6798,-1.6303,-1.5625,0.0,0.0,0.0,0.0,0.0,0.0,0.0,0.0,0.0,0.0,0.0,0.0,-1.4653,-1.5093,-1.5487,-1.4882,0.0,0.0,0.0,0.0,0.0,-1.603,-1.7332,-1.7903,-1.6151,-1.6934,-1.7941,-1.7177,-1.755,-1.8081,-1.8174,-1.8589,-1.9292,-2.0566,-2.081,-2.146,0.0,0.0,0.0,0.0,0.0,0.0,0.0,0.0,0.0,0.0,0.0,0.0,0.0,0.0,0.0,0.0,0.0,0.0,0.0,0.0,-3.0957,-3.1084,-3.1084,-3.1084,-3.1084,-3.1084,-3.1084,-3.1084,-3.124,-3.183,0.0,0.0,0.0,-3.6286,-3.7495,-3.7986,-3.7986,-3.7986,-3.7986,-3.7986,-3.7986,-3.7986,-3.7986,0.0,0.0,0.0,0.0,0.0,0.0,0.0,0.0,0.0,0.0,0.0,0.0,0.0,0.0,0.0,0.0,0.0,0.0,0.0,0.0,0.0,-1.5682,-1.5832,-1.6147,-1.6642,-1.7153,-1.8101,-1.9421,-1.9989,-2.0493,-2.0845,-1.993,-1.8715,-1.7211,-1.678,-1.6376,-1.6037,-1.623,0.0,0.0,0.0,0.0,0.0,0.0,0.0,0.0,0.0,0.0,0.0,0.0,-1.5136,-1.5429,-1.5038,0.0,0.0,0.0,0.0,0.0,-1.5455,-1.6845,-1.7872,-1.6935,-1.818,-1.9535,-1.9143,-1.8954,-1.8945,-1.9168,-1.9446,-1.9961,0.0,0.0,-2.2705,-2.5098,0.0,0.0,0.0,0.0,0.0,0.0,0.0,0.0,0.0,0.0,0.0,0.0,0.0,0.0,0.0,0.0,0.0,0.0,0.0,-3.0889,-3.0889,-3.0889,-3.0889,-3.0889,-3.0889,-3.0889,-3.0889,-3.1566,-3.218,0.0,0.0,-3.4725,-3.5333,-3.6557,-3.7054,-3.7108,-3.7761,-3.7986,-3.7986,-3.7986,-3.7986,-3.7986,0.0,0.0,0.0,0.0,0.0,0.0,0.0,0.0,0.0,0.0,0.0,0.0,0.0,0.0,0.0,0.0,0.0,0.0,0.0,0.0,-1.5576,-1.6015,-1.6181,-1.6439,-1.6855,-1.783,-1.896,-2.0237,-2.0824,-2.1273,-2.1504,-1.9907,-1.855,-1.7468,-1.6862,-1.6486,-1.6321,-1.6413,-1.6633,0.0,0.0,0.0,0.0,0.0,0.0,0.0,0.0,0.0,0.0,0.0,0.0,0.0,0.0,0.0,0.0,-1.4906,-1.4872,-1.5037,-1.5221,-1.6497,-1.7871,-1.8205,-1.9483,-2.0737,-2.1045,-2.0421,-1.9922,-2.0547,-2.0674,-2.0879,0.0,-2.2549,0.0,-2.6182,0.0,0.0,0.0,0.0,0.0,0.0,0.0,0.0,0.0,0.0,0.0,0.0,0.0,0.0,0.0,0.0,0.0,0.0,0.0,0.0,-3.0889,-3.0889,-3.0889,-3.0889,-3.0889,-3.0889,-3.0947,-3.1845,-3.241,-3.2742,-3.3618,-3.4168,-3.4503,-3.5674,-3.6177,-3.634,-3.7548,-3.7986,-3.7986,-3.7986,-3.7986,-3.7986,0.0,0.0,0.0,0.0,0.0,0.0,0.0,0.0,0.0,0.0,0.0,0.0,0.0,0.0,0.0,0.0,0.0,0.0,0.0,0.0,-1.5517,-1.5811,-1.6162,-1.6849,-1.7863,-1.8054,-1.854,-1.9393,-2.0549,-2.1117,-2.1145,-2.0622,-1.9347,-1.7495,-1.744,-1.7,-1.6306,-1.6707,-1.6881,-1.6835,0.0,0.0,0.0,0.0,0.0,0.0,0.0,0.0,0.0,0.0,0.0,0.0,0.0,0.0,-1.5501,-1.5093,-1.5,-1.5286,-1.6565,-1.7364,-1.8118,-1.9409,-1.9855,-2.0294,-2.1562,-2.1414,-2.1405,-2.2719,-2.2973,-2.2993,0.0,-2.4385,0.0,0.0,0.0,0.0,0.0,0.0,0.0,0.0,0.0,0.0,0.0,0.0,0.0,0.0,0.0,0.0,0.0,0.0,0.0,0.0,0.0,0.0,-3.0889,-3.0889,-3.0889,-3.0889,-3.0889,-3.0889,-3.0889,-3.1005,-3.1624,-3.2685,-3.2799,-3.3402,-3.4503,-3.5674,-3.6177,-3.634,-3.7548,-3.7986,-3.7986,-3.7986,-3.7986,-3.7986,0.0,0.0,0.0,0.0,0.0,0.0,0.0,0.0,0.0,0.0,0.0,0.0,0.0,0.0,0.0,0.0,0.0,0.0,0.0,-1.5264,-1.5576,-1.5954,-1.6172,-1.6584,-1.7247,-1.8192,-1.9134,-2.0063,-2.0759,-2.1108,-2.108,-1.9934,-1.8852,-1.7862,-1.7358,-1.7033,-1.6859,-1.7007,-1.7141,-1.7189,-1.6412,0.0,0.0,0.0,0.0,0.0,0.0,0.0,0.0,0.0,-1.4544,-1.4964,-1.4991,-1.5163,-1.5328,-1.5175,-1.5023,-1.5023,-1.5725,-1.6725,-1.7862,-1.9209,-1.9922,-2.0664,-2.1973,-2.2764,-2.3428,-2.4235,-2.457,-2.4766,-2.4766,0.0,0.0,0.0,0.0,0.0,0.0,0.0,0.0,0.0,0.0,0.0,0.0,0.0,0.0,0.0,0.0,0.0,0.0,0.0,0.0,0.0,0.0,0.0,0.0,-3.0889,-3.0889,-3.0889,-3.0889,-3.0889,-3.0889,-3.0889,-3.117,-3.1566,-3.1566,-3.1845,-3.2342,-3.3515,-3.4011,-3.4123,-3.5333,-3.622,-3.6893,-3.6893,-3.7388,-3.7986,0.0,0.0,0.0,0.0,0.0,0.0,0.0,0.0,0.0,0.0,0.0,0.0,0.0,0.0,0.0,0.0,0.0,0.0,-1.459,-1.498,-1.541,-1.587,-1.6073,-1.6373,-1.6793,-1.7998,-1.902,-1.9952,-2.0475,-2.0604,-2.0421,-1.91,-1.8347,-1.8054,-1.7337,-1.7146,-1.7388,-1.7161,-1.715,-1.7196,-1.6408,-1.6056,0.0,0.0,0.0,0.0,0.0,0.0,0.0,0.0,-1.4198,-1.451,-1.4898,-1.5042,-1.509,-1.5225,-1.5332,-1.5439,-1.5622,-1.6604,-1.7852,-1.9004,-2.0039,-2.1113,-2.2412,-2.3496,-2.4463,-2.5312,-2.5508,-2.5654,-2.6015,0.0,0.0,0.0,0.0,0.0,0.0,0.0,0.0,0.0,0.0,0.0,0.0,0.0,0.0,0.0,0.0,0.0,0.0,0.0,0.0,0.0,0.0,0.0,0.0,-3.0469,-3.0537,-3.0674,-3.0537,-3.0625,-3.0889,-3.0889,-3.081,-3.0674,-3.0674,-3.0596,-3.0584,-3.2184,-3.3236,-3.3944,-3.4699,-3.5523,-3.6242,-3.6242,-3.6785,-3.7481,0.0,0.0,0.0,0.0,0.0,0.0,0.0,0.0,0.0,0.0,0.0,0.0,0.0,0.0,0.0,0.0,0.0,0.0,-1.4133,-1.4541,-1.4971,-1.5391,-1.586,-1.6309,-1.6774,-1.7378,-1.8005,-1.8715,-1.9522,-1.9583,-1.9001,-1.8386,-1.8081,-1.8073,-1.7469,-1.7434,-1.7735,-1.7085,-1.6803,-1.6727,-1.6074,-1.58,0.0,0.0,0.0,0.0,0.0,0.0,0.0,0.0,-1.3649,-1.4145,-1.45,-1.4701,-1.4873,-1.5293,-1.6005,-1.6687,-1.6697,-1.7321,-1.8223,-1.9082,-2.0283,-2.1541,-2.2828,-2.3496,-2.4307,-2.6045,-2.5703,-2.5488,-2.6777,-2.6278,0.0,0.0,0.0,0.0,0.0,0.0,0.0,0.0,0.0,0.0,0.0,0.0,0.0,0.0,0.0,0.0,0.0,0.0,0.0,0.0,0.0,0.0,0.0,-2.9626,-2.9785,-3.0185,-2.9766,-3.0029,-3.0889,-3.0879,-3.0625,-3.0185,-3.0185,-2.9961,-2.9784,-3.2028,-3.4316,-3.6348,-3.6348,-3.6348,-3.6398,-3.6398,-3.6411,-3.6411,0.0,0.0,0.0,0.0,0.0,0.0,0.0,0.0,0.0,0.0,0.0,0.0,0.0,0.0,0.0,0.0,0.0,0.0,-1.4114,-1.4541,-1.4844,-1.4971,-1.5555,-1.5946,-1.6081,-1.6623,-1.7572,-1.8925,-1.8869,-1.8907,-1.8992,-1.8536,-1.8062,-1.761,-1.7762,-1.747,-1.6826,-1.6972,-1.6894,-1.6674,-1.6206,-1.6004,0.0,0.0,0.0,0.0,0.0,0.0,0.0,0.0,0.0,0.0,-1.4523,-1.4952,-1.5254,-1.5342,-1.5566,-1.5869,-1.6182,-1.7119,-1.8291,-1.9443,-2.1172,-2.293,-2.4209,-2.5078,-2.6016,-2.7441,-2.7337,-2.7063,-2.7402,0.0,0.0,0.0,0.0,0.0,0.0,0.0,0.0,0.0,0.0,0.0,0.0,0.0,0.0,0.0,0.0,0.0,0.0,0.0,0.0,0.0,0.0,0.0,0.0,0.0,-2.9629,-2.9756,-2.9685,-2.9863,-3.0391,-3.0098,-2.9883,-2.9756,-2.9756,-2.9687,-2.9728,-3.1114,-3.2125,-3.2823,-3.3632,-3.4432,-3.5108,-3.5108,-3.5659,-3.6411,0.0,0.0,0.0,0.0,0.0,0.0,0.0,0.0,0.0,0.0,0.0,0.0,0.0,0.0,0.0,0.0,0.0,0.0,0.0,-1.4287,-1.4521,-1.4521,-1.5235,-1.5688,-1.58,-1.6313,-1.6981,-1.7881,-1.7716,-1.7836,-1.8233,-1.8112,-1.7922,-1.7672,-1.8078,-1.7747,-1.6923,-1.6911,-1.676,-1.6426,-1.5986,-1.5831,-1.5762,0.0,0.0,0.0,0.0,0.0,0.0,0.0,0.0,0.0,-1.4062,-1.4453,-1.4756,-1.5264,-1.5781,-1.6367,-1.7171,-1.8164,-1.9375,-2.0791,-2.2187,-2.3584,-2.5215,-2.6269,0.0,0.0,-2.7822,-2.751,-2.7851,0.0,0.0,0.0,0.0,0.0,0.0,0.0,0.0,0.0,0.0,0.0,0.0,0.0,0.0,0.0,0.0,0.0,0.0,0.0,0.0,0.0,0.0,0.0,0.0,0.0,0.0,-2.9307,-2.9141,-2.9277,-2.9687,-2.9609,-2.9473,-2.9307,-2.9131,-2.9327,-2.9798,-3.0427,-3.0954,-3.1423,-3.2122,-3.2793,-3.3468,-3.3891,-3.4516,-3.5147,0.0,0.0,0.0,0.0,0.0,0.0,0.0,0.0,0.0,0.0,-1.4085,0.0,0.0,0.0,0.0,0.0,0.0,0.0,0.0,0.0,-1.4104,-1.4104,-1.5001,-1.5633,-1.5879,-1.6304,-1.6414,-1.6198,-1.6389,-1.6694,-1.7042,-1.7388,-1.7691,-1.7986,-1.8257,-1.8033,-1.7466,-1.6847,-1.6328,-1.588,-1.5459,-1.5264,-1.5225,-1.4873,0.0,0.0,0.0,0.0,0.0,0.0,0.0,0.0,-1.3437,-1.3539,-1.3799,-1.5,-1.626,-1.7572,-1.8828,-1.9832,-2.0869,-2.2604,-2.3188,-2.3861,-2.5928,-2.7021,-2.7725,-2.8144,0.0,-2.7373,-2.8144,0.0,0.0,0.0,0.0,0.0,0.0,0.0,0.0,0.0,0.0,0.0,0.0,0.0,0.0,0.0,0.0,0.0,0.0,0.0,0.0,0.0,0.0,0.0,0.0,0.0,0.0,0.0,-2.8476,-2.8496,-2.8877,-2.9268,-2.9238,-2.8838,-2.8457,-2.8857,-2.9765,-2.9869,-3.0494,-3.1472,-3.1575,-3.1575,-3.1728,-3.2689,-3.3051,-3.3051,0.0,0.0,0.0,0.0,0.0,0.0,0.0,0.0,0.0,0.0,0.0,0.0,0.0,0.0,0.0,0.0,0.0,0.0,0.0,0.0,-1.4104,-1.4104,-1.5586,-1.6463,-1.6498,-1.649,-1.6365,-1.6109,-1.6306,-1.6453,-1.6578,-1.7326,-1.7418,-1.7038,-1.775,-1.7278,-1.5906,-1.5742,-1.5225,-1.4513,-1.4416,-1.4377,-1.4377,-1.428,-1.3987,0.0,0.0,0.0,0.0,0.0,0.0,0.0,-1.3841,-1.3968,-1.4094,-1.4736,-1.5625,-1.6662,-1.793,-1.8916,0.0,-2.2129,-2.3881,-2.5343,-2.6201,-2.6787,-2.7275,-2.7767,-2.791,-2.8076,0.0,0.0,0.0,0.0,0.0,0.0,0.0,0.0,0.0,0.0,0.0,0.0,0.0,0.0,0.0,0.0,0.0,0.0,0.0,0.0,0.0,0.0,0.0,0.0,-2.8291,-2.8291,-2.834,0.0,-2.834,-2.834,-2.8428,-2.8525,-2.8516,-2.8418,-2.833,-2.8451,-2.8698,-2.9565,-3.0026,-3.0338,-3.1268,-3.1575,-3.1626,-3.188,-3.1931,-3.2083,0.0,0.0,0.0,0.0,0.0,0.0,0.0,0.0,0.0,0.0,0.0,0.0,0.0,0.0,0.0,0.0,0.0,0.0,0.0,0.0,-1.4289,-1.4699,-1.582,-1.6287,-1.6001,-1.6185,-1.6109,-1.5682,-1.5825,-1.6114,-1.658,-1.7625,-1.792,-1.7633,-1.8071,-1.7428,-1.5985,-1.5586,-1.4894,-1.4104,-1.4104,-1.4104,-1.4085,-1.389,-1.3665,-1.3477,-1.3281,0.0,0.0,0.0,0.0,0.0,0.0,0.0,-1.3662,-1.4287,-1.5078,-1.6123,-1.7842,-1.9092,0.0,-2.2832,0.0,-2.5537,-2.5977,-2.6406,-2.6777,-2.7012,0.0,0.0,0.0,0.0,0.0,0.0,0.0,0.0,0.0,0.0,0.0,0.0,0.0,0.0,0.0,0.0,0.0,0.0,0.0,0.0,0.0,0.0,0.0,0.0,0.0,0.0,-2.8291,-2.8291,-2.8291,-2.8291,-2.8291,-2.8291,-2.8291,-2.8291,-2.8291,-2.8291,-2.8291,-2.8291,-2.8344,-2.891,-2.9112,-2.9207,-2.9775,-3.0037,-3.0089,-3.0598,-3.0805,-3.0949,0.0,0.0,0.0,0.0,0.0,0.0,0.0,0.0,0.0,0.0,0.0,0.0,0.0,0.0,0.0,0.0,0.0,0.0,0.0,-1.3831,-1.4494,-1.5342,-1.586,-1.5878,-1.536,-1.576,-1.5722,-1.5235,-1.5293,-1.5839,-1.6941,-1.7925,-1.8422,-1.849,-1.8422,-1.7672,-1.6414,-1.5537,-1.4669,-1.389,-1.389,-1.389,-1.3851,-1.3525,-1.3398,-1.335,-1.3032,-1.2954,-1.2988,-1.2988,0.0,0.0,0.0,0.0,-1.3027,-1.3773,-1.4552,-1.5595,-1.7613,-1.9414,-2.129,-2.3613,-2.4639,0.0,-2.5537,-2.5957,-2.6299,-2.6367,0.0,0.0,0.0,0.0,0.0,0.0,0.0,0.0,0.0,0.0,0.0,0.0,0.0,0.0,0.0,0.0,0.0,0.0,0.0,0.0,0.0,0.0,0.0,0.0,0.0,-2.8291,-2.8291,-2.8291,-2.8291,-2.8291,-2.8291,-2.8291,-2.8291,-2.8291,-2.8291,-2.8291,-2.8291,-2.8291,-2.8291,-2.8291,-2.8291,-2.8291,-2.8291,-2.8291,-2.8398,-2.9313,-2.9618,-2.9775,0.0,0.0,0.0,0.0,0.0,0.0,0.0,0.0,0.0,0.0,-1.4104,-1.4133,-1.4192,-1.3467,0.0,0.0,0.0,0.0,-1.2993,0.0,0.0,-1.5342,-1.586,-1.6065,-1.5977,-1.5664,-1.5439,-1.5362,-1.5049,-1.5889,-1.7832,-1.7637,-1.7744,-1.8076,-1.7715,-1.6816,-1.5537,-1.464,-1.3792,-1.3071,-1.3071,-1.3071,-1.3037,-1.3013,-1.2993,-1.2983,-1.2925,-1.3115,-1.3418,-1.3418,-1.3418,0.0,0.0,0.0,0.0,-1.3447,-1.3899,-1.4582,-1.6056,0.0,-2.1494,0.0,-2.4255,-2.5135,0.0,0.0,-2.5937,0.0,0.0,0.0,0.0,0.0,0.0,0.0,0.0,0.0,0.0,0.0,0.0,0.0,0.0,0.0,0.0,0.0,0.0,0.0,0.0,0.0,0.0,0.0,-2.8291,-2.8291,-2.8291,0.0,-2.8291,-2.8291,-2.8291,-2.8291,-2.8291,-2.8291,-2.8291,-2.8291,-2.8291,-2.8291,-2.8291,-2.8291,-2.8291,-2.8291,-2.8291,-2.8291,-2.8291,-2.8291,-2.8291,-2.8441,-2.8495,-2.8654,0.0,0.0,0.0,0.0,0.0,0.0,0.0,0.0,0.0,0.0,0.0,-1.3851,-1.4085,-1.3379,0.0,0.0,0.0,0.0,-1.3213,-1.3574,0.0,0.0,-1.4883,-1.498,-1.498,-1.4795,-1.4669,-1.4669,-1.4484,-1.5654,-1.8008,-1.7822,-1.8477,-1.9728,-1.8603,-1.7637,-1.6748,-1.4884,-1.3763,-1.3213,-1.3003,-1.3336,-1.3893,-1.3179,-1.3345,-1.3884,-1.316,-1.2998,-1.3154,-1.3154,-1.3154,-1.3154,-1.3154,0.0,0.0,0.0,-1.3457,-1.425,-1.6543,-1.8623,-2.0625,0.0,-2.3574,-2.4111,-2.46,0.0,0.0,0.0,0.0,0.0,0.0,0.0,0.0,0.0,0.0,0.0,0.0,0.0,0.0,0.0,0.0,0.0,0.0,0.0,0.0,0.0,0.0,0.0,0.0,-2.8291,-2.8291,-2.8291,-2.8291,0.0,-2.8291,-2.8461,-2.8514,-2.8514,-2.8344,-2.8291,-2.8291,-2.8291,-2.8291,-2.8291,-2.8291,-2.8291,-2.8291,-2.8291,-2.8291,-2.8291,-2.8291,-2.8291,-2.8291,-2.8291,-2.8291,-2.8441,0.0,0.0,0.0,0.0,0.0,0.0,0.0,0.0,0.0,0.0,0.0,0.0,-1.3909,0.0,0.0,0.0,0.0,0.0,-1.333,0.0,0.0,0.0,0.0,-1.4055,-1.3948,-1.3948,-1.3948,-1.3948,-1.3948,-1.5332,-1.8008,-1.8008,-1.9277,-2.1444,-1.9699,-1.8451,-1.7549,-1.5352,-1.4192,-1.3799,-1.3486,-1.3962,-1.4727,-1.4246,-1.4551,-1.5127,-1.3945,-1.3482,-1.3336,-1.3013,-1.2905,-1.2905,0.0,0.0,0.0,0.0,0.0,-1.3906,0.0,0.0,-1.9062,-2.1543,-2.2448,-2.3003,0.0,0.0,0.0,0.0,0.0,0.0,0.0,0.0,0.0,0.0,0.0,0.0,0.0,0.0,0.0,0.0,0.0,0.0,0.0,0.0,0.0,0.0,0.0,0.0,-2.7969,-2.7969,-2.7969,-2.7969,-2.8012,-2.8114,-2.8231,-2.8572,-2.8684,-2.8621,-2.8408,-2.8291,-2.8291,-2.8291,-2.8291,-2.8291,-2.8291,-2.8291,-2.8291,-2.8291,-2.8291,-2.8291,-2.8291,-2.8291,-2.8291,-2.8291,-2.8291,-2.8388,0.0,0.0,0.0,0.0,0.0,0.0,0.0,0.0,0.0,0.0,0.0,0.0,-1.3535,-1.3145,-1.2905,-1.2905,0.0,0.0,0.0,0.0,0.0,0.0,0.0,0.0,-1.3545,-1.3545,-1.3545,-1.3545,-1.3545,-1.5068,-1.8008,-1.8008,-1.96,-2.2373,-2.0625,-1.8676,-1.6697,-1.5732,-1.5107,-1.4745,-1.4725,-1.4727,-1.4961,-1.6543,-1.6934,-1.6482,-1.5576,-1.5019,-1.4529,-1.3316,-1.2905,-1.2905,-1.2905,-1.2905,-1.2905,0.0,0.0,0.0,0.0,-1.5606,0.0,-1.8945,-2.0732,0.0,0.0,0.0,0.0,0.0,0.0,0.0,0.0,0.0,0.0,0.0,0.0,0.0,0.0,0.0,0.0,0.0,0.0,0.0,0.0,0.0,0.0,0.0,0.0,0.0,-2.708,-2.708,-2.708,-2.708,-2.7316,-2.7667,-2.8083,-2.8519,-2.8568,-2.8291,-2.8291,-2.8291,-2.8291,-2.8291,-2.8291,-2.8291,-2.8291,-2.8291,-2.8291,-2.8291,-2.8291,-2.8291,-2.8291,-2.8291,-2.8291,-2.8291,-2.8291,-2.8291,0.0,0.0,0.0,0.0,0.0,0.0,0.0,0.0,0.0,0.0,0.0,0.0,0.0,-1.3135,-1.2905,-1.2905,-1.2905,0.0,0.0,0.0,0.0,0.0,0.0,0.0,0.0,-1.3105,-1.3105,-1.3105,-1.3105,-1.4355,-1.6789,-1.6789,-1.7783,-1.9609,-1.9212,-1.8939,-1.8568,-1.6084,-1.5078,-1.5186,-1.5186,-1.5859,-1.6865,-1.6934,-1.7681,-1.8559,-1.7178,-1.6221,-1.5566,-1.5107,-1.4216,-1.3281,-1.3281,-1.3096,-1.2905,-1.2905,-1.2905,-1.3179,-1.4434,0.0,0.0,-1.793,-1.9346,-2.0439,0.0,0.0,0.0,0.0,0.0,0.0,0.0,0.0,0.0,0.0,0.0,0.0,0.0,0.0,0.0,0.0,0.0,0.0,0.0,0.0,0.0,0.0,0.0,0.0,-2.7012,-2.7012,-2.7012,-2.7012,-2.7247,-2.758,-2.7892,-2.7702,-2.7626,-2.771,-2.7859,-2.7891,-2.79,-2.8164,-2.8291,-2.8291,-2.8291,-2.8291,-2.8291,-2.8291,-2.8291,-2.8291,-2.8291,-2.8291,-2.8291,-2.8291,-2.8291,-2.8291,0.0,0.0,0.0,0.0,0.0,0.0,0.0,0.0,0.0,-1.3262,0.0,0.0,0.0,0.0,-1.2905,-1.2905,-1.2905,-1.2905,-1.2905,-1.2905,0.0,0.0,0.0,0.0,0.0,-1.2905,-1.2905,-1.2905,-1.3052,-1.3991,-1.5664,-1.5801,-1.6543,-1.7793,-1.7594,-1.8159,-1.9121,-1.6689,-1.582,-1.6084,-1.623,-1.6973,-1.8047,-1.8315,-1.916,-1.998,-1.8857,0.0,0.0,0.0,0.0,-1.4316,-1.4023,-1.3447,-1.2905,-1.2905,-1.2905,-1.3091,-1.3942,-1.4248,0.0,0.0,0.0,-1.8697,0.0,0.0,0.0,0.0,0.0,0.0,0.0,0.0,0.0,0.0,0.0,0.0,0.0,0.0,0.0,0.0,0.0,0.0,0.0,0.0,0.0,0.0,0.0,0.0,-2.6582,-2.6582,-2.6632,-2.6833,-2.7162,-2.7382,-2.7533,-2.7289,-2.7155,-2.7257,-2.7408,-2.7451,-2.7461,-2.7881,-2.8086,-2.8086,-2.8232,-2.8291,-2.8291,-2.8291,-2.8291,-2.8291,-2.8291,-2.8291,-2.8291,-2.8291,-2.8291,-2.8291,0.0,0.0,0.0,0.0,0.0,0.0,0.0,0.0,-1.2925,-1.2925,0.0,0.0,0.0,0.0,0.0,-1.2925,-1.2925,-1.2915,-1.2905,-1.2905,0.0,0.0,0.0,0.0,-1.2905,-1.2905,-1.2905,-1.2905,-1.3291,-1.3916,-1.4784,-1.5166,-1.6055,-1.7288,-1.5967,-1.6338,-1.791,-1.7471,-1.7324,-1.7422,-1.7803,-1.8008,-1.8359,-2.0869,-2.1378,-2.0674,-2.0664,-2.0106,0.0,-1.791,0.0,-1.5977,-1.5077,-1.3906,-1.2925,-1.2905,-1.2915,-1.2925,0.0,0.0,0.0,0.0,0.0,0.0,0.0,0.0,0.0,0.0,0.0,0.0,0.0,0.0,0.0,0.0,0.0,0.0,0.0,0.0,0.0,0.0,0.0,0.0,0.0,0.0,0.0,0.0,0.0,-2.5645,-2.5645,-2.5664,-2.5907,-2.6448,-2.6919,-2.714,-2.7071,-2.7252,-2.7207,-2.6982,-2.6992,-2.6992,-2.7012,-2.7451,-2.7699,-2.7718,-2.8076,-2.8262,-2.8271,-2.8291,-2.8291,-2.8291,-2.8291,-2.8291,-2.8291,-2.8291,-2.8291,-2.8291,0.0,0.0,0.0,0.0,0.0,-1.4502,-1.4153,-1.3656,-1.334,0.0,0.0,0.0,-1.334,-1.334,-1.334,-1.334,-1.334,-1.3203,-1.2925,-1.2905,-1.2905,-1.2905,-1.2905,-1.2905,-1.2905,-1.2905,-1.2905,-1.2905,-1.3023,-1.333,-1.3857,-1.3984,-1.4561,-1.5488,-1.5127,-1.5391,-1.6084,-1.5313,-1.5947,-1.7334,-1.6848,-1.7944,0.0,0.0,0.0,0.0,0.0,-2.1426,-2.0605,0.0,-1.876,-1.6731,-1.4855,-1.3841,-1.3271,-1.2993,-1.3096,-1.3271,-1.2983,0.0,0.0,0.0,0.0,0.0,0.0,0.0,0.0,0.0,0.0,0.0,0.0,0.0,0.0,0.0,0.0,0.0,0.0,0.0,0.0,0.0,0.0,0.0,0.0,0.0,0.0,0.0,0.0,-2.4738,-2.4738,-2.5078,-2.5534,-2.6187,-2.6132,-2.6201,-2.6376,-2.6261,-2.6133,-2.6044,-2.6406,-2.6562,-2.6572,-2.7002,-2.7197,-2.7207,-2.7314,-2.7549,-2.7861,-2.8164,-2.8291,-2.8291,-2.8291,-2.8291,-2.8291,-2.8291,-2.8291,-2.8291,0.0,0.0,0.0,-1.503,-1.4659,-1.4381,-1.4389,-1.4043,-1.3743,0.0,0.0,0.0,-1.3743,-1.3936,-1.3896,-1.3535,-1.3506,-1.333,-1.2935,-1.2905,-1.2905,-1.2905,-1.2905,-1.2905,-1.2905,-1.2905,-1.2905,-1.2905,-1.2905,-1.3032,-1.3242,-1.3242,-1.3516,-1.4021,-1.4021,-1.4219,-1.457,-1.3896,-1.4853,0.0,-1.7288,0.0,0.0,-2.0752,-2.167,0.0,0.0,0.0,-2.1726,-2.1726,-2.0049,0.0,0.0,-1.4767,-1.418,-1.3584,-1.3711,-1.3945,-1.3525,-1.3584,-1.3831,0.0,0.0,0.0,0.0,0.0,0.0,0.0,0.0,0.0,0.0,0.0,0.0,0.0,0.0,0.0,0.0,0.0,0.0,0.0,0.0,0.0,0.0,0.0,0.0,0.0,-2.4414,-2.4414,-2.4414,-2.4751,-2.5147,-2.5545,-2.56,-2.5699,-2.5833,-2.5741,-2.5693,-2.5693,-2.5996,-2.6113,-2.6133,-2.6553,-2.6758,-2.6768,-2.6943,-2.7158,-2.7412,-2.7656,-2.7969,-2.8291,-2.8291,-2.8291,-2.8291,-2.8291,-2.8291,-2.8291,0.0,0.0,-1.4435,-1.4435,-1.4197,-1.4185,-1.4769,-1.4455,-1.4211,0.0,-1.4319,-1.4338,-1.4387,-1.4678,-1.4541,-1.3789,-1.3633,-1.3398,-1.3003,-1.291,-1.2905,-1.2905,-1.2905,-1.2905,-1.2905,-1.2905,-1.2905,-1.2905,-1.2905,-1.2905,-1.2905,-1.2905,-1.2905,-1.2905,-1.2905,-1.3111,-1.3418,-1.3135,-1.4197,-1.6193,-1.8169,-1.9131,0.0,0.0,-2.2227,-2.2129,-2.2828,-2.2857,-2.2568,-2.2471,-2.0839,0.0,0.0,-1.6297,-1.5518,-1.4533,-1.4619,-1.4893,-1.4377,-1.4319,-1.4543,0.0,0.0,0.0,-1.6553,-1.6515,0.0,0.0,0.0,0.0,0.0,0.0,0.0,0.0,0.0,0.0,0.0,0.0,0.0,0.0,0.0,0.0,0.0,0.0,0.0,-2.4277,-2.4277,-2.4297,-2.4346,-2.4585,-2.4706,-2.4746,-2.5179,-2.5387,-2.5387,-2.5496,-2.5567,-2.5615,-2.5615,-2.5635,-2.5703,-2.6143,-2.6318,-2.6338,-2.6709,-2.6904,-2.6943,-2.6943,-2.7422,-2.8154,-2.8203,-2.8223,-2.8232,-2.8271,-2.8291,-2.8281,0.0,-1.2867,-1.4098,-1.4098,-1.4648,-1.5139,-1.5264,-1.4932,-1.4902,-1.5625,-1.5713,-1.582,-1.6151,-1.5664,-1.5225,-1.5049,-1.4387,-1.3802,-1.3408,-1.3066,-1.2905,-1.2905,-1.2905,-1.2905,-1.2905,-1.2905,-1.2905,-1.2905,-1.2905,-1.2905,-1.2905,-1.2905,-1.2905,-1.2905,-1.2905,-1.2954,-1.3037,-1.3607,0.0,-1.5605,-1.6408,0.0,-2.0439,-2.1182,-2.2029,-2.2877,-2.3033,-2.3042,-2.2867,-2.2236,-2.1435,-2.0342,0.0,0.0,0.0,-1.5625,-1.5693,-1.6151,-1.5352,-1.5654,-1.5985,0.0,0.0,0.0,-1.502,-1.5166,0.0,0.0,0.0,0.0,0.0,0.0,0.0,0.0,0.0,0.0,0.0,0.0,0.0,0.0,0.0,0.0,0.0,0.0,-2.3344,-2.3344,-2.3344,-2.35,-2.3896,-2.3961,-2.4163,-2.445,-2.4548,-2.4597,-2.4597,-2.4629,-2.4853,-2.5195,-2.5195,-2.5391,-2.5693,-2.5771,-2.5859,-2.582,-2.5908,-2.6191,-2.6514,-2.6514,-2.6807,-2.7295,-2.7646,-2.7836,-2.7885,-2.8164,-2.8291,-2.8242,-1.1016,-1.2187,-1.3148,-1.3027,-1.3654,-1.4318,-1.4884,-1.4772,-1.5012,-1.5977,-1.6476,-1.6672,-1.6426,-1.6201,-1.5781,-1.5156,-1.4484,-1.3929,-1.3535,-1.3115,-1.2905,-1.2905,-1.2905,-1.2905,-1.2905,-1.2905,-1.2905,-1.2905,-1.2905,-1.2905,-1.2905,-1.2905,-1.3023,-1.3184,-1.2993,-1.3023,-1.3203,-1.3418,-1.3994,-1.4913,-1.6894,0.0,-2.0723,-2.1726,-2.2535,-2.3091,-2.3091,-2.3091,-2.2964,-2.2168,-2.1592,0.0,0.0,-1.8965,-1.8662,0.0,-1.7135,-1.7418,-1.6336,-1.6365,-1.6551,-1.5918,0.0,0.0,0.0,0.0,-1.5352,0.0,0.0,0.0,0.0,0.0,0.0,0.0,0.0,0.0,0.0,0.0,0.0,0.0,0.0,0.0,0.0,0.0,-2.3091,-2.3091,-2.3091,-2.3188,-2.3457,-2.3467,-2.3564,-2.3725,-2.3994,-2.4102,-2.4102,-2.4316,-2.4531,-2.4746,-2.4746,-2.498,-2.54,-2.54,-2.5527,-2.5693,-2.5693,-2.581,-2.6064,-2.6064,-2.6191,-2.6445,-2.709,-2.7344,-2.7373,-2.7578,-2.7656,-2.7627,-1.0665,-1.1464,-1.2075,-1.1852,-1.2543,-1.3424,-1.4375,-1.4617,-1.5033,-1.6093,-1.6953,-1.7298,-1.6662,-1.6807,-1.659,-1.5732,-1.4873,-1.4241,-1.4014,-1.3369,-1.3023,-1.3023,-1.2954,-1.2944,-1.2998,-1.2944,-1.2905,-1.2905,-1.2905,-1.2905,-1.2905,-1.2905,-1.3066,-1.3379,-1.314,-1.3232,-1.3578,0.0,0.0,-1.5215,0.0,-1.9482,-2.0194,-2.2009,-2.273,-2.276,-2.3003,-2.3091,-2.2984,-2.2266,-2.1777,-2.1268,-2.0342,-2.0156,0.0,0.0,0.0,0.0,0.0,0.0,0.0,0.0,0.0,-1.6299,0.0,0.0,0.0,-1.6533,0.0,0.0,0.0,0.0,0.0,0.0,0.0,0.0,0.0,0.0,0.0,0.0,0.0,0.0,0.0,0.0,-2.2613,-2.2945,-2.274,-2.275,-2.3081,-2.3091,-2.3091,-2.3091,-2.3486,-2.3662,-2.3662,-2.4004,-2.4219,-2.4297,-2.4297,-2.4521,-2.4988,-2.5077,-2.5264,-2.5567,-2.5654,-2.5693,-2.5693,-2.5693,-2.5693,-2.5762,-2.6592,-2.6894,-2.6904,-2.6982,-2.7012,-2.7002,-0.9743,-1.0576,-1.1239,-1.1198,-1.2668,-1.405,-1.4514,-1.4991,-1.5624,-1.6512,-1.7402,-1.8047,-1.8286,-1.8022,-1.8115,-1.8721,-1.6621,-1.541,-1.5782,-1.4334,-1.3437,-1.3437,-1.3076,-1.3057,-1.3428,-1.3066,-1.2905,-1.2905,-1.2905,-1.2905,-1.2905,-1.2905,-1.2925,-1.2993,-1.3291,-1.3672,-1.4036,0.0,-1.5556,0.0,-1.852,-1.832,0.0,-2.0469,-2.1405,-2.1561,-2.2691,-2.3091,-2.3023,0.0,-2.2412,-2.2148,0.0,-2.1065,-2.1328,-1.9639,0.0,0.0,0.0,0.0,0.0,0.0,-1.8688,0.0,0.0,0.0,-1.6093,-1.4757,0.0,0.0,0.0,0.0,0.0,0.0,0.0,0.0,0.0,0.0,0.0,0.0,0.0,0.0,0.0,0.0,0.0,-2.2461,-2.1514,-2.1523,-2.3013,-2.3091,-2.3091,-2.3091,-2.314,-2.3169,-2.3169,-2.3218,-2.3477,-2.3857,-2.3857,-2.4082,-2.4502,-2.4893,-2.5145,-2.5166,-2.5566,-2.5693,-2.5693,-2.5693,-2.5693,-2.5732,-2.6269,-2.6455,-2.6504,-2.6875,-2.7012,-2.6963,-0.9588,-1.0202,-1.0661,-1.0528,-1.172,-1.277,-1.3053,-1.4747,-1.6154,-1.6646,-1.7662,-1.8403,-1.8588,-1.8442,-1.8481,-1.8841,0.0,-1.6447,0.0,0.0,-1.4141,-1.386,-1.3467,-1.333,-1.3506,-1.3096,-1.2905,-1.2905,-1.2905,-1.2905,-1.2905,-1.2905,-1.3145,-1.3588,-1.3763,-1.4385,-1.5225,0.0,-1.5381,0.0,0.0,0.0,0.0,-2.0937,-2.2292,-2.237,-2.2906,-2.3091,-2.2994,0.0,-2.2148,0.0,0.0,0.0,0.0,0.0,0.0,0.0,0.0,0.0,0.0,0.0,0.0,0.0,-1.6396,0.0,-1.5878,0.0,0.0,0.0,0.0,0.0,0.0,0.0,0.0,0.0,0.0,0.0,0.0,0.0,0.0,0.0,0.0,0.0,0.0,0.0,0.0,-2.084,-2.2334,-2.2646,-2.2847,-2.3091,-2.3091,-2.3091,-2.3091,-2.3091,-2.3188,-2.3408,-2.3408,-2.3633,-2.4062,-2.4238,-2.4463,-2.4717,-2.5156,-2.5352,-2.5371,-2.5586,-2.5693,-2.5703,-2.5937,-2.6006,-2.6035,-2.6161,-2.6269,-2.62,-0.9588,-0.9899,-1.0138,-0.9982,-1.0819,-1.1808,-1.2585,-1.4447,-1.6016,-1.6786,-1.761,-1.8338,-1.8909,-1.8948,0.0,-1.9621,-1.8701,-1.7803,0.0,0.0,-1.5176,-1.4835,-1.4075,-1.3714,-1.3857,-1.333,-1.3023,-1.2905,-1.2905,-1.2905,-1.2905,-1.2905,-1.3203,-1.3782,-1.4133,-1.4971,-1.6065,0.0,-1.6084,-1.7051,-1.7578,-1.8032,-1.8754,-2.1522,-2.2789,-2.3091,-2.3091,-2.3091,-2.2984,-2.2305,-2.206,0.0,-2.1924,0.0,0.0,0.0,0.0,0.0,-2.0049,0.0,0.0,0.0,0.0,0.0,0.0,0.0,0.0,0.0,0.0,0.0,0.0,0.0,0.0,0.0,0.0,0.0,0.0,0.0,0.0,0.0,0.0,0.0,0.0,0.0,0.0,0.0,0.0,0.0,-2.1611,-2.2109,-2.2539,-2.2916,-2.3033,-2.3091,-2.3091,-2.3091,-2.3091,-2.3091,-2.3091,-2.3257,-2.3613,-2.374,-2.3955,-2.4268,-2.4697,-2.4893,-2.4912,-2.5244,-2.5401,-2.5557,-2.5557,-2.5586,-2.5693,-2.5693,-2.5693,-2.5693,-0.9588,-0.9614,-0.9614,-0.9629,-1.045,-1.19,-1.4161,-1.4268,-1.4888,-1.7083,0.0,0.0,0.0,0.0,0.0,0.0,0.0,-1.9824,-1.9795,0.0,-1.6629,-1.6619,-1.4991,-1.428,0.0,-1.3916,-1.3291,-1.2905,-1.2905,-1.2905,-1.2905,-1.2905,-1.2925,-1.2993,-1.4246,-1.5283,-1.6144,-1.6975,-1.875,-2.0976,-2.0605,-2.1445,-2.2769,0.0,-2.2029,-2.3091,-2.3091,0.0,0.0,-2.2637,-2.249,0.0,0.0,0.0,0.0,0.0,0.0,0.0,0.0,0.0,0.0,-1.8662,0.0,0.0,0.0,0.0,-1.7112,0.0,0.0,0.0,0.0,-1.6328,-1.5762,-1.4922,-1.4813,0.0,0.0,0.0,0.0,0.0,0.0,0.0,0.0,0.0,0.0,0.0,0.0,0.0,-2.1054,-2.167,-2.21,-2.2519,-2.2886,-2.3091,-2.3091,-2.3091,-2.3091,-2.3091,-2.3091,-2.3101,-2.313,-2.3594,-2.3799,-2.3838,-2.4258,-2.4443,-2.4443,-2.4453,-2.4707,-2.5135,-2.5135,-2.5352,-2.5693,-2.5693,-2.5693,-2.5693,-0.9588,-0.9588,-0.9588,-0.9588,-1.0179,-1.1274,-1.3194,-1.4304,-1.5313,0.0,0.0,0.0,0.0,-1.9879,-2.0334,0.0,0.0,-1.9972,-1.9412,-1.849,0.0,-1.7954,-1.6328,-1.5508,0.0,0.0,-1.3695,-1.3301,-1.3042,-1.2905,-1.2905,-1.2905,-1.3027,-1.334,-1.4336,-1.5586,0.0,0.0,0.0,0.0,0.0,-2.1602,-2.3052,0.0,0.0,-2.3091,-2.3091,-2.3091,0.0,-2.2925,-2.2744,-2.2539,-2.2676,-2.2432,-2.2129,-2.2266,-2.2207,0.0,0.0,0.0,-2.1816,-1.9775,0.0,0.0,0.0,0.0,0.0,0.0,0.0,0.0,0.0,-1.6367,-1.5909,-1.5293,-1.4727,-1.4075,0.0,0.0,0.0,0.0,0.0,0.0,0.0,0.0,0.0,0.0,0.0,0.0,0.0,-2.1055,-2.1777,-2.249,-2.2877,-2.3091,-2.3091,-2.3091,-2.3091,-2.3091,-2.3091,-2.3091,-2.3101,-2.3247,-2.3359,-2.3379,-2.3818,-2.4004,-2.4023,-2.4307,-2.4502,-2.4639,-2.4639,-2.4727,-2.4884,-2.5469,-2.5693,-2.5693,-0.961,-0.9588,-0.9588,0.0,0.0,-1.1142,-1.2613,0.0,0.0,0.0,-1.7702,0.0,-1.8982,0.0,-2.0031,0.0,-2.0324,-2.0208,-1.9878,-1.9316,0.0,-1.9065,-1.7734,0.0,0.0,0.0,-1.4669,-1.3965,-1.3535,-1.3174,-1.2905,-1.2905,-1.3052,-1.333,0.0,-1.5664,-1.7207,-1.8096,-1.9141,0.0,0.0,-2.2148,0.0,0.0,-2.3091,-2.3091,0.0,-2.3091,-2.3091,-2.3091,-2.2916,-2.2783,-2.3013,-2.2721,-2.2383,-2.2656,-2.2539,-2.2305,-2.2148,-2.2305,0.0,0.0,-1.9941,0.0,-1.7578,0.0,0.0,0.0,0.0,0.0,0.0,0.0,-1.6418,-1.5957,-1.5001,-1.4111,0.0,0.0,0.0,0.0,0.0,0.0,0.0,0.0,-1.5225,-1.6406,0.0,0.0,0.0,0.0,-2.1094,-2.1797,-2.2539,-2.2877,-2.2877,-2.3023,-2.3091,-2.3091,-2.3091,-2.3091,-2.3091,-2.3091,-2.3091,-2.311,-2.3437,-2.3555,-2.3584,-2.3848,-2.4053,-2.4199,-2.4199,-2.4287,-2.4482,-2.5011,-2.5313,-2.5518,-0.9672,-0.9636,0.0,0.0,-1.0441,0.0,0.0,0.0,-1.4622,0.0,-1.6636,-1.7224,-1.8768,-1.8972,-1.9652,-2.1355,-2.0647,-2.0404,-2.1032,-2.0248,0.0,0.0,-1.9018,-1.8544,-1.8524,0.0,0.0,0.0,-1.4299,-1.3646,-1.2935,-1.2915,-1.2905,-1.2964,-1.4216,0.0,-1.6775,-1.8525,-2.0283,-2.1992,-2.2769,-2.3091,-2.3091,-2.3091,0.0,-2.3091,-2.3091,-2.3091,-2.3091,-2.3091,-2.3091,-2.3091,-2.3091,-2.3091,-2.3091,-2.3091,-2.3091,-2.3013,-2.2646,-2.2539,-2.2246,-2.1016,0.0,0.0,0.0,0.0,-1.9736,0.0,0.0,0.0,0.0,0.0,-1.722,-1.6746,-1.5625,-1.4383,-1.314,0.0,0.0,0.0,0.0,0.0,0.0,-1.4014,-1.4248,-1.5909,-1.5635,0.0,0.0,0.0,0.0,-2.0586,-2.1816,-2.248,-2.248,-2.2857,-2.3062,-2.3062,-2.3081,-2.3091,-2.3091,-2.3091,-2.3091,-2.3091,-2.3091,-2.3091,-2.3091,-2.3091,-2.3379,-2.376,-2.376,-2.4004,-2.4355,-2.4394,-2.4697,-2.5127,-0.9629,-1.0002,-1.0411,0.0,-1.0733,-1.1122,0.0,0.0,0.0,0.0,-1.7265,-1.8181,-1.7773,-1.8389,-1.8734,-1.8449,-1.888,0.0,0.0,0.0,0.0,-1.9655,-1.857,-1.78,-1.7541,-1.6298,0.0,-1.4802,0.0,-1.3252,-1.334,-1.3027,-1.2905,-1.2944,0.0,0.0,-1.6378,-1.8076,-2.0176,-2.2402,-2.2886,-2.3091,0.0,0.0,-2.3091,-2.3091,-2.3091,-2.3091,-2.3091,-2.3091,-2.3091,-2.3091,-2.3091,-2.3091,-2.3091,-2.3091,-2.3091,-2.3071,-2.2964,-2.2935,-2.2779,-2.2178,-2.1533,-2.0859,0.0,0.0,0.0,0.0,0.0,0.0,0.0,0.0,0.0,-1.6362,-1.5449,-1.4561,-1.388,0.0,0.0,0.0,0.0,0.0,0.0,0.0,-1.4639,-1.5107,0.0,0.0,0.0,0.0,0.0,-2.0566,-2.1533,-2.2041,-2.2041,-2.2461,-2.2676,-2.2676,-2.2945,-2.3091,-2.3091,-2.3091,-2.3091,-2.3091,-2.3091,-2.3091,-2.3091,-2.3091,-2.3159,-2.3257,-2.3257,-2.3325,-2.35,-2.4134,-2.4697,-2.5135,-1.0038,0.0,0.0,-1.167,0.0,0.0,-1.2833,0.0,0.0,-1.5311,-1.6823,0.0,-1.6956,-1.7658,-1.8102,-1.7971,-1.8056,0.0,-1.8844,0.0,0.0,-1.9322,-1.8829,-1.8363,-1.8023,-1.6848,0.0,-1.5047,0.0,0.0,-1.3232,-1.3013,-1.2905,0.0,0.0,-1.4853,-1.6242,-1.8506,-2.0439,-2.196,-2.2574,0.0,0.0,-2.3091,-2.3091,-2.3091,-2.3091,-2.3091,-2.3091,-2.3091,-2.3091,-2.3091,-2.3091,-2.3091,-2.3091,-2.3091,-2.3091,-2.3091,-2.3091,-2.3091,-2.3042,-2.2799,-2.2072,-2.1297,-2.0965,-2.0726,-2.0507,0.0,0.0,0.0,0.0,0.0,0.0,-1.5662,-1.4941,-1.4414,0.0,0.0,0.0,0.0,0.0,0.0,0.0,0.0,0.0,0.0,0.0,0.0,0.0,0.0,0.0,0.0,-2.0947,-2.1602,-2.1602,-2.2021,-2.2236,-2.2236,-2.248,-2.2685,-2.2818,-2.2818,-2.2925,-2.3091,-2.3091,-2.3091,-2.3091,-2.3091,-2.3091,-2.3091,-2.3091,-2.3091,-2.3149,-2.3637,-2.4141,-2.4607,-1.0763,0.0,0.0,0.0,0.0,0.0,0.0,-1.4231,0.0,-1.5467,0.0,-1.6536,-1.6536,-1.6996,-1.7652,-1.8519,0.0,-1.772,-1.8717,-1.868,-1.8662,-1.8787,-1.9106,-1.9142,-1.8817,-1.7725,-1.6604,0.0,-1.4579,-1.3793,-1.2983,-1.291,0.0,0.0,0.0,0.0,0.0,-1.9304,-2.0801,0.0,-2.2246,-2.2769,-2.3091,-2.3091,-2.3091,-2.3091,-2.3091,-2.3091,-2.3091,-2.3091,-2.3091,-2.3091,-2.3091,-2.3091,-2.3091,-2.3091,-2.3091,-2.3081,-2.3033,-2.2916,-2.2863,-2.2805,-2.2077,-2.1307,-2.1021,-2.0316,-1.9879,-2.0327,-1.9112,0.0,0.0,0.0,0.0,-1.5148,0.0,0.0,0.0,0.0,0.0,0.0,0.0,0.0,0.0,0.0,0.0,0.0,0.0,0.0,0.0,0.0,0.0,0.0,-2.0177,0.0,-2.1103,0.0,-2.1807,-2.1807,-2.1855,-2.208,-2.2432,-2.2432,-2.2627,-2.2935,-2.2984,-2.3013,-2.3013,-2.3071,-2.3091,-2.3091,-2.3091,-2.3091,-2.3091,-2.3091,-2.3379,-2.3818,-1.1646,0.0,0.0,0.0,0.0,-1.4479,-1.4973,-1.5189,-1.5489,-1.6118,-1.6762,-1.7157,-1.7157,-1.726,-1.7372,-1.7552,-1.7419,0.0,0.0,0.0,0.0,-1.7619,-1.7665,-1.759,-1.7304,-1.6425,-1.5763,-1.5305,-1.4193,-1.3562,-1.3389,-1.3071,-1.2905,0.0,0.0,0.0,-1.7318,-1.9209,0.0,-2.1846,-2.2685,-2.3033,-2.3091,-2.3091,-2.3091,-2.3091,-2.3091,-2.3091,-2.3091,-2.3091,-2.3091,-2.3091,-2.3091,-2.3091,-2.3091,-2.3091,-2.3091,-2.3023,-2.2715,-2.2083,-2.1463,-2.1137,-2.0355,-1.9694,-1.9662,-1.9491,-1.9423,-1.9521,-1.8642,-1.7846,-1.794,0.0,0.0,0.0,0.0,0.0,0.0,0.0,0.0,0.0,0.0,0.0,0.0,0.0,0.0,0.0,0.0,0.0,0.0,0.0,0.0,0.0,0.0,0.0,0.0,0.0,0.0,-2.1317,-2.1719,-2.1924,-2.1992,-2.1992,-2.2031,-2.2129,-2.2471,-2.2627,-2.2646,-2.2955,-2.3091,-2.3091,-2.3091,-2.3091,-2.3091,-2.3091,-2.314,-2.3286,0.0,0.0,0.0,0.0,0.0,0.0,0.0,-1.6199,0.0,-1.6419,-1.6638,-1.6828,-1.6828,-1.7128,-1.7279,-1.7279,-1.7279,-1.7279,-1.7279,-1.7279,-1.7279,-1.7279,-1.7279,0.0,-1.691,-1.6178,-1.5653,-1.5286,-1.3896,-1.3303,-1.3496,-1.2794,-1.2627,-1.2939,0.0,-1.5193,0.0,0.0,0.0,-2.158,-2.1907,-2.218,-2.2325,-2.1774,-2.1596,-2.1596,-2.1596,-2.1596,-2.173,-2.2775,-2.3091,-2.3003,-2.2511,-2.2369,-2.2369,-2.2369,-2.2006,-2.1638,-2.1782,-2.1176,-2.0383,-2.0034,-1.9204,-1.8589,-1.8862,-1.8566,-1.8305,-1.8579,-1.7862,-1.7061,-1.6464,-1.5856,0.0,0.0,0.0,0.0,0.0,0.0,0.0,0.0,0.0,0.0,0.0,0.0,0.0,0.0,0.0,0.0,0.0,0.0,0.0,0.0,0.0,0.0,0.0,0.0,0.0,-2.0889,-2.1103,-2.1328,-2.1553,-2.1553,-2.167,-2.1904,-2.2334,-2.2383,-2.2217,-2.2604,-2.2896,-2.3091,-2.3091,-2.3091,-2.3091,-2.3091,-2.3091,-2.3159,0.0,-1.445,0.0,0.0,-1.5577,0.0,-1.6375,-1.6916,-1.715,-1.6638,-1.6572,-1.6572,-1.6572,-1.7026,-1.7279,-1.7279,-1.7279,-1.7279,-1.7279,-1.7279,-1.7279,-1.7279,-1.7279,-1.7208,-1.7005,-1.6404,-1.5842,0.0,-1.3896,-1.3239,-1.3306,-1.2507,-1.2415,0.0,0.0,0.0,0.0,0.0,-1.9712,-2.0898,-2.1114,-2.1279,-2.1329,-2.0737,-2.0367,-2.0187,-2.0187,-2.0187,-2.0413,-2.1961,-2.2457,-2.2369,-2.1596,-2.1373,-2.1373,-2.1373,-2.0827,-2.0273,-2.0647,-2.0087,-1.927,-1.8863,-1.803,-1.7402,-1.7837,-1.7363,-1.6956,-1.7376,-1.6911,-1.6209,-1.5521,-1.5399,0.0,0.0,0.0,0.0,0.0,0.0,0.0,0.0,0.0,0.0,0.0,0.0,0.0,0.0,0.0,0.0,-1.4211,-1.5244,0.0,0.0,0.0,0.0,-1.9775,0.0,-2.0605,0.0,-2.0605,-2.0752,-2.1094,-2.1094,-2.1279,-2.1672,-2.206,-2.2109,-2.1924,-2.2344,-2.2705,-2.2974,-2.3062,-2.3091,-2.3091,-2.3091,-2.3091,-2.314,0.0,0.0,0.0,0.0,0.0,0.0,0.0,-1.6916,-1.7264,-1.7198,-1.7238,-1.7238,-1.7238,-1.7296,-1.7279,-1.7279,-1.7279,-1.7279,-1.7279,-1.7279,-1.7279,-1.7279,-1.7279,-1.7311,-1.7235,-1.6945,-1.6316,0.0,0.0,-1.3692,-1.278,-1.2376,0.0,0.0,0.0,0.0,0.0,-1.7519,-1.8655,-1.9878,-2.1148,-2.1114,-2.0413,-2.1239,-2.1006,-2.0187,-2.0187,-2.0187,-2.0232,-2.0413,-2.0458,-2.0458,-2.0367,-2.0322,-2.0322,-2.0322,-2.0277,-2.0078,-1.9445,-1.8654,-1.7836,-1.7127,-1.628,-1.5629,-1.5683,-1.5634,-1.5585,-1.5631,-1.559,-1.5506,-1.5413,-1.5395,-1.5444,0.0,0.0,0.0,0.0,0.0,-1.4388,-1.3052,0.0,0.0,0.0,0.0,0.0,0.0,0.0,0.0,0.0,-1.4834,0.0,-1.7367,0.0,-1.887,-1.9346,-2.0194,0.0,-2.0605,-2.0605,-2.0625,-2.0664,-2.0664,-2.0693,-2.0752,-2.1162,-2.1562,-2.1924,-2.2344,-2.2539,-2.2607,-2.2945,-2.3091,-2.3091,-2.3091,-2.3091,-2.3101,0.0,0.0,0.0,0.0,0.0,0.0,0.0,-1.7118,-1.7279,-1.7279,-1.7279,-1.7279,-1.7279,-1.7279,-1.7279,-1.7279,-1.7279,-1.7279,-1.7279,-1.7279,-1.7279,-1.7279,-1.7279,-1.7279,-1.7279,-1.7018,-1.6698,0.0,0.0,-1.4089,-1.3944,-1.305,0.0,0.0,0.0,-1.5439,-1.6392,-1.7579,-1.8667,-1.963,-1.987,-1.9741,-1.933,-1.9147,-1.8834,-1.8465,-1.8465,-1.8465,-1.8465,-1.8465,-1.9239,-2.0096,-1.9559,-1.9376,-1.9376,-1.9376,-1.8819,-1.8232,-1.8303,-1.751,-1.6531,-1.6061,-1.5665,-1.5389,-1.5389,-1.5389,-1.5389,-1.5389,-1.5389,-1.5384,-1.5397,-1.54,-1.5416,0.0,0.0,0.0,0.0,0.0,0.0,-1.249,0.0,-1.2247,0.0,0.0,0.0,0.0,0.0,0.0,0.0,0.0,0.0,-1.6172,0.0,-1.7954,-1.8159,-1.8751,-1.9036,-1.9045,-1.9569,-1.9814,-1.9854,-2.0372,-2.0752,-2.0967,-2.0869,-2.123,-2.1875,-2.1787,-2.2051,-2.2529,-2.2695,-2.2877,-2.3091,-2.3091,-2.3091,-2.3091,-1.6536,0.0,-1.636,0.0,-1.6799,-1.6806,-1.7213,-1.7279,-1.7279,-1.7279,-1.7279,-1.7279,-1.7279,-1.7279,-1.7279,-1.7279,-1.7279,-1.7279,-1.7279,-1.7279,-1.7279,-1.7279,-1.7279,0.0,-1.7279,-1.7106,-1.6944,-1.6763,-1.5279,0.0,-1.4804,0.0,0.0,0.0,-1.5109,-1.5825,-1.6485,-1.7456,-1.8282,-1.8934,-1.8822,-1.8603,-1.8288,-1.7924,-1.7559,-1.7279,-1.7279,-1.7279,-1.7279,-1.7279,-1.8187,-1.9239,-1.8557,-1.838,-1.838,-1.838,-1.7712,-1.7076,-1.7303,-1.6722,-1.595,-1.5491,-1.5389,-1.5389,-1.5389,-1.5389,-1.5389,-1.5389,-1.5277,-1.5174,-1.5228,-1.5258,-1.5183,0.0,0.0,0.0,0.0,0.0,0.0,0.0,-1.2143,-1.188,-1.1434,0.0,0.0,0.0,0.0,0.0,0.0,0.0,0.0,0.0,0.0,0.0,0.0,0.0,-1.7997,-1.7997,-1.8607,-1.8935,-1.8935,-1.9559,-2.0004,-2.0238,-2.0222,-2.0561,-2.1159,-2.1178,-2.1551,-2.2148,-2.2275,-2.251,-2.2773,-2.2773,-2.2773,-2.274,-1.6829,-1.6895,-1.6991,-1.7267,-1.7271,-1.7271,-1.7279,-1.7279,-1.7279,-1.7279,-1.7279,-1.7279,-1.7279,-1.7279,-1.7279,-1.7279,-1.7279,-1.7279,-1.7279,-1.7279,-1.7279,0.0,0.0,-1.7279,-1.7279,-1.7279,-1.7011,-1.6404,0.0,0.0,-1.4918,0.0,-1.5039,-1.5416,-1.5745,-1.6243,-1.6881,-1.6895,-1.7086,-1.7412,-1.8427,-1.8195,-1.7419,-1.8427,-1.8156,-1.7279,-1.7279,-1.7279,-1.7279,-1.7279,-1.7326,-1.7326,-1.7326,-1.7326,-1.7326,-1.7326,-1.7326,-1.7186,-1.6587,-1.6411,-1.6213,-1.5584,-1.5389,-1.5389,-1.5389,-1.5389,-1.5389,-1.5389,-1.4926,-1.4575,-1.4849,-1.49,-1.4688,-1.4099,0.0,0.0,0.0,0.0,0.0,0.0,-1.3045,-1.2721,-1.1527,0.0,0.0,0.0,0.0,0.0,0.0,0.0,0.0,-1.5743,-1.607,0.0,-1.7396,-1.7782,-1.7997,-1.7997,-1.7997,-1.8037,-1.8037,-1.8037,-1.8037,-1.8086,-1.8935,-1.9301,-1.9427,-2.0686,-2.12,-2.1249,-2.1728,-2.1894,-2.1904,-2.1904,-2.1904,-2.1963,-1.7157,-1.7179,-1.7208,-1.7311,-1.7279,-1.7279,-1.7279,-1.7279,-1.7279,-1.7279,-1.7279,-1.7279,-1.7279,-1.7279,-1.7279,0.0,-1.7279,-1.7279,0.0,-1.7279,-1.7279,-1.7279,-1.7279,-1.7279,-1.7279,-1.7279,-1.723,-1.7026,0.0,0.0,0.0,-1.5564,-1.5774,-1.6082,-1.6411,-1.6712,-1.6917,-1.7091,-1.7238,-1.7326,-1.7652,-1.7606,-1.7326,-1.7645,-1.7606,-1.7279,-1.7279,-1.7279,-1.7279,-1.7279,-1.7279,-1.7279,-1.7279,-1.7279,-1.7279,-1.7279,-1.7018,-1.663,-1.647,-1.6052,-1.5679,-1.5433,-1.5389,-1.5389,-1.5389,-1.5389,-1.5323,-1.5104,-1.5068,-1.5087,-1.4922,-1.5082,-1.509,-1.4666,0.0,0.0,0.0,0.0,0.0,0.0,-1.2351,-1.2158,0.0,-1.2283,0.0,0.0,0.0,0.0,0.0,0.0,0.0,0.0,-1.5209,0.0,-1.5679,-1.6071,-1.6237,-1.6229,-1.6829,-1.7432,-1.7997,-1.7997,-1.7997,-1.8037,-1.8278,-1.8407,-1.8456,-1.8861,-1.9187,-1.9438,-1.9605,-2.0214,-2.1015,-2.1015,-2.1409,-2.1953,-1.7279,-1.7279,-1.7279,-1.7279,-1.7279,-1.7279,-1.7279,-1.7279,-1.7279,-1.7279,-1.7279,-1.7279,-1.7279,-1.7279,0.0,-1.7279,-1.7279,-1.7279,-1.7279,-1.7279,-1.7279,-1.7279,-1.7279,-1.7279,-1.7279,0.0,0.0,-1.7279,-1.6923,-1.663,-1.6448,-1.6448,-1.655,-1.674,-1.6945,-1.7033,-1.7047,-1.7245,-1.7279,-1.7279,-1.7279,-1.7279,-1.7279,-1.7279,-1.7279,-1.7279,-1.7279,-1.7279,-1.7279,-1.7279,-1.7279,-1.7279,-1.7279,-1.7279,-1.7257,-1.7186,-1.6865,-1.6543,-1.6265,-1.5913,-1.5542,-1.5418,-1.5389,-1.5389,-1.5389,-1.5294,-1.5185,-1.5097,-1.5053,-1.5006,-1.4801,-1.4988,-1.5061,-1.4615,0.0,-1.4284,-1.3587,0.0,0.0,0.0,0.0,0.0,0.0,-1.2506,0.0,0.0,0.0,0.0,0.0,0.0,0.0,-1.3596,-1.4631,0.0,-1.5144,-1.5307,-1.5389,-1.5431,-1.594,-1.6509,-1.7033,-1.7033,-1.7033,-1.7033,-1.735,-1.7513,-1.7553,-1.7876,-1.8134,-1.8381,-1.8381,-1.8897,-1.9623,-1.9623,-1.9962,-2.0488,-1.7279,-1.7279,0.0,0.0,-1.7279,0.0,-1.7279,-1.7279,-1.7279,-1.7279,-1.7279,-1.7279,-1.7279,-1.7279,-1.7279,-1.7279,0.0,0.0,0.0,-1.7279,-1.7279,-1.7279,-1.7279,0.0,-1.7279,-1.7279,-1.7279,-1.7279,-1.7279,-1.7279,-1.7279,-1.7279,-1.7279,-1.7279,-1.7279,-1.7279,-1.7279,-1.7279,-1.7279,-1.7279,-1.7279,-1.7279,-1.7279,-1.7279,-1.7279,-1.7279,-1.7279,-1.7279,-1.7279,-1.7279,-1.7279,-1.7279,-1.7279,-1.7279,-1.7267,-1.702,-1.6903,-1.6734,-1.6104,-1.5913,-1.5811,-1.5462,-1.5389,-1.5389,-1.5389,-1.5155,-1.5017,-1.5294,-1.494,-1.457,-1.454,-1.4743,-1.4696,-1.4121,-1.4269,-1.421,-1.3521,0.0,0.0,0.0,0.0,0.0,0.0,-1.2726,-1.2818,0.0,0.0,0.0,0.0,0.0,0.0,-1.4058,-1.4328,-1.4854,-1.5543,-1.5468,-1.5389,-1.5389,-1.5389,-1.5389,-1.5389,-1.5389,-1.5389,-1.5472,-1.6263,-1.6617,-1.6657,-1.7472,-1.7836,-1.7836,-1.7836,-1.7876,-1.7917,-1.7917,-1.7957,-1.8049,0.0,0.0,-1.7279,-1.7279,-1.7279,-1.7279,-1.7279,-1.7279,-1.7279,-1.7279,-1.7279,-1.7279,-1.7279,-1.7279,-1.7279,-1.7279,-1.7279,-1.7279,-1.7279,-1.7279,-1.7279,-1.7279,-1.7279,-1.7279,-1.7279,-1.7279,-1.7279,-1.7279,-1.7279,-1.7279,-1.7279,-1.7279,-1.7279,-1.7279,-1.7279,-1.7279,-1.7279,-1.7279,-1.7279,-1.7279,-1.7279,-1.7279,-1.7279,-1.7279,-1.7279,-1.7279,-1.7279,-1.7279,-1.7279,-1.7279,-1.7279,-1.7279,-1.7279,-1.7279,-1.7311,-1.7238,-1.6872,-1.6492,-1.6301,-1.5913,-1.5484,-1.5411,-1.5389,-1.5389,-1.5389,-1.533,-1.5228,-1.5053,-1.5097,-1.5123,-1.4834,-1.4849,-1.4769,-1.446,-1.4004,-1.3499,-1.284,-1.2587,0.0,0.0,-1.2602,-1.2766,-1.2513,-1.3018,-1.3216,0.0,0.0,0.0,0.0,0.0,-1.3873,-1.3641,-1.4198,-1.47,-1.5056,-1.5308,-1.5389,-1.5389,-1.5389,-1.5389,-1.5389,-1.5389,-1.5389,-1.5431,-1.5624,-1.5707,-1.5707,-1.5948,-1.6031,-1.6031,-1.6031,-1.6427,-1.7025,-1.7025,-1.7423,-1.8049,-1.6857,-1.6803,-1.6709,-1.6332,-1.6567,-1.6803,-1.6803,-1.7091,-1.7279,-1.7279,-1.7279,-1.7279,-1.7279,-1.7279,-1.7279,-1.7279,-1.7279,-1.7279,-1.7279,-1.7279,-1.7279,-1.7279,-1.7279,-1.7279,-1.7279,-1.7279,-1.7279,-1.7279,-1.7279,-1.7279,-1.7279,-1.7279,-1.7279,-1.7279,-1.7279,-1.7279,-1.7279,-1.7279,-1.7279,-1.7279,-1.7279,-1.7279,-1.7279,-1.7279,-1.7279,-1.7279,-1.7279,-1.7279,-1.7279,-1.7279,-1.7279,-1.7279,-1.7279,-1.7279,-1.7279,-1.7279,-1.6872,-1.6382,-1.6199,-1.5804,-1.5389,-1.5389,-1.5389,-1.5389,-1.5389,-1.5389,-1.5338,-1.5163,-1.5265,-1.5287,-1.4966,-1.49,-1.4703,-1.4121,-1.385,-1.344,-1.2636,-1.2616,0.0,-1.247,-1.2797,-1.2994,-1.2965,-1.3287,-1.3415,-1.3184,0.0,0.0,-1.3419,-1.38,-1.3921,-1.3711,-1.4247,-1.4626,-1.49,-1.5228,-1.5389,-1.5389,-1.5389,-1.5389,-1.5389,-1.5389,-1.5389,-1.5389,-1.5389,-1.5389,-1.5389,-1.5389,-1.5389,-1.5389,-1.5389,-1.5707,-1.6105,-1.6105,-1.6427,-1.6902,-1.6143,-1.6048,-1.5859,-1.5194,-1.5622,-1.6048,-1.6048,-1.6574,-1.6951,-1.6951,-1.7044,-1.7138,-1.7138,-1.7232,-1.7279,-1.7279,-1.7279,-1.7279,-1.7279,-1.7279,-1.7279,-1.7279,-1.7279,-1.7279,-1.7279,-1.7279,-1.7279,-1.7279,-1.7279,-1.7279,-1.7279,-1.7279,-1.7279,-1.7279,-1.7279,-1.7279,-1.7279,-1.7279,-1.7279,-1.7279,-1.7279,-1.7279,-1.7279,-1.7279,-1.7279,-1.7279,-1.7279,-1.7279,-1.7279,-1.7279,-1.7279,-1.7279,-1.7279,-1.7279,-1.7279,-1.7279,-1.6872,-1.6353,-1.6052,-1.5673,-1.5389,-1.5389,-1.5389,-1.5389,-1.5389,-1.5389,-1.5389,-1.5389,-1.5389,-1.5301,-1.5024,-1.4893,-1.4542,-1.3711,-1.3718,-1.3528,-1.2616,0.0,-1.3009,-1.3009,-1.3053,-1.3192,-1.347,-1.3492,-1.3492,-1.3492,-1.3492,0.0,0.0,-1.3762,-1.3953,-1.4048,-1.4408,-1.4692,-1.4973,-1.525,-1.5389,-1.5389,-1.5389,-1.5389,-1.5389,-1.5389,-1.5389,-1.5389,-1.5389,-1.5389,-1.5389,-1.5389,-1.5389,-1.5389,-1.5389,-1.5389,-1.5389,-1.5389,-1.5389,-1.5506,-1.5289,-1.5289,-1.5242,-1.5099,-1.5194,-1.5289,-1.5289,-1.5384,-1.5432,-1.5432,-1.6001,-1.6379,-1.6379,-1.6951,-1.7279,-1.7279,-1.7279,-1.7279,-1.7279,-1.7279,-1.7279,-1.7279,-1.7279,-1.7279,-1.7279,-1.7279,-1.7279,-1.7279,-1.7279,-1.7279,-1.7279,-1.7279,-1.7279,-1.7279,-1.7279,-1.7279,-1.7279,-1.7279,-1.7279,-1.7279,-1.7279,-1.7279,-1.7279,-1.7279,-1.7279,-1.7279,-1.7279,-1.7279,-1.7279,-1.7279,-1.7279,-1.7279,-1.7279,-1.7279,-1.7279,-1.7279,-1.6872,-1.6404,-1.6353,-1.5877,-1.5389,-1.5389,-1.5389,-1.5389,-1.5389,-1.5389,-1.5389,-1.5389,-1.5389,-1.5374,-1.5323,-1.4911,-1.4399,-1.3975,-1.3484,-1.3009,0.0,0.0,-1.3009,-1.3009,-1.325,-1.344,-1.3492,-1.3492,-1.3492,-1.3492,-1.3492,-1.3492,-1.3492,-1.3543,-1.3821,-1.4416,-1.4699,-1.498,-1.5309,-1.536,-1.5389,-1.5389,-1.5389,-1.5389,-1.5389,-1.5389,-1.5389,-1.5389,-1.5389,-1.5389,-1.5389,-1.5389,-1.5389,-1.5389,-1.5389,-1.5389,-1.5389,-1.5389,-1.5389,-1.5431,-1.4526,-1.458,-1.4484,-1.3956,-1.3859,-1.4004,-1.4382,-1.4813,-1.5099,-1.5099,-1.5384,-1.5622,-1.5622,-1.6285,-1.6716,-1.6716,-1.7091,-1.7279,-1.7279,-1.7279,-1.7279,-1.7279,-1.7279,-1.7279,-1.7279,-1.7279,-1.7279,-1.7279,-1.7279,-1.7279,-1.7279,-1.7279,-1.7279,-1.7279,-1.7279,-1.7279,-1.7279,-1.7279,-1.7279,-1.7279,-1.7279,-1.7279,-1.7279,-1.7279,-1.7279,-1.7279,-1.7279,-1.7279,-1.7279,-1.7279,-1.7279,-1.7279,-1.7279,-1.7279,-1.7279,-1.7279,-1.6872,-1.6338,-1.5957,-1.565,-1.5389,-1.5389,-1.5389,-1.5389,-1.5389,-1.5389,-1.5389,-1.5389,-1.5389,-1.5389,-1.5389,-1.5002,-1.4618,-1.4335,-1.3843,0.0,0.0,-1.3177,-1.3272,-1.3272,-1.3404,-1.3492,-1.3492,-1.3492,-1.3492,-1.3492,-1.3492,-1.3492,-1.3492,-1.366,-1.3975,-1.4489,-1.4948,-1.5236,-1.5389,-1.5389,-1.5389,-1.5389,-1.5389,-1.5389,-1.5389,-1.5389,-1.5389,-1.5389,-1.5389,-1.5389,-1.5389,-1.5389,-1.5389,-1.5389,-1.5389,-1.5389,-1.5389,-1.5389,-1.5389,-1.5465,-1.3763,-1.3811,-1.3721,-1.291,-1.2813,-1.3001,-1.357,-1.4148,-1.458,-1.458,-1.4717,-1.4813,-1.4813,-1.548,-1.5954,-1.5954,-1.6473,-1.681,-1.681,-1.681,-1.6951,-1.7286,-1.7279,-1.7279,-1.7279,-1.7279,-1.7279,-1.7279,-1.7279,-1.7279,-1.7279,-1.7279,-1.7279,-1.7279,-1.7279,-1.7279,-1.7279,-1.7279,-1.7279,-1.7279,-1.7279,-1.7279,-1.7279,-1.7279,-1.7279,-1.7279,-1.7279,-1.7279,-1.7279,-1.7279,-1.7279,-1.7279,-1.7279,-1.7279,-1.7279,-1.7279,-1.6872,-1.6287,-1.5694,-1.5447,-1.5389,-1.5389,-1.5389,-1.5389,-1.5389,-1.5389,-1.5389,-1.5389,-1.5389,-1.5389,-1.5389,-1.5119,-1.4776,-1.446,0.0,0.0,0.0,-1.3448,-1.3492,-1.3492,-1.3492,-1.3492,-1.3492,-1.3492,-1.3492,-1.3492,-1.3492,-1.3492,-1.3492,-1.3733,-1.4055,-1.4496,-1.5094,-1.5389,-1.5389,-1.5389,-1.5389,-1.5389,-1.5389,-1.5389,-1.5389,-1.5389,-1.5389,-1.5389,-1.5389,-1.5389,-1.5389,-1.5389,-1.5389,-1.5389,-1.5389,-1.5389,-1.5389,-1.5389,-1.5389,-1.5506,-1.291,-1.291,-1.291,-1.2813,-1.2813,-1.2813,-1.2856,-1.2953,-1.2953,-1.2953,-1.357,-1.3998,-1.3998,-1.4717,-1.5194,-1.5194,-1.5242,-1.5242,-1.5242,-1.5242,-1.5859,-1.7232,-1.7279,-1.7279,-1.7279,-1.7279,-1.7279,-1.7279,-1.7279,-1.7279,-1.7279,-1.7279,-1.7279,-1.7279,-1.7279,-1.7279,-1.7279,-1.7279,-1.7279,-1.7279,-1.7279,-1.7279,-1.7279,-1.7279,-1.7279,-1.7279,-1.7279,-1.7279,-1.7279,-1.7279,-1.7279,-1.7279,-1.7279,-1.7279,-1.7279,-1.7279,-1.6872,-1.6345,-1.5972,-1.5657,-1.5389,-1.5389,-1.5389,-1.5389,-1.5389,-1.5389,-1.5389,-1.5389,-1.5389,-1.5389,-1.5389,-1.5119,-1.4696,-1.4121,0.0,0.0,-1.3133,-1.3301,-1.3492,-1.3492,-1.3492,-1.3492,-1.3492,-1.3492,-1.3492,-1.3492,-1.3492,-1.3492,-1.3492,-1.3521,-1.3821,-1.4489,-1.5094,-1.5389,-1.5389,-1.5389,-1.5389,-1.5389,-1.5389,-1.5389,-1.5389,-1.5389,-1.5389,-1.5389,-1.5389,-1.5389,-1.5389,-1.5389,-1.5389,-1.5389,-1.5389,-1.5389,-1.5389,-1.5389,-1.5389,-1.5431,-1.2322,-1.257,-1.2813,-1.2813,-1.2813,-1.2813,-1.2813,-1.2813,-1.2813,-1.2813,-1.305,-1.3238,-1.3238,-1.3908,-1.4382,-1.4382,-1.4813,-1.5099,-1.5099,-1.5099,-1.5575,-1.6567,-1.7044,-1.7279,-1.7279,-1.7279,-1.7279,-1.7279,-1.7279,-1.7279,-1.7279,-1.7279,-1.7279,-1.7279,-1.7279,-1.7279,-1.7279,-1.7279,-1.7279,-1.7279,-1.7279,-1.7279,-1.7279,-1.7279,-1.7279,-1.7279,-1.7279,-1.7279,-1.7279,-1.7279,-1.7279,-1.7279,-1.7279,-1.7279,-1.7279,-1.7279,-1.6872,-1.6389,-1.6228,-1.5818,-1.5389,-1.5389,-1.5389,-1.5389,-1.5389,-1.5389,-1.5389,-1.5389,-1.5389,-1.5389,-1.5389,-1.5119,-1.482,-1.4618,0.0,-1.3894,-1.3645,-1.3543,-1.3492,-1.3492,-1.3492,-1.3492,-1.3492,-1.3492,-1.3492,-1.3492,-1.3492,-1.3492,-1.3492,-1.3689,-1.4004,-1.4496,-1.4896,-1.5185,-1.5389,-1.5389,-1.5389,-1.5389,-1.5389,-1.5389,-1.5389,-1.5389,-1.5389,-1.5389,-1.5389,-1.5389,-1.5389,-1.5389,-1.5389,-1.5389,-1.5389,-1.5389,-1.5389,-1.5389,-1.5389,-1.5389,-1.1731,-1.2029,-1.2322,-1.2322,-1.2419,-1.2565,-1.2565,-1.2716,-1.2813,-1.2813,-1.2813,-1.2813,-1.2813,-1.3238,-1.357,-1.357,-1.4052,-1.4388,-1.4388,-1.4573,-1.5051,-1.5812,-1.6567,-1.6951,-1.6951,-1.7185,-1.7279,-1.7279,-1.7279,-1.7279,-1.7279,-1.7279,-1.7279,-1.7279,-1.7279,-1.7279,-1.7279,-1.7279,-1.7279,-1.7279,-1.7279,-1.7279,-1.7279,-1.7279,-1.7279,-1.7279,-1.7279,-1.7279,-1.7279,-1.7279,-1.7279,-1.7279,-1.7279,-1.7279,-1.7242,-1.7084,-1.6711,-1.6367,-1.6126,-1.576,-1.5389,-1.5389,-1.5389,-1.5389,-1.5389,-1.5389,-1.5389,-1.5389,-1.5389,-1.5389,-1.5389,-1.5119,-1.4871,-1.4809,-1.4333,-1.3945,-1.3843,-1.3638,-1.3492,-1.3492,-1.3492,-1.3492,-1.3492,-1.3492,-1.3492,-1.3492,-1.3492,-1.3492,-1.3492,-1.3806,-1.4128,-1.4496,-1.4779,-1.5061,-1.5382,-1.5389,-1.5389,-1.5389,-1.5389,-1.5389,-1.5389,-1.5389,-1.5389,-1.5389,-1.5389,-1.5389,-1.5389,-1.5389,-1.5389,-1.5389,-1.5389,-1.5389,-1.5389,-1.5389,-1.5389,-1.5389,-1.1194,-1.1194,-1.1194,-1.1194,-1.1634,-1.198,-1.198,-1.2467,-1.2813,-1.2813,-1.2813,-1.2813,-1.2813,-1.2813,-1.2813,-1.2813,-1.2813,-1.2813,-1.2813,-1.348,-1.4238,-1.5051,-1.5812,-1.619,-1.619,-1.6904,-1.7279,-1.7279,-1.7279,-1.7279,-1.7279,-1.7279,-1.7279,-1.7279,-1.7279,-1.7279,-1.7279,-1.7279,-1.7279,-1.7279,-1.7279,-1.7279,-1.7279,-1.7279,-1.7279,-1.7279,-1.7279,-1.7279,-1.7279,-1.7279,-1.7279,-1.7279,-1.7279,-1.7279,-1.7155,-1.6565,-1.6419,-1.6235,-1.5606,-1.5389,-1.5389,-1.5389,-1.5389,-1.5389,-1.5389,-1.5389,-1.5389,-1.5389,-1.5389,-1.5389,-1.5389,-1.5119,-1.4798,-1.4562,-1.4232,-1.3865,-1.3543,-1.3492,-1.3492,-1.3492,-1.3492,-1.3492,-1.3492,-1.3492,-1.3492,-1.3492,-1.3492,-1.3492,-1.3492,-1.3806,-1.4128,-1.4496,-1.4779,-1.5061,-1.5382,-1.5389,-1.5389,-1.5389,-1.5389,-1.5389,-1.5389,-1.5389,-1.5389,-1.5389,-1.5389,-1.5389,-1.5389,-1.5389,-1.5389,-1.5389,-1.5389,-1.5389,-1.5389,-1.5389,-1.5389,-1.5389,-1.0659,-1.0949,-1.1194,-1.1194,-1.134,-1.1438,-1.1438,-1.159,-1.1683,-1.1683,-1.198,-1.2224,-1.2224,-1.257,-1.2813,-1.2813,-1.2813,-1.2813,-1.2813,-1.3001,-1.3238,-1.348,-1.4717,-1.5432,-1.5432,-1.5622,-1.5764,-1.5764,-1.6285,-1.652,-1.652,-1.7044,-1.7279,-1.7279,-1.7279,-1.7279,-1.7279,-1.7279,-1.7279,-1.7279,-1.7279,-1.7279,-1.7279,-1.7279,-1.7279,-1.7279,-1.7279,-1.7279,-1.7279,-1.7279,-1.7279,-1.7279,-1.7279,-1.7279,-1.7242,-1.7099,-1.6718,-1.6375,-1.614,-1.5767,-1.5389,-1.5389,-1.5389,-1.5389,-1.5389,-1.5389,-1.5389,-1.5389,-1.5389,-1.5389,-1.5389,-1.4977,-1.4582,-1.4526,-1.4004,-1.3601,-1.3506,-1.3492,-1.3492,-1.3492,-1.3492,-1.3492,-1.3492,-1.3492,-1.3492,-1.3492,-1.3492,-1.3492,-1.3492,-1.3806,-1.4128,-1.4496,-1.4779,-1.5061,-1.5382,-1.5389,-1.5389,-1.5389,-1.5389,-1.5389,-1.5389,-1.5389,-1.5389,-1.5389,-1.5389,-1.5389,-1.5389,-1.5389,-1.5389,-1.5389,-1.5389,-1.5389,-1.5389,-1.5389,-1.5389,-1.5389,-1.0068,-1.0364,-1.056,-1.056,-1.0752,-1.09,-1.09,-1.1047,-1.1194,-1.1194,-1.1487,-1.1683,-1.1683,-1.198,-1.2175,-1.2175,-1.237,-1.2467,-1.2467,-1.2667,-1.2813,-1.2813,-1.3673,-1.434,-1.4621,-1.4956,-1.5099,-1.5099,-1.5527,-1.5764,-1.5764,-1.6237,-1.6567,-1.6857,-1.6857,-1.7044,-1.7279,-1.7279,-1.7279,-1.7279,-1.7279,-1.7279,-1.7279,-1.7279,-1.7279,-1.7279,-1.7279,-1.7279,-1.7279,-1.7279,-1.7279,-1.7279,-1.7279,-1.7279,-1.7257,-1.7179,-1.6865,-1.6551,-1.6257,-1.5913,-1.5549,-1.5418,-1.5389,-1.5389,-1.5389,-1.5389,-1.5389,-1.5389,-1.5389,-1.5389,-1.5389,-1.5006,-1.4655,-1.4655,-1.4114,-1.3689,-1.3689,-1.3579,-1.3492,-1.3492,-1.3492,-1.3492,-1.3492,-1.3492,-1.3492,-1.3492,-1.3492,-1.355,-1.3682,-1.3879,-1.4187,-1.464,-1.4805,-1.5061,-1.5382,-1.5389,-1.5389,-1.5389,-1.5389,-1.5389,-1.5389,-1.5389,-1.5389,-1.5389,-1.5389,-1.5389,-1.5389,-1.5389,-1.5389,-1.5389,-1.5389,-1.5389,-1.5389,-1.5389,-1.5389,-1.5389,-0.9579,-0.9579,-0.9579,-0.9579,-1.0019,-1.0314,-1.0314,-1.0752,-1.1051,-1.1051,-1.11,-1.1145,-1.1145,-1.1145,-1.1194,-1.1194,-1.1639,-1.1932,-1.1932,-1.237,-1.2667,-1.2716,-1.2716,-1.305,-1.3811,-1.4526,-1.4908,-1.4908,-1.4956,-1.5003,-1.5003,-1.5051,-1.548,-1.6096,-1.6096,-1.6473,-1.7091,-1.7091,-1.7138,-1.7185,-1.7185,-1.7232,-1.7279,-1.7279,-1.7279,-1.7279,-1.7279,-1.7279,-1.7279,-1.7279,-1.7279,-1.7279,-1.7279,-1.7279,-1.7274,-1.7027,-1.6925,-1.6771,-1.6118,-1.5935,-1.584,-1.5469,-1.5389,-1.5389,-1.5389,-1.5389,-1.5389,-1.5389,-1.5389,-1.5389,-1.5389,-1.5119,-1.49,-1.49,-1.4428,-1.4011,-1.3989,-1.3726,-1.3528,-1.3499,-1.3492,-1.3492,-1.3492,-1.3492,-1.3492,-1.3492,-1.3492,-1.3638,-1.3967,-1.4049,-1.4304,-1.4878,-1.4929,-1.509,-1.5382,-1.5389,-1.5389,-1.5389,-1.5389,-1.5389,-1.5389,-1.5389,-1.5389,-1.5389,-1.5389,-1.5389,-1.5389,-1.5389,-1.5389,-1.5389,-1.5389,-1.5389,-1.5389,-1.5389,-1.5389,-1.5389,-0.9579,-0.9579,-0.9579,-0.9579,-0.9677,-0.9776,-0.9776,-0.9871,-0.9969,-0.9969,-1.0314,-1.056,-1.056,-1.0949,-1.1194,-1.1194,-1.1292,-1.1389,-1.1389,-1.1487,-1.1736,-1.2175,-1.2175,-1.2419,-1.305,-1.3195,-1.3292,-1.3292,-1.3859,-1.4142,-1.419,-1.4813,-1.5194,-1.5337,-1.5337,-1.5432,-1.5575,-1.5575,-1.5906,-1.6426,-1.6426,-1.6763,-1.7279,-1.7279,-1.7279,-1.7279,-1.7279,-1.7279,-1.7279,-1.7279,-1.7279,-1.7279,-1.7279,-1.7279,-1.7271,-1.7245,-1.7047,-1.6815,-1.6419,-1.6096,-1.584,-1.5469,-1.5389,-1.5389,-1.5389,-1.5389,-1.5389,-1.5389,-1.5389,-1.5389,-1.5389,-1.5119,-1.49,-1.49,-1.4618,-1.4313,-1.4056,-1.3923,-1.3784,-1.3521,-1.3492,-1.3492,-1.3492,-1.3492,-1.3492,-1.3492,-1.3492,-1.3638,-1.3967,-1.4262,-1.4545,-1.4893,-1.5148,-1.5316,-1.5389,-1.5389,-1.5389,-1.5389,-1.5389,-1.5389,-1.5389,-1.5389,-1.5389,-1.5389,-1.5389,-1.5389,-1.5389,-1.5389,-1.5389,-1.5389,-1.5389,-1.5389,-1.5389,-1.5389,-1.5389,-1.5389,-0.9579,-0.9579,-0.9579,-0.9579,-0.9579,-0.9579,-0.9579,-0.9579,-0.9579,-0.9579,-0.9821,-1.0019,-1.0019,-1.0265,-1.0462,-1.0462,-1.0654,-1.0806,-1.0806,-1.1051,-1.134,-1.159,-1.1639,-1.1878,-1.2419,-1.2419,-1.2516,-1.2813,-1.3195,-1.3383,-1.3383,-1.3811,-1.4196,-1.4526,-1.4526,-1.4717,-1.5099,-1.5099,-1.5337,-1.5669,-1.5669,-1.5906,-1.6237,-1.6237,-1.6237,-1.6237,-1.6237,-1.6089,-1.594,-1.6567,-1.6608,-1.6506,-1.7091,-1.7279,-1.7279,-1.7279,-1.7208,-1.7011,-1.6734,-1.6146,-1.5669,-1.5653,-1.5288,-1.4999,-1.534,-1.5389,-1.5389,-1.5389,-1.5389,-1.5389,-1.5389,-1.525,-1.5133,-1.5133,-1.4904,-1.464,-1.4465,-1.4172,-1.3916,-1.3748,-1.3587,-1.3492,-1.3492,-1.3492,-1.3558,-1.3718,-1.3726,-1.3938,-1.4414,-1.4604,-1.4845,-1.5126,-1.5301,-1.5389,-1.5389,-1.5389,-1.5389,-1.5389,-1.5389,-1.5389,-1.5389,-1.5389,-1.5389,-1.5389,-1.5389,-1.5389,-1.5389,-1.5389,-1.5389,-1.5389,-1.5389,-1.5389,-1.5389,-1.5389,-1.5389,-1.5389,-0.9579,-0.9579,-0.9579,-0.9579,-0.9579,-0.9579,-0.9579,-0.9579,-0.9579,-0.9579,-0.9579,-0.9579,-0.9579,-0.9579,-0.9579,-0.9579,-1.0019,-1.0265,-1.0265,-1.0654,-1.0949,-1.1051,-1.1047,-1.1292,-1.1834,-1.1878,-1.2175,-1.2813,-1.2813,-1.2813,-1.2813,-1.2813,-1.3147,-1.3715,-1.3715,-1.4094,-1.4723,-1.4723,-1.4765,-1.4908,-1.4813,-1.4908,-1.5099,-1.4902,-1.4902,-1.4956,-1.4854,-1.4561,-1.431,-1.5371,-1.546,-1.5257,-1.6318,-1.6655,-1.6655,-1.6655,-1.6619,-1.6553,-1.625,-1.558,-1.4967,-1.5159,-1.4625,-1.4139,-1.4699,-1.5124,-1.5389,-1.5389,-1.5389,-1.5347,-1.5257,-1.5215,-1.5215,-1.5215,-1.4991,-1.4837,-1.4907,-1.4362,-1.4006,-1.407,-1.3777,-1.3521,-1.3426,-1.347,-1.3652,-1.3922,-1.4033,-1.4326,-1.4871,-1.49,-1.5053,-1.5374,-1.5389,-1.5389,-1.5389,-1.5389,-1.5389,-1.5389,-1.5389,-1.5389,-1.5389,-1.5389,-1.5389,-1.5389,-1.5389,-1.5389,-1.5389,-1.5389,-1.5389,-1.5389,-1.5389,-1.5389,-1.5389,-1.5389,-1.5389,-1.5389,-0.9579,-0.9579,-0.9579,-0.9579,-0.9579,-0.9579,-0.9579,-0.9579,-0.9579,-0.9579,-0.9579,-0.9579,-0.9579,-0.9579,-0.9579,-0.9579,-0.9677,-0.9727,-0.9727,-0.9776,-1.0019,-1.0511,-1.0507,-1.0752,-1.1296,-1.1292,-1.1785,-1.2813,-1.2813,-1.2813,-1.2813,-1.2813,-1.2861,-1.2953,-1.2953,-1.3001,-1.3098,-1.3098,-1.348,-1.3998,-1.3559,-1.4088,-1.5003,-1.407,-1.4022,-1.4364,-1.3872,-1.368,-1.3626,-1.3824,-1.3819,-1.3771,-1.3962,-1.401,-1.401,-1.401,-1.3909,-1.3677,-1.3369,-1.3058,-1.2841,-1.2574,-1.2443,-1.2328,-1.2456,-1.3964,-1.5389,-1.5389,-1.5389,-1.5215,-1.4657,-1.4524,-1.4524,-1.4524,-1.449,-1.458,-1.4856,-1.433,-1.4055,-1.4397,-1.3999,-1.35,-1.3038,-1.3406,-1.3705,-1.3748,-1.4168,-1.456,-1.4878,-1.49,-1.5053,-1.5374,-1.5389,-1.5389,-1.5389,-1.5389,-1.5389,-1.5389,-1.5389,-1.5389,-1.5389,-1.5389,-1.5389,-1.5389,-1.5389,-1.5389,-1.5389,-1.5389,-1.5389,-1.5389,-1.5389,-1.5389,-1.5389,-1.5389,-1.5389,-1.5389,-0.9579,-0.9579,-0.9579,-0.9579,-0.9579,-0.9579,-0.9579,-0.9579,-0.9579,-0.9579,-0.9579,-0.9579,-0.9579,-0.9579,-0.9579,-0.9579,-0.9579,-0.9579,-0.9579,-0.9579,-0.9723,-0.992,-0.9969,-1.0216,-1.0752,-1.0752,-1.1145,-1.1927,-1.1927,-1.1927,-1.1927,-1.1927,-1.1927,-1.1927,-1.1927,-1.1927,-1.1927,-1.1927,-1.2073,-1.2355,-1.2111,-1.2403,-1.2883,-1.2393,-1.2344,-1.2543,-1.2296,-1.2004,-1.1901,-1.2576,-1.2668,-1.2571,-1.3295,-1.3482,-1.3482,-1.3482,-1.3456,-1.3318,-1.3072,-1.254,-1.2115,-1.226,-1.1841,-1.1526,-1.1901,-1.2802,-1.3578,-1.3831,-1.3662,-1.3487,-1.3451,-1.3233,-1.3057,-1.3057,-1.3057,-1.3104,-1.3278,-1.287,-1.2547,-1.2552,-1.2279,-1.2126,-1.2229,-1.2369,-1.2686,-1.3213,-1.3487,-1.373,-1.4069,-1.4041,-1.4143,-1.4279,-1.4286,-1.4454,-1.4824,-1.4824,-1.5041,-1.5389,-1.5389,-1.5389,-1.5389,-1.5389,-1.5389,-1.5389,-1.5389,-1.5389,-1.5389,-1.5389,-1.5389,-1.5389,-1.5389,-1.5389,-1.5389,-1.5389,-1.5389,-1.5389]}]]